Wetterdaten: Dienstag, 06.06.2017
Datum Zeit Temp. A. Pool Temp. Feuchte A. Luftdruck Regen Wind Richtung Richtung Sonnenschein ET UV Solar Taupunkt Windchill Windben Empfang
06.06.2017 00:00 15,7 C 23,9 C 94 % 1009,8 hPa 0,0 l/m 9,7 km/h (2 Bft) W-SW 246 0 min 0,000 mm 0,0 UV-I 0 W/m 14,7 C 14,0 C 14,5 km/h (3 Bft) 94,00 %
06.06.2017 00:02 15,7 C 23,9 C 94 % 1009,7 hPa 0,0 l/m 8,1 km/h (2 Bft) W 260 0 min 0,000 mm 0,0 UV-I 0 W/m 14,7 C 14,8 C 9,7 km/h (2 Bft) 95,12 %
06.06.2017 00:04 15,7 C 23,9 C 94 % 1009,7 hPa 0,0 l/m 10,1 km/h (2 Bft) W-SW 253 0 min 0,000 mm 0,0 UV-I 0 W/m 14,7 C 13,8 C 14,5 km/h (3 Bft) 93,62 %
06.06.2017 00:06 15,7 C 23,9 C 94 % 1009,7 hPa 0,0 l/m 7,0 km/h (2 Bft) W-SW 252 0 min 0,000 mm 0,0 UV-I 0 W/m 14,7 C 15,4 C 14,5 km/h (3 Bft) 95,74 %
06.06.2017 00:08 15,7 C 23,9 C 95 % 1009,5 hPa 0,0 l/m 7,1 km/h (2 Bft) W-SW 252 0 min 0,000 mm 0,0 UV-I 0 W/m 14,9 C 15,3 C 12,9 km/h (3 Bft) 93,62 %
06.06.2017 00:10 15,7 C 23,9 C 95 % 1009,4 hPa 0,0 l/m 7,9 km/h (2 Bft) W-SW 248 0 min 0,000 mm 0,0 UV-I 0 W/m 14,9 C 14,9 C 14,5 km/h (3 Bft) 97,87 %
06.06.2017 00:12 15,7 C 23,9 C 95 % 1009,4 hPa 0,0 l/m 7,8 km/h (2 Bft) W-SW 257 0 min 0,000 mm 0,0 UV-I 0 W/m 14,9 C 14,9 C 12,9 km/h (3 Bft) 96,00 %
06.06.2017 00:14 15,7 C 23,9 C 95 % 1009,4 hPa 0,0 l/m 9,1 km/h (2 Bft) W-SW 240 0 min 0,000 mm 0,0 UV-I 0 W/m 14,9 C 14,3 C 12,9 km/h (3 Bft) 95,12 %
06.06.2017 00:16 15,7 C 23,9 C 95 % 1009,4 hPa 0,0 l/m 9,3 km/h (2 Bft) W-SW 250 0 min 0,000 mm 0,0 UV-I 0 W/m 14,9 C 14,2 C 12,9 km/h (3 Bft) 97,87 %
06.06.2017 00:18 15,6 C 23,9 C 95 % 1009,4 hPa 0,0 l/m 9,5 km/h (2 Bft) W 265 0 min 0,000 mm 0,0 UV-I 0 W/m 14,8 C 14,0 C 16,1 km/h (3 Bft) 93,62 %
06.06.2017 00:20 15,6 C 23,9 C 94 % 1009,3 hPa 0,0 l/m 8,9 km/h (2 Bft) W-SW 243 0 min 0,000 mm 0,0 UV-I 0 W/m 14,6 C 14,3 C 16,1 km/h (3 Bft) 100,00 %
06.06.2017 00:22 15,6 C 23,9 C 94 % 1009,2 hPa 0,0 l/m 10,6 km/h (2 Bft) W-SW 251 0 min 0,000 mm 0,0 UV-I 0 W/m 14,6 C 13,5 C 16,1 km/h (3 Bft) 93,62 %
06.06.2017 00:24 15,6 C 23,9 C 94 % 1009,3 hPa 0,0 l/m 10,3 km/h (2 Bft) W-SW 241 0 min 0,000 mm 0,0 UV-I 0 W/m 14,6 C 13,7 C 19,3 km/h (3 Bft) 100,00 %
06.06.2017 00:26 15,5 C 23,9 C 94 % 1009,2 hPa 0,0 l/m 10,4 km/h (2 Bft) W-SW 240 0 min 0,000 mm 0,0 UV-I 0 W/m 14,5 C 13,5 C 17,7 km/h (3 Bft) 92,00 %
06.06.2017 00:28 15,4 C 23,9 C 94 % 1009,2 hPa 0,0 l/m 8,3 km/h (2 Bft) W-SW 251 0 min 0,000 mm 0,0 UV-I 0 W/m 14,4 C 14,4 C 14,5 km/h (3 Bft) 97,87 %
06.06.2017 00:30 15,4 C 23,9 C 95 % 1009,1 hPa 0,0 l/m 7,3 km/h (2 Bft) W-SW 251 0 min 0,000 mm 0,0 UV-I 0 W/m 14,6 C 14,9 C 12,9 km/h (3 Bft) 97,87 %
06.06.2017 00:32 15,4 C 23,9 C 95 % 1009,1 hPa 0,0 l/m 7,6 km/h (2 Bft) W-SW 256 0 min 0,000 mm 0,0 UV-I 0 W/m 14,6 C 14,7 C 12,9 km/h (3 Bft) 100,00 %
06.06.2017 00:34 15,4 C 23,9 C 95 % 1009,1 hPa 0,0 l/m 6,5 km/h (2 Bft) W 261 0 min 0,000 mm 0,0 UV-I 0 W/m 14,6 C 15,4 C 11,3 km/h (2 Bft) 97,87 %
06.06.2017 00:36 15,4 C 23,9 C 95 % 1009,0 hPa 0,0 l/m 7,1 km/h (2 Bft) W 263 0 min 0,000 mm 0,0 UV-I 0 W/m 14,6 C 15,0 C 12,9 km/h (3 Bft) 95,74 %
06.06.2017 00:38 15,4 C 23,9 C 95 % 1009,1 hPa 0,0 l/m 6,8 km/h (2 Bft) W-SW 238 0 min 0,000 mm 0,0 UV-I 0 W/m 14,6 C 15,2 C 11,3 km/h (2 Bft) 97,87 %
06.06.2017 00:40 15,4 C 23,9 C 95 % 1009,0 hPa 0,0 l/m 7,0 km/h (2 Bft) W 260 0 min 0,000 mm 0,0 UV-I 0 W/m 14,6 C 15,1 C 11,3 km/h (2 Bft) 97,87 %
06.06.2017 00:42 15,4 C 23,9 C 95 % 1009,0 hPa 0,0 l/m 5,4 km/h (1 Bft) W-SW 248 0 min 0,000 mm 0,0 UV-I 0 W/m 14,6 C 15,4 C 11,3 km/h (2 Bft) 97,87 %
06.06.2017 00:44 15,4 C 23,9 C 95 % 1009,0 hPa 0,0 l/m 5,9 km/h (2 Bft) SW 227 0 min 0,000 mm 0,0 UV-I 0 W/m 14,6 C 15,4 C 11,3 km/h (2 Bft) 97,87 %
06.06.2017 00:46 15,4 C 23,9 C 95 % 1009,0 hPa 0,0 l/m 5,0 km/h (1 Bft) SW 223 0 min 0,000 mm 0,0 UV-I 0 W/m 14,6 C 15,4 C 8,0 km/h (2 Bft) 97,92 %
06.06.2017 00:48 15,4 C 23,9 C 95 % 1009,0 hPa 0,0 l/m 4,7 km/h (1 Bft) SW 229 0 min 0,000 mm 0,0 UV-I 0 W/m 14,6 C 15,4 C 12,9 km/h (3 Bft) 97,87 %
06.06.2017 00:50 15,4 C 23,9 C 95 % 1009,0 hPa 0,0 l/m 6,8 km/h (2 Bft) S-SW 210 0 min 0,000 mm 0,0 UV-I 0 W/m 14,6 C 15,2 C 14,5 km/h (3 Bft) 98,00 %
06.06.2017 00:52 15,4 C 23,9 C 95 % 1009,0 hPa 0,0 l/m 5,4 km/h (1 Bft) S-SW 211 0 min 0,000 mm 0,0 UV-I 0 W/m 14,6 C 15,4 C 8,0 km/h (2 Bft) 100,00 %
06.06.2017 00:54 15,4 C 23,9 C 95 % 1009,0 hPa 0,0 l/m 5,5 km/h (1 Bft) SW 223 0 min 0,000 mm 0,0 UV-I 0 W/m 14,6 C 15,4 C 8,0 km/h (2 Bft) 97,87 %
06.06.2017 00:56 15,5 C 23,9 C 95 % 1009,0 hPa 0,0 l/m 5,3 km/h (1 Bft) SW 227 0 min 0,000 mm 0,0 UV-I 0 W/m 14,7 C 15,5 C 6,4 km/h (2 Bft) 97,87 %
06.06.2017 00:58 15,5 C 23,9 C 95 % 1008,9 hPa 0,0 l/m 6,1 km/h (2 Bft) S-SW 207 0 min 0,000 mm 0,0 UV-I 0 W/m 14,7 C 15,5 C 8,0 km/h (2 Bft) 98,00 %
06.06.2017 01:00 15,4 C 23,9 C 95 % 1008,9 hPa 0,0 l/m 6,6 km/h (2 Bft) S-SW 198 0 min 0,000 mm 0,0 UV-I 0 W/m 14,6 C 15,3 C 8,0 km/h (2 Bft) 97,87 %
06.06.2017 01:02 15,5 C 23,9 C 95 % 1008,9 hPa 0,0 l/m 2,5 km/h (1 Bft) S-SW 192 0 min 0,000 mm 0,0 UV-I 0 W/m 14,7 C 15,5 C 4,8 km/h (1 Bft) 98,00 %
06.06.2017 01:04 15,5 C 23,9 C 95 % 1008,9 hPa 0,0 l/m 3,1 km/h (1 Bft) S 186 0 min 0,000 mm 0,0 UV-I 0 W/m 14,7 C 15,5 C 8,0 km/h (2 Bft) 97,87 %
06.06.2017 01:06 15,5 C 23,9 C 95 % 1008,9 hPa 0,0 l/m 3,5 km/h (1 Bft) S 180 0 min 0,000 mm 0,0 UV-I 0 W/m 14,7 C 15,5 C 6,4 km/h (2 Bft) 100,00 %
06.06.2017 01:08 15,6 C 23,9 C 95 % 1008,9 hPa 0,0 l/m 3,4 km/h (1 Bft) S-SW 199 0 min 0,000 mm 0,0 UV-I 0 W/m 14,8 C 15,6 C 6,4 km/h (2 Bft) 97,92 %
06.06.2017 01:10 15,6 C 23,9 C 95 % 1008,8 hPa 0,0 l/m 3,6 km/h (1 Bft) S 181 0 min 0,000 mm 0,0 UV-I 0 W/m 14,8 C 15,6 C 6,4 km/h (2 Bft) 100,00 %
06.06.2017 01:12 15,6 C 23,9 C 95 % 1008,7 hPa 0,0 l/m 2,2 km/h (1 Bft) S 181 0 min 0,000 mm 0,0 UV-I 0 W/m 14,8 C 15,6 C 4,8 km/h (1 Bft) 95,74 %
06.06.2017 01:14 15,6 C 23,9 C 95 % 1008,6 hPa 0,0 l/m 1,9 km/h (1 Bft) S 181 0 min 0,000 mm 0,0 UV-I 0 W/m 14,8 C 15,6 C 4,8 km/h (1 Bft) 100,00 %
06.06.2017 01:16 15,6 C 23,9 C 95 % 1008,6 hPa 0,0 l/m 3,1 km/h (1 Bft) S 181 0 min 0,000 mm 0,0 UV-I 0 W/m 14,8 C 15,6 C 6,4 km/h (2 Bft) 100,00 %
06.06.2017 01:18 15,6 C 23,9 C 95 % 1008,5 hPa 0,0 l/m 2,3 km/h (1 Bft) S 181 0 min 0,000 mm 0,0 UV-I 0 W/m 14,8 C 15,6 C 4,8 km/h (1 Bft) 97,87 %
06.06.2017 01:20 15,6 C 23,9 C 95 % 1008,5 hPa 0,0 l/m 1,6 km/h (1 Bft) S 181 0 min 0,000 mm 0,0 UV-I 0 W/m 14,8 C 15,6 C 3,2 km/h (1 Bft) 95,74 %
06.06.2017 01:22 15,6 C 23,9 C 95 % 1008,5 hPa 0,0 l/m 1,8 km/h (1 Bft) S 181 0 min 0,000 mm 0,0 UV-I 0 W/m 14,8 C 15,6 C 3,2 km/h (1 Bft) 100,00 %
06.06.2017 01:24 15,6 C 23,9 C 95 % 1008,5 hPa 0,0 l/m 1,6 km/h (1 Bft) S 181 0 min 0,000 mm 0,0 UV-I 0 W/m 14,8 C 15,6 C 3,2 km/h (1 Bft) 95,74 %
06.06.2017 01:26 15,6 C 23,9 C 95 % 1008,4 hPa 0,0 l/m 2,0 km/h (1 Bft) S 181 0 min 0,000 mm 0,0 UV-I 0 W/m 14,8 C 15,6 C 3,2 km/h (1 Bft) 97,37 %
06.06.2017 01:28 15,6 C 23,9 C 95 % 1008,4 hPa 0,0 l/m 1,9 km/h (1 Bft) S 181 0 min 0,000 mm 0,0 UV-I 0 W/m 14,8 C 15,6 C 3,2 km/h (1 Bft) 98,00 %
06.06.2017 01:30 15,6 C 23,9 C 95 % 1008,4 hPa 0,0 l/m 1,2 km/h (1 Bft) S 181 0 min 0,000 mm 0,0 UV-I 0 W/m 14,8 C 15,6 C 3,2 km/h (1 Bft) 97,87 %
06.06.2017 01:32 15,6 C 23,9 C 95 % 1008,3 hPa 0,0 l/m 0,5 km/h (0 Bft) S 181 0 min 0,000 mm 0,0 UV-I 0 W/m 14,8 C 15,6 C 1,6 km/h (1 Bft) 100,00 %
06.06.2017 01:34 15,6 C 23,9 C 95 % 1008,3 hPa 0,0 l/m 1,3 km/h (1 Bft) S 181 0 min 0,000 mm 0,0 UV-I 0 W/m 14,8 C 15,6 C 3,2 km/h (1 Bft) 97,87 %
06.06.2017 01:36 15,6 C 23,9 C 95 % 1008,2 hPa 0,0 l/m 0,7 km/h (0 Bft) S 181 0 min 0,000 mm 0,0 UV-I 0 W/m 14,8 C 15,6 C 3,2 km/h (1 Bft) 97,92 %
06.06.2017 01:38 15,5 C 23,9 C 95 % 1008,2 hPa 0,0 l/m 0,0 km/h (0 Bft) S 181 0 min 0,000 mm 0,0 UV-I 0 W/m 14,7 C 15,5 C 0,0 km/h (0 Bft) 100,00 %
06.06.2017 01:40 15,5 C 23,9 C 95 % 1008,3 hPa 0,0 l/m 0,6 km/h (0 Bft) S 181 0 min 0,000 mm 0,0 UV-I 0 W/m 14,7 C 15,5 C 3,2 km/h (1 Bft) 96,00 %
06.06.2017 01:42 15,5 C 23,9 C 95 % 1008,3 hPa 0,0 l/m 3,0 km/h (1 Bft) S 179 0 min 0,000 mm 0,0 UV-I 0 W/m 14,7 C 15,5 C 4,8 km/h (1 Bft) 97,87 %
06.06.2017 01:44 15,4 C 23,9 C 95 % 1008,1 hPa 0,0 l/m 2,7 km/h (1 Bft) S-SO 168 0 min 0,000 mm 0,0 UV-I 0 W/m 14,6 C 15,4 C 6,4 km/h (2 Bft) 97,87 %
06.06.2017 01:46 15,4 C 23,9 C 95 % 1008,1 hPa 0,0 l/m 1,6 km/h (1 Bft) S-SO 168 0 min 0,000 mm 0,0 UV-I 0 W/m 14,6 C 15,4 C 6,4 km/h (2 Bft) 100,00 %
06.06.2017 01:48 15,4 C 23,9 C 95 % 1008,1 hPa 0,0 l/m 2,8 km/h (1 Bft) S 169 0 min 0,000 mm 0,0 UV-I 0 W/m 14,6 C 15,4 C 6,4 km/h (2 Bft) 95,83 %
06.06.2017 01:50 15,4 C 23,9 C 95 % 1008,0 hPa 0,0 l/m 1,9 km/h (1 Bft) S 169 0 min 0,000 mm 0,0 UV-I 0 W/m 14,6 C 15,4 C 3,2 km/h (1 Bft) 97,87 %
06.06.2017 01:52 15,4 C 23,9 C 95 % 1008,1 hPa 0,0 l/m 1,7 km/h (1 Bft) S 169 0 min 0,000 mm 0,0 UV-I 0 W/m 14,6 C 15,4 C 3,2 km/h (1 Bft) 100,00 %
06.06.2017 01:54 15,4 C 23,9 C 95 % 1008,1 hPa 0,0 l/m 2,1 km/h (1 Bft) S 169 0 min 0,000 mm 0,0 UV-I 0 W/m 14,6 C 15,4 C 6,4 km/h (2 Bft) 95,74 %
06.06.2017 01:56 15,4 C 23,9 C 95 % 1008,0 hPa 0,0 l/m 1,4 km/h (1 Bft) S 169 0 min 0,000 mm 0,0 UV-I 0 W/m 14,6 C 15,4 C 3,2 km/h (1 Bft) 94,74 %
06.06.2017 01:58 15,4 C 23,9 C 95 % 1008,1 hPa 0,0 l/m 0,9 km/h (0 Bft) S 169 0 min 0,000 mm 0,0 UV-I 0 W/m 14,6 C 15,4 C 3,2 km/h (1 Bft) 95,74 %
06.06.2017 02:00 15,3 C 23,9 C 95 % 1008,1 hPa 0,0 l/m 0,9 km/h (0 Bft) S 169 0 min 0,000 mm 0,0 UV-I 0 W/m 14,5 C 15,3 C 1,6 km/h (1 Bft) 94,29 %
06.06.2017 02:02 15,3 C 23,9 C 95 % 1008,0 hPa 0,0 l/m 0,6 km/h (0 Bft) S 169 0 min 0,000 mm 0,0 UV-I 0 W/m 14,5 C 15,3 C 3,2 km/h (1 Bft) 95,16 %
06.06.2017 02:04 15,4 C 23,9 C 95 % 1008,0 hPa 0,0 l/m 0,5 km/h (0 Bft) S 169 0 min 0,000 mm 0,0 UV-I 0 W/m 14,6 C 15,4 C 1,6 km/h (1 Bft) 93,62 %
06.06.2017 02:06 15,4 C 23,9 C 96 % 1007,9 hPa 0,0 l/m 0,0 km/h (0 Bft) S 169 0 min 0,000 mm 0,0 UV-I 0 W/m 14,8 C 15,4 C 1,6 km/h (1 Bft) 97,87 %
06.06.2017 02:08 15,4 C 23,9 C 96 % 1007,9 hPa 0,0 l/m 0,0 km/h (0 Bft) S 169 0 min 0,000 mm 0,0 UV-I 0 W/m 14,8 C 15,4 C 1,6 km/h (1 Bft) 95,74 %
06.06.2017 02:10 15,3 C 23,9 C 96 % 1007,9 hPa 0,0 l/m 0,0 km/h (0 Bft) S 169 0 min 0,000 mm 0,0 UV-I 0 W/m 14,7 C 15,3 C 0,0 km/h (0 Bft) 96,00 %
06.06.2017 02:12 15,3 C 23,9 C 95 % 1007,9 hPa 0,0 l/m 0,0 km/h (0 Bft) S 169 0 min 0,000 mm 0,0 UV-I 0 W/m 14,5 C 15,3 C 0,0 km/h (0 Bft) 95,74 %
06.06.2017 02:14 15,3 C 23,9 C 95 % 1007,8 hPa 0,0 l/m 0,0 km/h (0 Bft) S 169 0 min 0,000 mm 0,0 UV-I 0 W/m 14,5 C 15,3 C 0,0 km/h (0 Bft) 89,47 %
06.06.2017 02:16 15,2 C 23,9 C 95 % 1007,8 hPa 0,0 l/m 0,0 km/h (0 Bft) S 169 0 min 0,000 mm 0,0 UV-I 0 W/m 14,4 C 15,2 C 0,0 km/h (0 Bft) 95,74 %
06.06.2017 02:18 15,2 C 23,9 C 95 % 1007,8 hPa 0,0 l/m 0,0 km/h (0 Bft) S 169 0 min 0,000 mm 0,0 UV-I 0 W/m 14,4 C 15,2 C 0,0 km/h (0 Bft) 97,87 %
06.06.2017 02:20 15,1 C 23,9 C 95 % 1007,8 hPa 0,0 l/m 0,0 km/h (0 Bft) S 169 0 min 0,000 mm 0,0 UV-I 0 W/m 14,3 C 15,1 C 0,0 km/h (0 Bft) 95,74 %
06.06.2017 02:22 15,1 C 23,9 C 95 % 1007,8 hPa 0,0 l/m 0,0 km/h (0 Bft) S 169 0 min 0,000 mm 0,0 UV-I 0 W/m 14,3 C 15,1 C 0,0 km/h (0 Bft) 97,92 %
06.06.2017 02:24 15,0 C 23,9 C 95 % 1007,7 hPa 0,0 l/m 0,0 km/h (0 Bft) S 169 0 min 0,000 mm 0,0 UV-I 0 W/m 14,2 C 15,0 C 0,0 km/h (0 Bft) 94,00 %
06.06.2017 02:26 14,9 C 23,9 C 95 % 1007,7 hPa 0,0 l/m 0,0 km/h (0 Bft) S 169 0 min 0,000 mm 0,0 UV-I 0 W/m 14,1 C 14,9 C 1,6 km/h (1 Bft) 93,62 %
06.06.2017 02:28 14,9 C 23,9 C 95 % 1007,6 hPa 0,0 l/m 0,5 km/h (0 Bft) S 169 0 min 0,000 mm 0,0 UV-I 0 W/m 14,1 C 14,9 C 1,6 km/h (1 Bft) 95,74 %
06.06.2017 02:30 14,9 C 23,9 C 95 % 1007,6 hPa 0,0 l/m 0,4 km/h (0 Bft) S 169 0 min 0,000 mm 0,0 UV-I 0 W/m 14,1 C 14,9 C 1,6 km/h (1 Bft) 95,74 %
06.06.2017 02:32 14,8 C 23,9 C 96 % 1007,6 hPa 0,0 l/m 0,0 km/h (0 Bft) S 169 0 min 0,000 mm 0,0 UV-I 0 W/m 14,2 C 14,8 C 1,6 km/h (1 Bft) 97,87 %
06.06.2017 02:34 14,8 C 23,9 C 96 % 1007,5 hPa 0,0 l/m 0,0 km/h (0 Bft) S 169 0 min 0,000 mm 0,0 UV-I 0 W/m 14,2 C 14,8 C 0,0 km/h (0 Bft) 97,87 %
06.06.2017 02:36 14,8 C 23,9 C 96 % 1007,5 hPa 0,0 l/m 0,0 km/h (0 Bft) S 169 0 min 0,000 mm 0,0 UV-I 0 W/m 14,2 C 14,8 C 0,0 km/h (0 Bft) 97,92 %
06.06.2017 02:38 14,8 C 23,9 C 96 % 1007,5 hPa 0,0 l/m 0,0 km/h (0 Bft) S 169 0 min 0,000 mm 0,0 UV-I 0 W/m 14,2 C 14,8 C 0,0 km/h (0 Bft) 100,00 %
06.06.2017 02:40 14,8 C 23,9 C 96 % 1007,5 hPa 0,0 l/m 0,0 km/h (0 Bft) S 169 0 min 0,000 mm 0,0 UV-I 0 W/m 14,2 C 14,8 C 0,0 km/h (0 Bft) 93,62 %
06.06.2017 02:42 14,8 C 23,9 C 96 % 1007,5 hPa 0,0 l/m 0,2 km/h (0 Bft) S 169 0 min 0,000 mm 0,0 UV-I 0 W/m 14,2 C 14,8 C 1,6 km/h (1 Bft) 93,62 %
06.06.2017 02:44 14,7 C 23,9 C 96 % 1007,4 hPa 0,0 l/m 1,3 km/h (1 Bft) S 169 0 min 0,000 mm 0,0 UV-I 0 W/m 14,1 C 14,7 C 1,6 km/h (1 Bft) 93,62 %
06.06.2017 02:46 14,7 C 23,9 C 96 % 1007,4 hPa 0,0 l/m 0,6 km/h (0 Bft) S 169 0 min 0,000 mm 0,0 UV-I 0 W/m 14,1 C 14,7 C 1,6 km/h (1 Bft) 95,74 %
06.06.2017 02:48 14,7 C 23,9 C 96 % 1007,4 hPa 0,0 l/m 0,0 km/h (0 Bft) S 169 0 min 0,000 mm 0,0 UV-I 0 W/m 14,1 C 14,7 C 0,0 km/h (0 Bft) 97,87 %
06.06.2017 02:50 14,7 C 23,9 C 96 % 1007,5 hPa 0,0 l/m 2,6 km/h (1 Bft) S 169 0 min 0,000 mm 0,0 UV-I 0 W/m 14,1 C 14,7 C 3,2 km/h (1 Bft) 95,74 %
06.06.2017 02:52 14,7 C 23,9 C 96 % 1007,4 hPa 0,0 l/m 5,6 km/h (1 Bft) SO 132 0 min 0,000 mm 0,0 UV-I 0 W/m 14,1 C 14,7 C 8,0 km/h (2 Bft) 97,87 %
06.06.2017 02:54 14,6 C 23,9 C 96 % 1007,3 hPa 0,0 l/m 4,5 km/h (1 Bft) SO 132 0 min 0,000 mm 0,0 UV-I 0 W/m 14,0 C 14,6 C 6,4 km/h (2 Bft) 97,87 %
06.06.2017 02:56 14,5 C 23,9 C 96 % 1007,3 hPa 0,0 l/m 2,6 km/h (1 Bft) SO 132 0 min 0,000 mm 0,0 UV-I 0 W/m 13,9 C 14,5 C 4,8 km/h (1 Bft) 93,62 %
06.06.2017 02:58 14,5 C 23,9 C 96 % 1007,4 hPa 0,0 l/m 1,6 km/h (1 Bft) SO 132 0 min 0,000 mm 0,0 UV-I 0 W/m 13,9 C 14,5 C 3,2 km/h (1 Bft) 97,37 %
06.06.2017 03:00 14,5 C 23,9 C 96 % 1007,3 hPa 0,0 l/m 0,9 km/h (0 Bft) SO 132 0 min 0,000 mm 0,0 UV-I 0 W/m 13,9 C 14,5 C 1,6 km/h (1 Bft) 93,75 %
06.06.2017 03:02 14,5 C 23,9 C 96 % 1007,2 hPa 0,0 l/m 0,1 km/h (0 Bft) SO 132 0 min 0,000 mm 0,0 UV-I 0 W/m 13,9 C 14,5 C 1,6 km/h (1 Bft) 95,74 %
06.06.2017 03:04 14,5 C 23,9 C 96 % 1007,2 hPa 0,0 l/m 0,0 km/h (0 Bft) SO 132 0 min 0,000 mm 0,0 UV-I 0 W/m 13,9 C 14,5 C 0,0 km/h (0 Bft) 97,87 %
06.06.2017 03:06 14,6 C 23,9 C 96 % 1007,2 hPa 0,0 l/m 0,0 km/h (0 Bft) SO 132 0 min 0,000 mm 0,0 UV-I 0 W/m 14,0 C 14,6 C 0,0 km/h (0 Bft) 94,00 %
06.06.2017 03:08 14,6 C 23,9 C 96 % 1007,2 hPa 0,0 l/m 0,0 km/h (0 Bft) SO 132 0 min 0,000 mm 0,0 UV-I 0 W/m 14,0 C 14,6 C 0,0 km/h (0 Bft) 97,87 %
06.06.2017 03:10 14,6 C 23,9 C 96 % 1007,1 hPa 0,0 l/m 0,0 km/h (0 Bft) SO 132 0 min 0,000 mm 0,0 UV-I 0 W/m 14,0 C 14,6 C 0,0 km/h (0 Bft) 96,00 %
06.06.2017 03:12 14,5 C 23,9 C 96 % 1007,1 hPa 0,0 l/m 0,0 km/h (0 Bft) SO 132 0 min 0,000 mm 0,0 UV-I 0 W/m 13,9 C 14,5 C 0,0 km/h (0 Bft) 94,00 %
06.06.2017 03:14 14,4 C 23,9 C 96 % 1007,1 hPa 0,0 l/m 0,0 km/h (0 Bft) SO 132 0 min 0,000 mm 0,0 UV-I 0 W/m 13,8 C 14,4 C 0,0 km/h (0 Bft) 97,87 %
06.06.2017 03:16 14,4 C 23,9 C 96 % 1007,1 hPa 0,0 l/m 0,0 km/h (0 Bft) SO 132 0 min 0,000 mm 0,0 UV-I 0 W/m 13,8 C 14,4 C 0,0 km/h (0 Bft) 95,74 %
06.06.2017 03:18 14,3 C 23,9 C 96 % 1007,1 hPa 0,0 l/m 0,0 km/h (0 Bft) SO 132 0 min 0,000 mm 0,0 UV-I 0 W/m 13,7 C 14,3 C 0,0 km/h (0 Bft) 94,29 %
06.06.2017 03:20 14,3 C 23,9 C 96 % 1007,1 hPa 0,0 l/m 0,0 km/h (0 Bft) SO 132 0 min 0,000 mm 0,0 UV-I 0 W/m 13,7 C 14,3 C 0,0 km/h (0 Bft) 95,74 %
06.06.2017 03:22 14,2 C 23,9 C 96 % 1007,1 hPa 0,0 l/m 0,0 km/h (0 Bft) SO 132 0 min 0,000 mm 0,0 UV-I 0 W/m 13,6 C 14,2 C 0,0 km/h (0 Bft) 97,87 %
06.06.2017 03:24 14,2 C 23,9 C 96 % 1007,0 hPa 0,0 l/m 0,0 km/h (0 Bft) SO 132 0 min 0,000 mm 0,0 UV-I 0 W/m 13,6 C 14,2 C 0,0 km/h (0 Bft) 93,62 %
06.06.2017 03:26 14,2 C 23,9 C 96 % 1007,0 hPa 0,0 l/m 0,0 km/h (0 Bft) SO 132 0 min 0,000 mm 0,0 UV-I 0 W/m 13,6 C 14,2 C 1,6 km/h (1 Bft) 89,36 %
06.06.2017 03:28 14,2 C 23,9 C 96 % 1007,1 hPa 0,0 l/m 0,0 km/h (0 Bft) SO 132 0 min 0,000 mm 0,0 UV-I 0 W/m 13,6 C 14,2 C 0,0 km/h (0 Bft) 97,87 %
06.06.2017 03:30 14,2 C 23,9 C 96 % 1007,0 hPa 0,0 l/m 0,0 km/h (0 Bft) SO 132 0 min 0,000 mm 0,0 UV-I 0 W/m 13,6 C 14,2 C 0,0 km/h (0 Bft) 95,74 %
06.06.2017 03:32 14,1 C 23,9 C 96 % 1006,9 hPa 0,0 l/m 0,0 km/h (0 Bft) SO 132 0 min 0,000 mm 0,0 UV-I 0 W/m 13,5 C 14,1 C 0,0 km/h (0 Bft) 95,74 %
06.06.2017 03:34 14,1 C 23,9 C 96 % 1006,8 hPa 0,0 l/m 0,0 km/h (0 Bft) SO 132 0 min 0,000 mm 0,0 UV-I 0 W/m 13,5 C 14,1 C 0,0 km/h (0 Bft) 95,74 %
06.06.2017 03:36 14,0 C 23,9 C 96 % 1006,8 hPa 0,0 l/m 0,0 km/h (0 Bft) SO 132 0 min 0,000 mm 0,0 UV-I 0 W/m 13,4 C 14,0 C 0,0 km/h (0 Bft) 98,00 %
06.06.2017 03:38 14,0 C 23,9 C 96 % 1006,8 hPa 0,0 l/m 0,1 km/h (0 Bft) SO 132 0 min 0,000 mm 0,0 UV-I 0 W/m 13,4 C 14,0 C 1,6 km/h (1 Bft) 93,62 %
06.06.2017 03:40 13,9 C 23,9 C 96 % 1006,9 hPa 0,0 l/m 0,0 km/h (0 Bft) SO 132 0 min 0,000 mm 0,0 UV-I 0 W/m 13,3 C 13,9 C 0,0 km/h (0 Bft) 93,62 %
06.06.2017 03:42 13,9 C 23,9 C 96 % 1006,8 hPa 0,0 l/m 0,0 km/h (0 Bft) SO 132 0 min 0,000 mm 0,0 UV-I 0 W/m 13,3 C 13,9 C 0,0 km/h (0 Bft) 100,00 %
06.06.2017 03:44 14,0 C 23,9 C 96 % 1006,8 hPa 0,0 l/m 0,0 km/h (0 Bft) SO 132 0 min 0,000 mm 0,0 UV-I 0 W/m 13,4 C 14,0 C 0,0 km/h (0 Bft) 97,87 %
06.06.2017 03:46 14,0 C 23,9 C 96 % 1006,7 hPa 0,0 l/m 0,0 km/h (0 Bft) SO 132 0 min 0,000 mm 0,0 UV-I 0 W/m 13,4 C 14,0 C 0,0 km/h (0 Bft) 95,74 %
06.06.2017 03:48 13,9 C 23,9 C 96 % 1006,6 hPa 0,0 l/m 0,0 km/h (0 Bft) SO 132 0 min 0,000 mm 0,0 UV-I 0 W/m 13,3 C 13,9 C 0,0 km/h (0 Bft) 100,00 %
06.06.2017 03:50 13,8 C 23,9 C 96 % 1006,6 hPa 0,0 l/m 0,0 km/h (0 Bft) SO 132 0 min 0,000 mm 0,0 UV-I 0 W/m 13,2 C 13,8 C 0,0 km/h (0 Bft) 96,00 %
06.06.2017 03:52 13,8 C 23,9 C 96 % 1006,6 hPa 0,0 l/m 0,0 km/h (0 Bft) SO 132 0 min 0,000 mm 0,0 UV-I 0 W/m 13,2 C 13,8 C 0,0 km/h (0 Bft) 100,00 %
06.06.2017 03:54 13,7 C 23,9 C 96 % 1006,7 hPa 0,0 l/m 0,0 km/h (0 Bft) SO 132 0 min 0,000 mm 0,0 UV-I 0 W/m 13,1 C 13,7 C 0,0 km/h (0 Bft) 94,59 %
06.06.2017 03:56 13,8 C 23,9 C 97 % 1006,7 hPa 0,0 l/m 0,0 km/h (0 Bft) SO 132 0 min 0,000 mm 0,0 UV-I 0 W/m 13,3 C 13,8 C 0,0 km/h (0 Bft) 97,87 %
06.06.2017 03:58 13,8 C 23,9 C 97 % 1006,6 hPa 0,0 l/m 0,0 km/h (0 Bft) SO 132 0 min 0,000 mm 0,0 UV-I 0 W/m 13,3 C 13,8 C 0,0 km/h (0 Bft) 88,00 %
06.06.2017 04:00 13,8 C 23,9 C 97 % 1006,6 hPa 0,0 l/m 0,0 km/h (0 Bft) SO 132 0 min 0,000 mm 0,0 UV-I 0 W/m 13,3 C 13,8 C 0,0 km/h (0 Bft) 95,74 %
06.06.2017 04:02 13,7 C 23,9 C 96 % 1006,5 hPa 0,0 l/m 0,0 km/h (0 Bft) SO 132 0 min 0,000 mm 0,0 UV-I 0 W/m 13,1 C 13,7 C 0,0 km/h (0 Bft) 88,24 %
06.06.2017 04:04 13,6 C 23,3 C 96 % 1006,5 hPa 0,0 l/m 0,0 km/h (0 Bft) SO 132 0 min 0,000 mm 0,0 UV-I 0 W/m 13,0 C 13,6 C 0,0 km/h (0 Bft) 98,00 %
06.06.2017 04:06 13,6 C 23,3 C 96 % 1006,5 hPa 0,0 l/m 0,0 km/h (0 Bft) SO 132 0 min 0,000 mm 0,0 UV-I 0 W/m 13,0 C 13,6 C 0,0 km/h (0 Bft) 93,62 %
06.06.2017 04:08 13,7 C 23,3 C 97 % 1006,6 hPa 0,0 l/m 0,0 km/h (0 Bft) SO 132 0 min 0,000 mm 0,0 UV-I 0 W/m 13,2 C 13,7 C 0,0 km/h (0 Bft) 91,49 %
06.06.2017 04:10 13,7 C 23,3 C 97 % 1006,5 hPa 0,0 l/m 0,0 km/h (0 Bft) SO 132 0 min 0,000 mm 0,0 UV-I 0 W/m 13,2 C 13,7 C 0,0 km/h (0 Bft) 97,14 %
06.06.2017 04:12 13,7 C 23,3 C 97 % 1006,5 hPa 0,0 l/m 0,0 km/h (0 Bft) SO 132 0 min 0,000 mm 0,0 UV-I 0 W/m 13,2 C 13,7 C 0,0 km/h (0 Bft) 92,00 %
06.06.2017 04:14 13,7 C 23,3 C 97 % 1006,4 hPa 0,0 l/m 0,3 km/h (0 Bft) SO 132 0 min 0,000 mm 0,0 UV-I 0 W/m 13,2 C 13,7 C 1,6 km/h (1 Bft) 95,74 %
06.06.2017 04:16 13,7 C 23,3 C 97 % 1006,4 hPa 0,0 l/m 1,6 km/h (1 Bft) SO 132 0 min 0,000 mm 0,0 UV-I 0 W/m 13,2 C 13,7 C 3,2 km/h (1 Bft) 95,74 %
06.06.2017 04:18 13,6 C 23,3 C 96 % 1006,4 hPa 0,0 l/m 1,5 km/h (1 Bft) SO 132 0 min 0,000 mm 0,0 UV-I 0 W/m 13,0 C 13,6 C 3,2 km/h (1 Bft) 97,87 %
06.06.2017 04:20 13,6 C 23,3 C 97 % 1006,4 hPa 0,0 l/m 0,2 km/h (0 Bft) SO 132 0 min 0,000 mm 0,0 UV-I 0 W/m 13,1 C 13,6 C 1,6 km/h (1 Bft) 97,92 %
06.06.2017 04:22 13,5 C 23,3 C 97 % 1006,3 hPa 0,0 l/m 0,0 km/h (0 Bft) SO 132 0 min 0,000 mm 0,0 UV-I 0 W/m 13,0 C 13,5 C 0,0 km/h (0 Bft) 97,87 %
06.06.2017 04:24 13,5 C 23,3 C 97 % 1006,3 hPa 0,0 l/m 0,4 km/h (0 Bft) SO 132 0 min 0,000 mm 0,0 UV-I 0 W/m 13,0 C 13,5 C 1,6 km/h (1 Bft) 98,00 %
06.06.2017 04:26 13,4 C 23,3 C 96 % 1006,3 hPa 0,0 l/m 0,0 km/h (0 Bft) SO 132 0 min 0,000 mm 0,0 UV-I 0 W/m 12,8 C 13,4 C 0,0 km/h (0 Bft) 93,62 %
06.06.2017 04:28 13,3 C 23,3 C 96 % 1006,3 hPa 0,0 l/m 0,0 km/h (0 Bft) SO 132 0 min 0,000 mm 0,0 UV-I 0 W/m 12,7 C 13,3 C 0,0 km/h (0 Bft) 96,00 %
06.06.2017 04:30 13,3 C 23,3 C 96 % 1006,3 hPa 0,0 l/m 0,0 km/h (0 Bft) SO 132 0 min 0,000 mm 0,0 UV-I 0 W/m 12,7 C 13,3 C 0,0 km/h (0 Bft) 97,37 %
06.06.2017 04:32 13,3 C 23,3 C 97 % 1006,4 hPa 0,0 l/m 0,0 km/h (0 Bft) SO 132 0 min 0,000 mm 0,0 UV-I 0 W/m 12,8 C 13,3 C 0,0 km/h (0 Bft) 97,87 %
06.06.2017 04:34 13,3 C 23,3 C 97 % 1006,3 hPa 0,0 l/m 0,0 km/h (0 Bft) SO 132 0 min 0,000 mm 0,0 UV-I 0 W/m 12,8 C 13,3 C 0,0 km/h (0 Bft) 97,87 %
06.06.2017 04:36 13,4 C 23,3 C 97 % 1006,3 hPa 0,0 l/m 0,0 km/h (0 Bft) SO 132 0 min 0,000 mm 0,0 UV-I 0 W/m 12,9 C 13,4 C 0,0 km/h (0 Bft) 98,00 %
06.06.2017 04:38 13,5 C 23,3 C 97 % 1006,3 hPa 0,0 l/m 0,0 km/h (0 Bft) SO 132 0 min 0,000 mm 0,0 UV-I 0 W/m 13,0 C 13,5 C 0,0 km/h (0 Bft) 98,00 %
06.06.2017 04:40 13,6 C 23,3 C 97 % 1006,3 hPa 0,0 l/m 0,0 km/h (0 Bft) SO 132 0 min 0,000 mm 0,0 UV-I 0 W/m 13,1 C 13,6 C 0,0 km/h (0 Bft) 100,00 %
06.06.2017 04:42 13,7 C 23,3 C 97 % 1006,2 hPa 0,0 l/m 0,0 km/h (0 Bft) SO 132 0 min 0,000 mm 0,0 UV-I 0 W/m 13,2 C 13,7 C 0,0 km/h (0 Bft) 97,37 %
06.06.2017 04:44 13,7 C 23,3 C 97 % 1006,2 hPa 0,0 l/m 0,0 km/h (0 Bft) SO 132 0 min 0,000 mm 0,0 UV-I 0 W/m 13,2 C 13,7 C 0,0 km/h (0 Bft) 97,87 %
06.06.2017 04:46 13,8 C 23,3 C 97 % 1006,1 hPa 0,0 l/m 0,0 km/h (0 Bft) SO 132 0 min 0,000 mm 0,0 UV-I 0 W/m 13,3 C 13,8 C 0,0 km/h (0 Bft) 100,00 %
06.06.2017 04:48 13,8 C 23,3 C 97 % 1006,2 hPa 0,0 l/m 0,0 km/h (0 Bft) SO 132 0 min 0,000 mm 0,0 UV-I 0 W/m 13,3 C 13,8 C 0,0 km/h (0 Bft) 97,87 %
06.06.2017 04:50 13,8 C 23,3 C 97 % 1006,2 hPa 0,0 l/m 0,0 km/h (0 Bft) SO 132 0 min 0,000 mm 0,0 UV-I 0 W/m 13,3 C 13,8 C 0,0 km/h (0 Bft) 100,00 %
06.06.2017 04:52 13,8 C 23,3 C 97 % 1006,2 hPa 0,0 l/m 0,0 km/h (0 Bft) SO 132 0 min 0,000 mm 0,0 UV-I 0 W/m 13,3 C 13,8 C 0,0 km/h (0 Bft) 95,74 %
06.06.2017 04:54 13,8 C 23,3 C 97 % 1006,2 hPa 0,0 l/m 0,0 km/h (0 Bft) SO 132 0 min 0,000 mm 0,0 UV-I 0 W/m 13,3 C 13,8 C 0,0 km/h (0 Bft) 100,00 %
06.06.2017 04:56 13,9 C 23,3 C 97 % 1006,2 hPa 0,0 l/m 0,0 km/h (0 Bft) SO 132 0 min 0,000 mm 0,0 UV-I 0 W/m 13,4 C 13,9 C 0,0 km/h (0 Bft) 97,87 %
06.06.2017 04:58 14,1 C 23,3 C 97 % 1006,1 hPa 0,0 l/m 0,0 km/h (0 Bft) SO 132 0 min 0,000 mm 0,0 UV-I 0 W/m 13,6 C 14,1 C 0,0 km/h (0 Bft) 97,87 %
06.06.2017 05:00 14,2 C 23,3 C 97 % 1006,1 hPa 0,0 l/m 0,0 km/h (0 Bft) SO 132 0 min 0,000 mm 0,0 UV-I 0 W/m 13,7 C 14,2 C 0,0 km/h (0 Bft) 96,00 %
06.06.2017 05:02 14,2 C 23,3 C 97 % 1006,1 hPa 0,0 l/m 0,0 km/h (0 Bft) SO 132 0 min 0,000 mm 0,0 UV-I 4 W/m 13,7 C 14,2 C 0,0 km/h (0 Bft) 97,87 %
06.06.2017 05:04 14,2 C 23,3 C 97 % 1006,0 hPa 0,0 l/m 0,0 km/h (0 Bft) SO 132 0 min 0,000 mm 0,0 UV-I 5 W/m 13,7 C 14,2 C 1,6 km/h (1 Bft) 100,00 %
06.06.2017 05:06 14,2 C 23,3 C 97 % 1006,0 hPa 0,0 l/m 1,6 km/h (1 Bft) SO 132 0 min 0,000 mm 0,0 UV-I 5 W/m 13,7 C 14,2 C 3,2 km/h (1 Bft) 98,00 %
06.06.2017 05:08 14,3 C 23,3 C 97 % 1006,1 hPa 0,0 l/m 0,6 km/h (0 Bft) SO 132 0 min 0,000 mm 0,0 UV-I 5 W/m 13,8 C 14,3 C 3,2 km/h (1 Bft) 100,00 %
06.06.2017 05:10 14,3 C 23,3 C 97 % 1006,1 hPa 0,0 l/m 0,6 km/h (0 Bft) O-SO 121 0 min 0,000 mm 0,0 UV-I 5 W/m 13,8 C 14,3 C 4,8 km/h (1 Bft) 100,00 %
06.06.2017 05:12 14,3 C 23,3 C 97 % 1006,0 hPa 0,0 l/m 3,4 km/h (1 Bft) O-SO 112 0 min 0,000 mm 0,0 UV-I 7 W/m 13,8 C 14,3 C 4,8 km/h (1 Bft) 100,00 %
06.06.2017 05:14 14,3 C 23,3 C 97 % 1006,0 hPa 0,0 l/m 2,6 km/h (1 Bft) O-SO 112 0 min 0,000 mm 0,0 UV-I 8 W/m 13,8 C 14,3 C 4,8 km/h (1 Bft) 100,00 %
06.06.2017 05:16 14,3 C 23,3 C 97 % 1006,0 hPa 0,0 l/m 0,2 km/h (0 Bft) O-SO 112 0 min 0,000 mm 0,0 UV-I 9 W/m 13,8 C 14,3 C 1,6 km/h (1 Bft) 97,87 %
06.06.2017 05:18 14,3 C 23,3 C 97 % 1005,9 hPa 0,0 l/m 0,2 km/h (0 Bft) O-SO 112 2 min 0,000 mm 0,0 UV-I 10 W/m 13,8 C 14,3 C 1,6 km/h (1 Bft) 97,87 %
06.06.2017 05:20 14,3 C 23,3 C 97 % 1005,9 hPa 0,0 l/m 0,8 km/h (0 Bft) O-SO 112 0 min 0,000 mm 0,0 UV-I 11 W/m 13,8 C 14,3 C 1,6 km/h (1 Bft) 97,87 %
06.06.2017 05:22 14,3 C 23,3 C 97 % 1005,9 hPa 0,0 l/m 1,1 km/h (1 Bft) O-SO 112 0 min 0,000 mm 0,0 UV-I 11 W/m 13,8 C 14,3 C 3,2 km/h (1 Bft) 97,87 %
06.06.2017 05:24 14,4 C 23,3 C 97 % 1005,9 hPa 0,0 l/m 3,4 km/h (1 Bft) O-SO 109 0 min 0,000 mm 0,0 UV-I 12 W/m 13,9 C 14,4 C 4,8 km/h (1 Bft) 97,14 %
06.06.2017 05:26 14,4 C 23,3 C 97 % 1005,9 hPa 0,0 l/m 2,7 km/h (1 Bft) O-SO 109 0 min 0,000 mm 0,0 UV-I 12 W/m 13,9 C 14,4 C 4,8 km/h (1 Bft) 100,00 %
06.06.2017 05:28 14,4 C 23,3 C 97 % 1005,9 hPa 0,0 l/m 0,6 km/h (0 Bft) O-SO 109 0 min 0,000 mm 0,0 UV-I 12 W/m 13,9 C 14,4 C 3,2 km/h (1 Bft) 97,87 %
06.06.2017 05:30 14,4 C 23,3 C 97 % 1005,9 hPa 0,0 l/m 0,2 km/h (0 Bft) O-SO 109 0 min 0,000 mm 0,0 UV-I 13 W/m 13,9 C 14,4 C 1,6 km/h (1 Bft) 97,87 %
06.06.2017 05:32 14,4 C 23,3 C 97 % 1005,9 hPa 0,0 l/m 0,6 km/h (0 Bft) O-SO 109 0 min 0,000 mm 0,0 UV-I 15 W/m 13,9 C 14,4 C 3,2 km/h (1 Bft) 97,87 %
06.06.2017 05:34 14,4 C 23,3 C 97 % 1005,9 hPa 0,0 l/m 1,1 km/h (1 Bft) O-SO 109 0 min 0,000 mm 0,0 UV-I 16 W/m 13,9 C 14,4 C 3,2 km/h (1 Bft) 97,87 %
06.06.2017 05:36 14,4 C 23,3 C 97 % 1005,9 hPa 0,0 l/m 3,1 km/h (1 Bft) O-SO 109 0 min 0,000 mm 0,0 UV-I 16 W/m 13,9 C 14,4 C 4,8 km/h (1 Bft) 95,83 %
06.06.2017 05:38 14,4 C 23,3 C 97 % 1005,9 hPa 0,0 l/m 3,2 km/h (1 Bft) O 91 0 min 0,000 mm 0,0 UV-I 16 W/m 13,9 C 14,4 C 4,8 km/h (1 Bft) 97,87 %
06.06.2017 05:40 14,4 C 23,3 C 97 % 1005,9 hPa 0,0 l/m 1,1 km/h (1 Bft) O 91 0 min 0,000 mm 0,0 UV-I 16 W/m 13,9 C 14,4 C 3,2 km/h (1 Bft) 97,37 %
06.06.2017 05:42 14,4 C 23,3 C 97 % 1005,9 hPa 0,0 l/m 0,7 km/h (0 Bft) O 91 0 min 0,000 mm 0,0 UV-I 16 W/m 13,9 C 14,4 C 3,2 km/h (1 Bft) 100,00 %
06.06.2017 05:44 14,5 C 23,3 C 97 % 1005,9 hPa 0,0 l/m 1,0 km/h (0 Bft) O 91 0 min 0,000 mm 0,0 UV-I 15 W/m 14,0 C 14,5 C 3,2 km/h (1 Bft) 95,74 %
06.06.2017 05:46 14,5 C 23,3 C 97 % 1005,9 hPa 0,0 l/m 3,3 km/h (1 Bft) O 91 0 min 0,000 mm 0,0 UV-I 14 W/m 14,0 C 14,5 C 4,8 km/h (1 Bft) 100,00 %
06.06.2017 05:48 14,4 C 23,3 C 97 % 1005,9 hPa 0,0 l/m 2,0 km/h (1 Bft) O 91 0 min 0,000 mm 0,0 UV-I 14 W/m 13,9 C 14,4 C 4,8 km/h (1 Bft) 97,87 %
06.06.2017 05:50 14,4 C 23,3 C 97 % 1005,9 hPa 0,0 l/m 0,9 km/h (0 Bft) O 91 0 min 0,000 mm 0,0 UV-I 14 W/m 13,9 C 14,4 C 3,2 km/h (1 Bft) 97,56 %
06.06.2017 05:52 14,4 C 23,3 C 97 % 1005,9 hPa 0,0 l/m 2,4 km/h (1 Bft) O 91 0 min 0,000 mm 0,0 UV-I 14 W/m 13,9 C 14,4 C 4,8 km/h (1 Bft) 97,87 %
06.06.2017 05:54 14,4 C 23,3 C 97 % 1005,8 hPa 0,0 l/m 3,0 km/h (1 Bft) O 91 0 min 0,000 mm 0,0 UV-I 18 W/m 13,9 C 14,4 C 6,4 km/h (2 Bft) 97,87 %
06.06.2017 05:56 14,3 C 23,3 C 97 % 1005,9 hPa 0,0 l/m 0,5 km/h (0 Bft) O 91 0 min 0,000 mm 0,0 UV-I 19 W/m 13,8 C 14,3 C 1,6 km/h (1 Bft) 97,87 %
06.06.2017 05:58 14,4 C 23,3 C 97 % 1005,9 hPa 0,0 l/m 1,1 km/h (1 Bft) O 91 0 min 0,000 mm 0,0 UV-I 21 W/m 13,9 C 14,4 C 3,2 km/h (1 Bft) 95,74 %
06.06.2017 06:00 14,4 C 23,3 C 97 % 1005,9 hPa 0,0 l/m 2,1 km/h (1 Bft) O 91 0 min 0,000 mm 0,0 UV-I 24 W/m 13,9 C 14,4 C 4,8 km/h (1 Bft) 97,87 %
06.06.2017 06:02 14,4 C 23,3 C 97 % 1005,8 hPa 0,0 l/m 2,8 km/h (1 Bft) O 91 0 min 0,000 mm 0,0 UV-I 25 W/m 13,9 C 14,4 C 4,8 km/h (1 Bft) 93,62 %
06.06.2017 06:04 14,4 C 23,3 C 97 % 1005,7 hPa 0,0 l/m 4,5 km/h (1 Bft) O 91 0 min 0,000 mm 0,0 UV-I 28 W/m 13,9 C 14,4 C 6,4 km/h (2 Bft) 97,87 %
06.06.2017 06:06 14,3 C 23,3 C 97 % 1005,7 hPa 0,0 l/m 3,5 km/h (1 Bft) O 91 0 min 0,000 mm 0,0 UV-I 32 W/m 13,8 C 14,3 C 4,8 km/h (1 Bft) 95,74 %
06.06.2017 06:08 14,3 C 23,3 C 97 % 1005,7 hPa 0,0 l/m 3,7 km/h (1 Bft) O-NO 78 0 min 0,000 mm 0,0 UV-I 36 W/m 13,8 C 14,3 C 6,4 km/h (2 Bft) 95,74 %
06.06.2017 06:10 14,3 C 23,3 C 97 % 1005,7 hPa 0,0 l/m 2,2 km/h (1 Bft) O-NO 78 0 min 0,000 mm 0,0 UV-I 31 W/m 13,8 C 14,3 C 4,8 km/h (1 Bft) 93,62 %
06.06.2017 06:12 14,3 C 23,3 C 97 % 1005,7 hPa 0,0 l/m 3,9 km/h (1 Bft) O-NO 78 0 min 0,000 mm 0,0 UV-I 28 W/m 13,8 C 14,3 C 4,8 km/h (1 Bft) 91,49 %
06.06.2017 06:14 14,3 C 23,3 C 97 % 1005,6 hPa 0,0 l/m 3,6 km/h (1 Bft) NO 50 0 min 0,000 mm 0,0 UV-I 30 W/m 13,8 C 14,3 C 8,0 km/h (2 Bft) 91,49 %
06.06.2017 06:16 14,3 C 23,3 C 97 % 1005,6 hPa 0,0 l/m 5,6 km/h (1 Bft) N-NO 30 0 min 0,000 mm 0,0 UV-I 35 W/m 13,8 C 14,3 C 8,0 km/h (2 Bft) 96,00 %
06.06.2017 06:18 14,3 C 23,3 C 98 % 1005,6 hPa 0,0 l/m 4,4 km/h (1 Bft) N-NO 30 0 min 0,000 mm 0,0 UV-I 39 W/m 14,0 C 14,3 C 6,4 km/h (2 Bft) 95,24 %
06.06.2017 06:20 14,3 C 23,3 C 97 % 1005,6 hPa 0,0 l/m 3,9 km/h (1 Bft) N-NO 29 0 min 0,000 mm 0,0 UV-I 36 W/m 13,8 C 14,3 C 6,4 km/h (2 Bft) 93,62 %
06.06.2017 06:22 14,3 C 23,3 C 98 % 1005,6 hPa 0,0 l/m 1,4 km/h (1 Bft) N-NO 29 0 min 0,000 mm 0,0 UV-I 34 W/m 14,0 C 14,3 C 3,2 km/h (1 Bft) 89,36 %
06.06.2017 06:24 14,4 C 23,3 C 98 % 1005,5 hPa 0,0 l/m 3,2 km/h (1 Bft) NO 34 0 min 0,000 mm 0,0 UV-I 33 W/m 14,1 C 14,4 C 4,8 km/h (1 Bft) 94,00 %
06.06.2017 06:26 14,3 C 23,3 C 98 % 1005,5 hPa 0,0 l/m 3,1 km/h (1 Bft) NO 44 0 min 0,000 mm 0,0 UV-I 34 W/m 14,0 C 14,3 C 4,8 km/h (1 Bft) 91,49 %
06.06.2017 06:28 14,4 C 23,3 C 98 % 1005,5 hPa 0,0 l/m 3,7 km/h (1 Bft) NO 51 0 min 0,000 mm 0,0 UV-I 47 W/m 14,1 C 14,4 C 8,0 km/h (2 Bft) 95,74 %
06.06.2017 06:30 14,4 C 23,3 C 98 % 1005,5 hPa 0,0 l/m 5,4 km/h (1 Bft) NO 52 0 min 0,000 mm 0,0 UV-I 48 W/m 14,1 C 14,4 C 8,0 km/h (2 Bft) 95,74 %
06.06.2017 06:32 14,3 C 23,3 C 98 % 1005,5 hPa 0,0 l/m 3,7 km/h (1 Bft) NO 52 0 min 0,000 mm 0,0 UV-I 60 W/m 14,0 C 14,3 C 4,8 km/h (1 Bft) 93,62 %
06.06.2017 06:34 14,4 C 23,3 C 98 % 1005,5 hPa 0,0 l/m 5,1 km/h (1 Bft) NO 52 0 min 0,000 mm 0,0 UV-I 57 W/m 14,1 C 14,4 C 8,0 km/h (2 Bft) 91,49 %
06.06.2017 06:36 14,4 C 23,3 C 98 % 1005,5 hPa 0,0 l/m 4,7 km/h (1 Bft) NO 51 0 min 0,000 mm 0,0 UV-I 53 W/m 14,1 C 14,4 C 8,0 km/h (2 Bft) 94,74 %
06.06.2017 06:38 14,4 C 23,3 C 98 % 1005,4 hPa 0,0 l/m 5,2 km/h (1 Bft) NO 34 0 min 0,000 mm 0,0 UV-I 64 W/m 14,1 C 14,4 C 8,0 km/h (2 Bft) 97,87 %
06.06.2017 06:40 14,4 C 23,3 C 98 % 1005,4 hPa 0,0 l/m 2,8 km/h (1 Bft) N-NO 28 0 min 0,000 mm 0,0 UV-I 67 W/m 14,1 C 14,4 C 6,4 km/h (2 Bft) 93,62 %
06.06.2017 06:42 14,4 C 23,3 C 98 % 1005,4 hPa 0,0 l/m 0,8 km/h (0 Bft) N-NO 27 0 min 0,000 mm 0,0 UV-I 61 W/m 14,1 C 14,4 C 6,4 km/h (2 Bft) 98,00 %
06.06.2017 06:44 14,4 C 23,3 C 98 % 1005,3 hPa 0,0 l/m 3,7 km/h (1 Bft) O-NO 73 0 min 0,000 mm 0,0 UV-I 66 W/m 14,1 C 14,4 C 6,4 km/h (2 Bft) 91,49 %
06.06.2017 06:46 14,5 C 23,3 C 98 % 1005,2 hPa 0,0 l/m 4,4 km/h (1 Bft) O-NO 76 0 min 0,000 mm 0,0 UV-I 72 W/m 14,2 C 14,5 C 6,4 km/h (2 Bft) 97,87 %
06.06.2017 06:48 14,5 C 23,3 C 98 % 1005,3 hPa 0,0 l/m 1,8 km/h (1 Bft) O-NO 76 0 min 0,000 mm 0,0 UV-I 80 W/m 14,2 C 14,5 C 3,2 km/h (1 Bft) 93,62 %
06.06.2017 06:50 14,5 C 23,3 C 98 % 1005,3 hPa 0,0 l/m 2,3 km/h (1 Bft) O-NO 74 0 min 0,000 mm 0,0 UV-I 78 W/m 14,2 C 14,5 C 6,4 km/h (2 Bft) 97,87 %
06.06.2017 06:52 14,5 C 23,3 C 98 % 1005,3 hPa 0,0 l/m 0,2 km/h (0 Bft) O-NO 74 0 min 0,000 mm 0,0 UV-I 67 W/m 14,2 C 14,5 C 1,6 km/h (1 Bft) 95,74 %
06.06.2017 06:54 14,4 C 23,3 C 98 % 1005,3 hPa 0,0 l/m 0,0 km/h (0 Bft) O-NO 74 0 min 0,000 mm 0,0 UV-I 69 W/m 14,1 C 14,4 C 0,0 km/h (0 Bft) 95,74 %
06.06.2017 06:56 14,5 C 23,3 C 98 % 1005,2 hPa 0,0 l/m 0,6 km/h (0 Bft) O-NO 74 0 min 0,000 mm 0,0 UV-I 67 W/m 14,2 C 14,5 C 1,6 km/h (1 Bft) 95,74 %
06.06.2017 06:58 14,5 C 23,3 C 98 % 1005,3 hPa 0,0 l/m 0,0 km/h (0 Bft) O-NO 74 0 min 0,000 mm 0,0 UV-I 57 W/m 14,2 C 14,5 C 0,0 km/h (0 Bft) 95,83 %
06.06.2017 07:00 14,6 C 23,3 C 98 % 1005,3 hPa 0,0 l/m 0,1 km/h (0 Bft) O-NO 74 0 min 0,025 mm 0,0 UV-I 68 W/m 14,3 C 14,6 C 1,6 km/h (1 Bft) 97,87 %
06.06.2017 07:02 14,6 C 23,3 C 98 % 1005,3 hPa 0,0 l/m 2,9 km/h (1 Bft) O-NO 74 0 min 0,000 mm 0,0 UV-I 57 W/m 14,3 C 14,6 C 4,8 km/h (1 Bft) 93,62 %
06.06.2017 07:04 14,5 C 23,3 C 98 % 1005,2 hPa 0,0 l/m 4,5 km/h (1 Bft) O 94 0 min 0,000 mm 0,0 UV-I 63 W/m 14,2 C 14,5 C 6,4 km/h (2 Bft) 95,74 %
06.06.2017 07:06 14,6 C 23,3 C 98 % 1005,2 hPa 0,0 l/m 4,6 km/h (1 Bft) O 94 0 min 0,000 mm 0,0 UV-I 79 W/m 14,3 C 14,6 C 6,4 km/h (2 Bft) 97,87 %
06.06.2017 07:08 14,6 C 23,3 C 98 % 1005,2 hPa 0,0 l/m 3,9 km/h (1 Bft) O 94 0 min 0,000 mm 0,0 UV-I 85 W/m 14,3 C 14,6 C 6,4 km/h (2 Bft) 95,74 %
06.06.2017 07:10 14,6 C 23,3 C 98 % 1005,2 hPa 0,0 l/m 2,2 km/h (1 Bft) O 94 0 min 0,000 mm 0,0 UV-I 72 W/m 14,3 C 14,6 C 4,8 km/h (1 Bft) 93,62 %
06.06.2017 07:12 14,4 C 23,3 C 98 % 1005,2 hPa 0,0 l/m 0,9 km/h (0 Bft) O 94 0 min 0,000 mm 0,0 UV-I 64 W/m 14,1 C 14,4 C 3,2 km/h (1 Bft) 95,12 %
06.06.2017 07:14 14,6 C 23,3 C 98 % 1005,2 hPa 0,0 l/m 2,7 km/h (1 Bft) O 93 0 min 0,000 mm 0,0 UV-I 63 W/m 14,3 C 14,6 C 4,8 km/h (1 Bft) 95,74 %
06.06.2017 07:16 14,7 C 23,3 C 98 % 1005,2 hPa 0,0 l/m 3,4 km/h (1 Bft) N-NO 33 0 min 0,000 mm 0,0 UV-I 97 W/m 14,4 C 14,7 C 6,4 km/h (2 Bft) 97,87 %
06.06.2017 07:18 14,7 C 23,3 C 98 % 1005,3 hPa 0,0 l/m 3,7 km/h (1 Bft) N-NO 33 0 min 0,000 mm 0,0 UV-I 89 W/m 14,4 C 14,7 C 4,8 km/h (1 Bft) 97,87 %
06.06.2017 07:20 14,7 C 23,3 C 98 % 1005,3 hPa 0,0 l/m 5,7 km/h (1 Bft) NO 37 0 min 0,000 mm 0,0 UV-I 82 W/m 14,4 C 14,7 C 8,0 km/h (2 Bft) 93,62 %
06.06.2017 07:22 14,6 C 23,3 C 98 % 1005,3 hPa 0,0 l/m 4,7 km/h (1 Bft) NO 37 0 min 0,000 mm 0,0 UV-I 96 W/m 14,3 C 14,6 C 9,7 km/h (2 Bft) 96,00 %
06.06.2017 07:24 14,6 C 23,3 C 98 % 1005,2 hPa 0,0 l/m 1,3 km/h (1 Bft) NO 36 0 min 0,000 mm 0,0 UV-I 102 W/m 14,3 C 14,6 C 3,2 km/h (1 Bft) 97,87 %
06.06.2017 07:26 14,6 C 23,3 C 98 % 1005,2 hPa 0,0 l/m 4,9 km/h (1 Bft) N-NO 25 0 min 0,000 mm 0,0 UV-I 108 W/m 14,3 C 14,6 C 8,0 km/h (2 Bft) 93,62 %
06.06.2017 07:28 14,6 C 23,3 C 98 % 1005,2 hPa 0,0 l/m 4,9 km/h (1 Bft) NO 42 0 min 0,000 mm 0,0 UV-I 111 W/m 14,3 C 14,6 C 9,7 km/h (2 Bft) 100,00 %
06.06.2017 07:30 14,7 C 23,3 C 98 % 1005,2 hPa 0,0 l/m 4,5 km/h (1 Bft) NO 35 0 min 0,000 mm 0,0 UV-I 108 W/m 14,4 C 14,7 C 8,0 km/h (2 Bft) 96,00 %
06.06.2017 07:32 14,7 C 23,3 C 98 % 1005,2 hPa 0,0 l/m 3,0 km/h (1 Bft) NO 35 0 min 0,000 mm 0,0 UV-I 113 W/m 14,4 C 14,7 C 6,4 km/h (2 Bft) 95,74 %
06.06.2017 07:34 14,8 C 23,3 C 98 % 1005,2 hPa 0,0 l/m 2,8 km/h (1 Bft) NO 35 0 min 0,000 mm 0,0 UV-I 107 W/m 14,5 C 14,8 C 4,8 km/h (1 Bft) 100,00 %
06.06.2017 07:36 14,8 C 23,3 C 98 % 1005,2 hPa 0,0 l/m 1,8 km/h (1 Bft) N-NO 26 0 min 0,000 mm 0,0 UV-I 98 W/m 14,5 C 14,8 C 4,8 km/h (1 Bft) 97,87 %
06.06.2017 07:38 14,9 C 23,3 C 98 % 1005,2 hPa 0,0 l/m 2,6 km/h (1 Bft) NO 34 0 min 0,000 mm 0,0 UV-I 102 W/m 14,6 C 14,9 C 6,4 km/h (2 Bft) 97,87 %
06.06.2017 07:40 14,9 C 23,3 C 98 % 1005,2 hPa 0,0 l/m 3,7 km/h (1 Bft) NO 46 0 min 0,000 mm 0,0 UV-I 115 W/m 14,6 C 14,9 C 6,4 km/h (2 Bft) 97,87 %
06.06.2017 07:42 14,9 C 23,3 C 98 % 1005,2 hPa 0,0 l/m 2,3 km/h (1 Bft) NO 34 0 min 0,000 mm 0,0 UV-I 113 W/m 14,6 C 14,9 C 6,4 km/h (2 Bft) 91,67 %
06.06.2017 07:44 14,8 C 23,3 C 98 % 1005,2 hPa 0,0 l/m 1,2 km/h (1 Bft) NO 34 0 min 0,000 mm 0,0 UV-I 115 W/m 14,5 C 14,8 C 3,2 km/h (1 Bft) 100,00 %
06.06.2017 07:46 14,8 C 23,3 C 98 % 1005,1 hPa 0,0 l/m 0,9 km/h (0 Bft) NO 34 0 min 0,000 mm 0,0 UV-I 115 W/m 14,5 C 14,8 C 3,2 km/h (1 Bft) 91,49 %
06.06.2017 07:48 14,9 C 23,3 C 97 % 1005,1 hPa 0,0 l/m 0,1 km/h (0 Bft) NO 34 0 min 0,000 mm 0,0 UV-I 116 W/m 14,4 C 14,9 C 1,6 km/h (1 Bft) 97,87 %
06.06.2017 07:50 14,9 C 23,3 C 98 % 1005,1 hPa 0,0 l/m 3,2 km/h (1 Bft) N-NO 28 0 min 0,000 mm 0,0 UV-I 140 W/m 14,6 C 14,9 C 6,4 km/h (2 Bft) 100,00 %
06.06.2017 07:52 15,1 C 23,3 C 98 % 1005,1 hPa 0,0 l/m 3,5 km/h (1 Bft) NO 40 0 min 0,000 mm 0,0 UV-I 135 W/m 14,8 C 15,1 C 8,0 km/h (2 Bft) 93,62 %
06.06.2017 07:54 15,2 C 23,3 C 98 % 1005,1 hPa 0,0 l/m 4,5 km/h (1 Bft) N-NO 20 0 min 0,000 mm 0,0 UV-I 121 W/m 14,9 C 15,2 C 8,0 km/h (2 Bft) 95,74 %
06.06.2017 07:56 15,2 C 23,3 C 98 % 1005,0 hPa 0,0 l/m 4,3 km/h (1 Bft) N-NO 21 0 min 0,000 mm 0,0 UV-I 121 W/m 14,9 C 15,2 C 6,4 km/h (2 Bft) 100,00 %
06.06.2017 07:58 15,2 C 23,3 C 97 % 1005,1 hPa 0,0 l/m 4,8 km/h (1 Bft) NO 36 0 min 0,000 mm 0,0 UV-I 114 W/m 14,7 C 15,2 C 8,0 km/h (2 Bft) 93,62 %
06.06.2017 08:00 15,2 C 23,3 C 97 % 1005,0 hPa 0,0 l/m 1,2 km/h (1 Bft) NO 36 0 min 0,051 mm 0,0 UV-I 112 W/m 14,7 C 15,2 C 3,2 km/h (1 Bft) 93,88 %
06.06.2017 08:02 15,3 C 23,3 C 97 % 1005,0 hPa 0,0 l/m 4,1 km/h (1 Bft) NO 40 0 min 0,000 mm 0,0 UV-I 139 W/m 14,8 C 15,3 C 9,7 km/h (2 Bft) 93,62 %
06.06.2017 08:04 15,3 C 23,3 C 97 % 1005,0 hPa 0,0 l/m 4,5 km/h (1 Bft) NO 38 0 min 0,000 mm 0,0 UV-I 136 W/m 14,8 C 15,3 C 8,0 km/h (2 Bft) 95,74 %
06.06.2017 08:06 15,2 C 23,3 C 97 % 1005,0 hPa 0,0 l/m 2,8 km/h (1 Bft) NO 38 0 min 0,000 mm 0,0 UV-I 107 W/m 14,7 C 15,2 C 4,8 km/h (1 Bft) 95,74 %
06.06.2017 08:08 15,2 C 23,3 C 97 % 1005,0 hPa 0,0 l/m 2,5 km/h (1 Bft) NO 36 0 min 0,000 mm 0,0 UV-I 82 W/m 14,7 C 15,2 C 4,8 km/h (1 Bft) 93,62 %
06.06.2017 08:10 15,3 C 23,3 C 97 % 1005,0 hPa 0,0 l/m 1,1 km/h (1 Bft) NO 35 0 min 0,000 mm 0,2 UV-I 96 W/m 14,8 C 15,3 C 4,8 km/h (1 Bft) 95,74 %
06.06.2017 08:12 15,3 C 23,3 C 97 % 1005,0 hPa 0,0 l/m 0,2 km/h (0 Bft) N-NO 33 0 min 0,000 mm 0,5 UV-I 125 W/m 14,8 C 15,3 C 1,6 km/h (1 Bft) 95,74 %
06.06.2017 08:14 15,3 C 23,3 C 97 % 1004,9 hPa 0,0 l/m 0,1 km/h (0 Bft) N-NO 32 0 min 0,000 mm 0,5 UV-I 127 W/m 14,8 C 15,3 C 1,6 km/h (1 Bft) 93,75 %
06.06.2017 08:16 15,3 C 23,3 C 97 % 1004,8 hPa 0,0 l/m 0,4 km/h (0 Bft) N-NO 30 0 min 0,000 mm 0,6 UV-I 141 W/m 14,8 C 15,3 C 3,2 km/h (1 Bft) 97,87 %
06.06.2017 08:18 15,4 C 23,3 C 97 % 1004,9 hPa 0,0 l/m 2,3 km/h (1 Bft) N-NO 30 0 min 0,000 mm 0,6 UV-I 149 W/m 14,9 C 15,4 C 4,8 km/h (1 Bft) 95,74 %
06.06.2017 08:20 15,4 C 23,3 C 97 % 1004,8 hPa 0,0 l/m 3,5 km/h (1 Bft) N-NO 19 0 min 0,000 mm 0,5 UV-I 155 W/m 14,9 C 15,4 C 6,4 km/h (2 Bft) 92,45 %
06.06.2017 08:22 15,6 C 23,3 C 97 % 1004,8 hPa 0,0 l/m 2,8 km/h (1 Bft) N 11 0 min 0,000 mm 0,5 UV-I 141 W/m 15,1 C 15,6 C 8,0 km/h (2 Bft) 97,87 %
06.06.2017 08:24 15,6 C 23,3 C 97 % 1004,8 hPa 0,0 l/m 0,2 km/h (0 Bft) N 5 0 min 0,000 mm 0,5 UV-I 172 W/m 15,1 C 15,6 C 4,8 km/h (1 Bft) 97,87 %
06.06.2017 08:26 15,6 C 23,3 C 97 % 1004,9 hPa 0,0 l/m 4,3 km/h (1 Bft) N-NO 28 0 min 0,000 mm 0,5 UV-I 175 W/m 15,1 C 15,6 C 8,0 km/h (2 Bft) 97,87 %
06.06.2017 08:28 15,6 C 23,3 C 97 % 1005,0 hPa 0,0 l/m 1,9 km/h (1 Bft) N-NO 28 0 min 0,000 mm 0,5 UV-I 151 W/m 15,1 C 15,6 C 6,4 km/h (2 Bft) 97,37 %
06.06.2017 08:30 15,7 C 23,3 C 97 % 1005,0 hPa 0,0 l/m 3,1 km/h (1 Bft) NO 48 0 min 0,000 mm 0,6 UV-I 164 W/m 15,2 C 15,7 C 8,0 km/h (2 Bft) 92,00 %
06.06.2017 08:32 15,6 C 23,3 C 96 % 1005,0 hPa 0,0 l/m 5,8 km/h (2 Bft) O-NO 66 0 min 0,000 mm 0,7 UV-I 203 W/m 15,0 C 15,6 C 8,0 km/h (2 Bft) 100,00 %
06.06.2017 08:34 15,6 C 23,3 C 96 % 1005,0 hPa 0,0 l/m 3,3 km/h (1 Bft) O-NO 66 0 min 0,000 mm 0,7 UV-I 239 W/m 15,0 C 15,6 C 6,4 km/h (2 Bft) 93,62 %
06.06.2017 08:36 15,6 C 23,3 C 96 % 1005,0 hPa 0,0 l/m 3,6 km/h (1 Bft) O-NO 66 0 min 0,000 mm 0,6 UV-I 194 W/m 15,0 C 15,6 C 6,4 km/h (2 Bft) 95,74 %
06.06.2017 08:38 15,7 C 23,3 C 96 % 1005,0 hPa 0,0 l/m 5,3 km/h (1 Bft) N-NO 25 0 min 0,000 mm 0,5 UV-I 149 W/m 15,1 C 15,7 C 8,0 km/h (2 Bft) 93,62 %
06.06.2017 08:40 15,8 C 23,3 C 96 % 1004,9 hPa 0,0 l/m 5,2 km/h (1 Bft) N-NO 19 0 min 0,000 mm 0,5 UV-I 131 W/m 15,2 C 15,8 C 9,7 km/h (2 Bft) 98,00 %
06.06.2017 08:42 15,8 C 23,3 C 96 % 1004,9 hPa 0,0 l/m 4,6 km/h (1 Bft) NO 36 0 min 0,000 mm 0,5 UV-I 145 W/m 15,2 C 15,8 C 8,0 km/h (2 Bft) 93,62 %
06.06.2017 08:44 15,7 C 23,3 C 95 % 1004,9 hPa 0,0 l/m 2,7 km/h (1 Bft) NO 36 0 min 0,000 mm 0,5 UV-I 142 W/m 14,9 C 15,7 C 4,8 km/h (1 Bft) 94,29 %
06.06.2017 08:46 15,8 C 23,3 C 96 % 1004,7 hPa 0,0 l/m 5,1 km/h (1 Bft) NO 37 0 min 0,000 mm 0,6 UV-I 153 W/m 15,2 C 15,8 C 8,0 km/h (2 Bft) 100,00 %
06.06.2017 08:48 15,8 C 23,3 C 95 % 1004,7 hPa 0,0 l/m 5,4 km/h (1 Bft) NO 34 0 min 0,000 mm 0,6 UV-I 161 W/m 15,0 C 15,8 C 8,0 km/h (2 Bft) 97,87 %
06.06.2017 08:50 15,9 C 23,3 C 96 % 1004,8 hPa 0,0 l/m 3,1 km/h (1 Bft) NO 53 0 min 0,000 mm 0,6 UV-I 177 W/m 15,3 C 15,9 C 11,3 km/h (2 Bft) 98,00 %
06.06.2017 08:52 15,9 C 23,3 C 95 % 1004,8 hPa 0,0 l/m 6,7 km/h (2 Bft) N-NO 30 0 min 0,000 mm 0,7 UV-I 209 W/m 15,1 C 15,7 C 11,3 km/h (2 Bft) 100,00 %
06.06.2017 08:54 15,9 C 23,3 C 95 % 1004,8 hPa 0,0 l/m 6,1 km/h (2 Bft) NO 34 0 min 0,000 mm 1,0 UV-I 240 W/m 15,1 C 15,9 C 8,0 km/h (2 Bft) 95,74 %
06.06.2017 08:56 15,9 C 23,3 C 95 % 1004,8 hPa 0,0 l/m 3,8 km/h (1 Bft) NO 34 0 min 0,000 mm 0,9 UV-I 232 W/m 15,1 C 15,9 C 6,4 km/h (2 Bft) 95,83 %
06.06.2017 08:58 16,1 C 23,3 C 95 % 1004,8 hPa 0,0 l/m 4,8 km/h (1 Bft) N-NO 29 0 min 0,000 mm 0,8 UV-I 192 W/m 15,3 C 16,1 C 8,0 km/h (2 Bft) 100,00 %
06.06.2017 09:00 16,1 C 23,3 C 95 % 1004,8 hPa 0,0 l/m 5,0 km/h (1 Bft) NO 51 0 min 0,000 mm 0,7 UV-I 192 W/m 15,3 C 16,1 C 8,0 km/h (2 Bft) 100,00 %
06.06.2017 09:02 16,1 C 23,3 C 95 % 1004,8 hPa 0,0 l/m 4,9 km/h (1 Bft) NO 47 0 min 0,076 mm 0,6 UV-I 183 W/m 15,3 C 16,1 C 8,0 km/h (2 Bft) 98,00 %
06.06.2017 09:04 16,1 C 23,3 C 94 % 1004,7 hPa 0,0 l/m 4,5 km/h (1 Bft) NO 47 0 min 0,000 mm 0,6 UV-I 155 W/m 15,1 C 16,1 C 6,4 km/h (2 Bft) 100,00 %
06.06.2017 09:06 16,1 C 23,3 C 94 % 1004,7 hPa 0,0 l/m 5,5 km/h (1 Bft) O-NO 57 0 min 0,000 mm 0,6 UV-I 155 W/m 15,1 C 16,1 C 8,0 km/h (2 Bft) 93,62 %
06.06.2017 09:08 16,0 C 23,3 C 94 % 1004,8 hPa 0,0 l/m 2,2 km/h (1 Bft) O-NO 57 0 min 0,000 mm 0,7 UV-I 164 W/m 15,0 C 16,0 C 4,8 km/h (1 Bft) 91,49 %
06.06.2017 09:10 16,1 C 23,3 C 94 % 1004,8 hPa 0,0 l/m 0,2 km/h (0 Bft) O-NO 57 0 min 0,000 mm 0,7 UV-I 163 W/m 15,1 C 16,1 C 1,6 km/h (1 Bft) 100,00 %
06.06.2017 09:12 16,1 C 23,3 C 94 % 1004,9 hPa 0,0 l/m 0,4 km/h (0 Bft) O-NO 57 0 min 0,000 mm 0,7 UV-I 162 W/m 15,1 C 16,1 C 1,6 km/h (1 Bft) 95,74 %
06.06.2017 09:14 16,1 C 23,3 C 94 % 1004,9 hPa 0,0 l/m 1,8 km/h (1 Bft) O-NO 57 0 min 0,000 mm 0,7 UV-I 176 W/m 15,1 C 16,1 C 4,8 km/h (1 Bft) 97,87 %
06.06.2017 09:16 16,2 C 23,3 C 94 % 1004,9 hPa 0,0 l/m 3,5 km/h (1 Bft) O-NO 78 0 min 0,000 mm 0,8 UV-I 180 W/m 15,2 C 16,2 C 6,4 km/h (2 Bft) 95,74 %
06.06.2017 09:18 16,2 C 23,3 C 94 % 1004,9 hPa 0,0 l/m 4,1 km/h (1 Bft) O-NO 78 0 min 0,000 mm 0,9 UV-I 206 W/m 15,2 C 16,2 C 6,4 km/h (2 Bft) 95,74 %
06.06.2017 09:20 16,2 C 23,3 C 93 % 1004,9 hPa 0,0 l/m 3,4 km/h (1 Bft) O 101 0 min 0,000 mm 0,8 UV-I 182 W/m 15,1 C 16,2 C 9,7 km/h (2 Bft) 93,62 %
06.06.2017 09:22 16,2 C 23,3 C 93 % 1004,9 hPa 0,0 l/m 4,4 km/h (1 Bft) O 80 0 min 0,000 mm 0,8 UV-I 169 W/m 15,1 C 16,2 C 9,7 km/h (2 Bft) 100,00 %
06.06.2017 09:24 16,2 C 23,3 C 93 % 1004,8 hPa 0,0 l/m 3,7 km/h (1 Bft) O-NO 63 0 min 0,000 mm 0,8 UV-I 175 W/m 15,1 C 16,2 C 6,4 km/h (2 Bft) 96,00 %
06.06.2017 09:26 16,3 C 23,3 C 93 % 1004,9 hPa 0,0 l/m 4,0 km/h (1 Bft) NO 52 0 min 0,000 mm 0,8 UV-I 185 W/m 15,2 C 16,3 C 6,4 km/h (2 Bft) 97,87 %
06.06.2017 09:28 16,3 C 23,3 C 93 % 1004,9 hPa 0,0 l/m 1,8 km/h (1 Bft) NO 52 0 min 0,000 mm 0,9 UV-I 202 W/m 15,2 C 16,3 C 4,8 km/h (1 Bft) 100,00 %
06.06.2017 09:30 16,3 C 23,3 C 93 % 1004,8 hPa 0,0 l/m 1,2 km/h (1 Bft) NO 52 0 min 0,000 mm 1,0 UV-I 212 W/m 15,2 C 16,3 C 4,8 km/h (1 Bft) 96,00 %
06.06.2017 09:32 16,4 C 23,3 C 92 % 1004,8 hPa 0,0 l/m 3,0 km/h (1 Bft) NO 54 0 min 0,000 mm 1,1 UV-I 228 W/m 15,1 C 16,4 C 4,8 km/h (1 Bft) 100,00 %
06.06.2017 09:34 16,3 C 23,3 C 91 % 1004,7 hPa 0,0 l/m 0,6 km/h (0 Bft) NO 54 0 min 0,000 mm 1,3 UV-I 261 W/m 14,8 C 16,3 C 3,2 km/h (1 Bft) 97,87 %
06.06.2017 09:36 16,3 C 23,3 C 92 % 1004,7 hPa 0,0 l/m 0,8 km/h (0 Bft) NO 54 0 min 0,000 mm 1,4 UV-I 299 W/m 15,0 C 16,3 C 3,2 km/h (1 Bft) 93,75 %
06.06.2017 09:38 16,4 C 23,3 C 92 % 1004,7 hPa 0,0 l/m 1,3 km/h (1 Bft) NO 54 0 min 0,000 mm 1,2 UV-I 260 W/m 15,1 C 16,4 C 4,8 km/h (1 Bft) 93,62 %
06.06.2017 09:40 16,5 C 23,3 C 92 % 1004,6 hPa 0,0 l/m 1,7 km/h (1 Bft) NO 54 0 min 0,000 mm 1,1 UV-I 219 W/m 15,2 C 16,5 C 4,8 km/h (1 Bft) 96,00 %
06.06.2017 09:42 16,6 C 23,3 C 92 % 1004,6 hPa 0,0 l/m 2,8 km/h (1 Bft) NO 54 0 min 0,000 mm 1,1 UV-I 209 W/m 15,3 C 16,6 C 4,8 km/h (1 Bft) 100,00 %
06.06.2017 09:44 16,6 C 23,3 C 92 % 1004,6 hPa 0,0 l/m 1,0 km/h (0 Bft) NO 54 0 min 0,000 mm 1,1 UV-I 216 W/m 15,3 C 16,6 C 3,2 km/h (1 Bft) 100,00 %
06.06.2017 09:46 16,7 C 23,3 C 92 % 1004,5 hPa 0,0 l/m 1,2 km/h (1 Bft) NO 54 0 min 0,000 mm 1,2 UV-I 244 W/m 15,4 C 16,7 C 3,2 km/h (1 Bft) 98,00 %
06.06.2017 09:48 16,6 C 23,3 C 91 % 1004,5 hPa 0,0 l/m 0,0 km/h (0 Bft) NO 54 0 min 0,000 mm 1,2 UV-I 252 W/m 15,1 C 16,6 C 0,0 km/h (0 Bft) 100,00 %
06.06.2017 09:50 16,7 C 23,3 C 92 % 1004,4 hPa 0,0 l/m 0,2 km/h (0 Bft) NO 54 0 min 0,000 mm 1,4 UV-I 298 W/m 15,4 C 16,7 C 1,6 km/h (1 Bft) 93,62 %
06.06.2017 09:52 16,7 C 23,3 C 91 % 1004,4 hPa 0,0 l/m 0,1 km/h (0 Bft) NO 54 0 min 0,000 mm 1,6 UV-I 341 W/m 15,2 C 16,7 C 1,6 km/h (1 Bft) 93,62 %
06.06.2017 09:54 16,9 C 23,3 C 92 % 1004,4 hPa 0,0 l/m 0,4 km/h (0 Bft) NO 54 0 min 0,000 mm 1,5 UV-I 321 W/m 15,6 C 16,9 C 1,6 km/h (1 Bft) 97,37 %
06.06.2017 09:56 16,9 C 23,3 C 91 % 1004,5 hPa 0,0 l/m 0,5 km/h (0 Bft) NO 53 0 min 0,000 mm 1,4 UV-I 276 W/m 15,4 C 16,9 C 1,6 km/h (1 Bft) 96,08 %
06.06.2017 09:58 16,9 C 23,3 C 92 % 1004,5 hPa 0,0 l/m 0,4 km/h (0 Bft) NO 52 0 min 0,000 mm 1,3 UV-I 280 W/m 15,6 C 16,9 C 1,6 km/h (1 Bft) 89,36 %
06.06.2017 10:00 17,0 C 23,3 C 91 % 1004,5 hPa 0,0 l/m 0,1 km/h (0 Bft) NO 52 0 min 0,127 mm 1,1 UV-I 238 W/m 15,5 C 17,0 C 1,6 km/h (1 Bft) 96,00 %
06.06.2017 10:02 16,9 C 23,3 C 90 % 1004,5 hPa 0,0 l/m 0,7 km/h (0 Bft) NO 52 0 min 0,000 mm 1,1 UV-I 218 W/m 15,2 C 16,9 C 3,2 km/h (1 Bft) 97,87 %
06.06.2017 10:04 16,8 C 23,3 C 90 % 1004,5 hPa 0,0 l/m 1,0 km/h (0 Bft) NO 52 0 min 0,000 mm 1,2 UV-I 244 W/m 15,1 C 16,8 C 3,2 km/h (1 Bft) 97,87 %
06.06.2017 10:06 16,8 C 23,3 C 91 % 1004,5 hPa 0,0 l/m 0,0 km/h (0 Bft) NO 52 0 min 0,000 mm 1,2 UV-I 249 W/m 15,3 C 16,8 C 0,0 km/h (0 Bft) 93,18 %
06.06.2017 10:08 16,9 C 23,3 C 91 % 1004,5 hPa 0,0 l/m 0,3 km/h (0 Bft) NO 51 0 min 0,000 mm 1,3 UV-I 263 W/m 15,4 C 16,9 C 1,6 km/h (1 Bft) 95,74 %
06.06.2017 10:10 16,9 C 23,3 C 90 % 1004,5 hPa 0,0 l/m 0,7 km/h (0 Bft) NO 50 0 min 0,000 mm 1,3 UV-I 253 W/m 15,2 C 16,9 C 3,2 km/h (1 Bft) 95,74 %
06.06.2017 10:12 16,9 C 23,3 C 90 % 1004,5 hPa 0,0 l/m 0,3 km/h (0 Bft) NO 50 0 min 0,000 mm 1,3 UV-I 242 W/m 15,2 C 16,9 C 1,6 km/h (1 Bft) 95,74 %
06.06.2017 10:14 16,8 C 23,3 C 89 % 1004,4 hPa 0,0 l/m 0,0 km/h (0 Bft) NO 50 0 min 0,000 mm 1,3 UV-I 242 W/m 15,0 C 16,8 C 0,0 km/h (0 Bft) 91,67 %
06.06.2017 10:16 16,9 C 23,3 C 90 % 1004,4 hPa 0,0 l/m 0,0 km/h (0 Bft) NO 50 0 min 0,000 mm 1,3 UV-I 251 W/m 15,2 C 16,9 C 0,0 km/h (0 Bft) 97,87 %
06.06.2017 10:18 17,0 C 23,3 C 90 % 1004,4 hPa 0,0 l/m 0,3 km/h (0 Bft) NO 50 0 min 0,000 mm 1,4 UV-I 271 W/m 15,3 C 17,0 C 1,6 km/h (1 Bft) 95,74 %
06.06.2017 10:20 17,1 C 23,3 C 91 % 1004,5 hPa 0,0 l/m 1,3 km/h (1 Bft) NO 50 0 min 0,000 mm 1,6 UV-I 312 W/m 15,6 C 17,1 C 3,2 km/h (1 Bft) 92,00 %
06.06.2017 10:22 17,1 C 23,3 C 89 % 1004,5 hPa 0,0 l/m 1,2 km/h (1 Bft) NO 50 0 min 0,000 mm 1,8 UV-I 320 W/m 15,3 C 17,1 C 3,2 km/h (1 Bft) 95,74 %
06.06.2017 10:24 17,1 C 23,3 C 89 % 1004,4 hPa 0,0 l/m 0,9 km/h (0 Bft) NO 50 0 min 0,000 mm 1,8 UV-I 330 W/m 15,3 C 17,1 C 1,6 km/h (1 Bft) 97,37 %
06.06.2017 10:26 17,1 C 23,3 C 89 % 1004,4 hPa 0,0 l/m 0,0 km/h (0 Bft) NO 50 0 min 0,000 mm 1,8 UV-I 366 W/m 15,3 C 17,1 C 0,0 km/h (0 Bft) 95,74 %
06.06.2017 10:28 17,0 C 23,3 C 89 % 1004,4 hPa 0,0 l/m 0,1 km/h (0 Bft) NO 50 0 min 0,000 mm 1,5 UV-I 268 W/m 15,2 C 17,0 C 1,6 km/h (1 Bft) 93,62 %
06.06.2017 10:30 17,0 C 23,3 C 89 % 1004,4 hPa 0,0 l/m 0,3 km/h (0 Bft) NO 49 0 min 0,000 mm 1,3 UV-I 242 W/m 15,2 C 17,0 C 3,2 km/h (1 Bft) 95,74 %
06.06.2017 10:32 17,2 C 23,3 C 90 % 1004,3 hPa 0,0 l/m 0,8 km/h (0 Bft) NO 46 0 min 0,000 mm 1,4 UV-I 241 W/m 15,5 C 17,2 C 3,2 km/h (1 Bft) 98,00 %
06.06.2017 10:34 17,3 C 23,3 C 90 % 1004,3 hPa 0,0 l/m 0,0 km/h (0 Bft) NO 46 0 min 0,000 mm 1,4 UV-I 239 W/m 15,6 C 17,3 C 0,0 km/h (0 Bft) 93,62 %
06.06.2017 10:36 17,3 C 23,3 C 89 % 1004,3 hPa 0,0 l/m 0,5 km/h (0 Bft) NO 46 0 min 0,000 mm 1,3 UV-I 237 W/m 15,5 C 17,3 C 3,2 km/h (1 Bft) 95,74 %
06.06.2017 10:38 17,3 C 23,3 C 89 % 1004,3 hPa 0,0 l/m 1,6 km/h (1 Bft) NO 46 0 min 0,000 mm 1,4 UV-I 241 W/m 15,5 C 17,3 C 3,2 km/h (1 Bft) 95,74 %
06.06.2017 10:40 17,3 C 23,3 C 89 % 1004,4 hPa 0,0 l/m 0,2 km/h (0 Bft) NO 46 0 min 0,000 mm 1,4 UV-I 230 W/m 15,5 C 17,3 C 1,6 km/h (1 Bft) 94,00 %
06.06.2017 10:42 17,3 C 23,3 C 89 % 1004,4 hPa 0,0 l/m 0,5 km/h (0 Bft) NO 46 0 min 0,000 mm 1,3 UV-I 219 W/m 15,5 C 17,3 C 3,2 km/h (1 Bft) 91,49 %
06.06.2017 10:44 17,3 C 23,3 C 89 % 1004,5 hPa 0,0 l/m 0,9 km/h (0 Bft) NO 46 0 min 0,000 mm 1,2 UV-I 200 W/m 15,5 C 17,3 C 3,2 km/h (1 Bft) 95,74 %
06.06.2017 10:46 17,2 C 23,3 C 89 % 1004,5 hPa 0,0 l/m 0,4 km/h (0 Bft) NO 46 0 min 0,000 mm 1,3 UV-I 213 W/m 15,4 C 17,2 C 3,2 km/h (1 Bft) 97,87 %
06.06.2017 10:48 17,3 C 23,3 C 89 % 1004,3 hPa 0,0 l/m 0,7 km/h (0 Bft) NO 46 0 min 0,000 mm 1,6 UV-I 255 W/m 15,5 C 17,3 C 3,2 km/h (1 Bft) 97,87 %
06.06.2017 10:50 17,3 C 23,3 C 89 % 1004,3 hPa 0,0 l/m 0,0 km/h (0 Bft) NO 46 0 min 0,000 mm 1,8 UV-I 288 W/m 15,5 C 17,3 C 1,6 km/h (1 Bft) 95,74 %
06.06.2017 10:52 17,4 C 23,3 C 89 % 1004,2 hPa 0,0 l/m 0,0 km/h (0 Bft) NO 46 0 min 0,000 mm 1,8 UV-I 298 W/m 15,6 C 17,4 C 1,6 km/h (1 Bft) 93,62 %
06.06.2017 10:54 17,6 C 23,3 C 89 % 1004,2 hPa 0,0 l/m 0,1 km/h (0 Bft) NO 46 0 min 0,000 mm 1,9 UV-I 301 W/m 15,8 C 17,6 C 1,6 km/h (1 Bft) 95,74 %
06.06.2017 10:56 17,6 C 23,3 C 89 % 1004,1 hPa 0,0 l/m 0,0 km/h (0 Bft) NO 46 0 min 0,000 mm 1,8 UV-I 292 W/m 15,8 C 17,6 C 1,6 km/h (1 Bft) 97,92 %
06.06.2017 10:58 17,7 C 23,3 C 89 % 1004,1 hPa 0,0 l/m 0,0 km/h (0 Bft) NO 46 0 min 0,000 mm 1,7 UV-I 279 W/m 15,9 C 17,7 C 1,6 km/h (1 Bft) 97,87 %
06.06.2017 11:00 17,7 C 23,3 C 88 % 1004,1 hPa 0,0 l/m 0,2 km/h (0 Bft) NO 46 0 min 0,153 mm 1,8 UV-I 294 W/m 15,7 C 17,7 C 1,6 km/h (1 Bft) 95,74 %
06.06.2017 11:02 17,7 C 23,3 C 89 % 1004,1 hPa 0,0 l/m 0,4 km/h (0 Bft) NO 46 0 min 0,000 mm 2,0 UV-I 343 W/m 15,9 C 17,7 C 3,2 km/h (1 Bft) 97,87 %
06.06.2017 11:04 17,8 C 23,3 C 90 % 1004,1 hPa 0,0 l/m 3,6 km/h (1 Bft) NO 46 0 min 0,000 mm 2,2 UV-I 385 W/m 16,1 C 17,8 C 6,4 km/h (2 Bft) 95,74 %
06.06.2017 11:06 17,8 C 23,3 C 88 % 1004,1 hPa 0,0 l/m 1,6 km/h (1 Bft) NO 46 0 min 0,000 mm 2,3 UV-I 410 W/m 15,8 C 17,8 C 3,2 km/h (1 Bft) 97,37 %
06.06.2017 11:08 17,9 C 23,3 C 88 % 1004,1 hPa 0,0 l/m 2,5 km/h (1 Bft) NO 46 2 min 0,000 mm 3,0 UV-I 576 W/m 15,9 C 17,9 C 3,2 km/h (1 Bft) 91,49 %
06.06.2017 11:10 18,2 C 23,3 C 90 % 1004,1 hPa 0,0 l/m 2,4 km/h (1 Bft) NO 46 2 min 0,000 mm 3,0 UV-I 537 W/m 16,5 C 18,2 C 3,2 km/h (1 Bft) 90,00 %
06.06.2017 11:12 18,3 C 23,3 C 87 % 1004,1 hPa 0,0 l/m 3,8 km/h (1 Bft) O-NO 70 2 min 0,000 mm 2,8 UV-I 501 W/m 16,1 C 18,3 C 9,7 km/h (2 Bft) 98,00 %
06.06.2017 11:14 18,2 C 23,3 C 87 % 1004,1 hPa 0,0 l/m 3,0 km/h (1 Bft) O-NO 70 2 min 0,000 mm 3,4 UV-I 625 W/m 16,0 C 18,2 C 4,8 km/h (1 Bft) 95,74 %
06.06.2017 11:16 18,3 C 23,3 C 87 % 1004,1 hPa 0,0 l/m 2,1 km/h (1 Bft) O-NO 70 2 min 0,000 mm 3,5 UV-I 636 W/m 16,1 C 18,3 C 4,8 km/h (1 Bft) 91,49 %
06.06.2017 11:18 18,4 C 23,3 C 87 % 1004,2 hPa 0,0 l/m 1,8 km/h (1 Bft) O-NO 71 2 min 0,000 mm 4,2 UV-I 777 W/m 16,2 C 18,4 C 8,0 km/h (2 Bft) 93,62 %
06.06.2017 11:20 18,6 C 22,8 C 86 % 1004,2 hPa 0,0 l/m 5,3 km/h (1 Bft) O-NO 70 2 min 0,000 mm 4,3 UV-I 913 W/m 16,2 C 18,6 C 9,7 km/h (2 Bft) 91,49 %
06.06.2017 11:22 18,7 C 22,8 C 86 % 1004,2 hPa 0,0 l/m 3,1 km/h (1 Bft) O-NO 70 2 min 0,000 mm 4,1 UV-I 843 W/m 16,3 C 18,7 C 4,8 km/h (1 Bft) 89,36 %
06.06.2017 11:24 18,9 C 22,8 C 87 % 1004,2 hPa 0,0 l/m 3,2 km/h (1 Bft) O-NO 73 2 min 0,000 mm 3,4 UV-I 731 W/m 16,7 C 18,9 C 8,0 km/h (2 Bft) 89,47 %
06.06.2017 11:26 18,9 C 22,8 C 85 % 1004,2 hPa 0,0 l/m 7,1 km/h (2 Bft) O 80 2 min 0,000 mm 3,0 UV-I 529 W/m 16,3 C 18,6 C 12,9 km/h (3 Bft) 97,87 %
06.06.2017 11:28 18,8 C 22,8 C 85 % 1004,2 hPa 0,0 l/m 2,2 km/h (1 Bft) O-SO 116 0 min 0,000 mm 2,6 UV-I 420 W/m 16,2 C 18,8 C 6,4 km/h (2 Bft) 95,83 %
06.06.2017 11:30 18,7 C 22,8 C 85 % 1004,1 hPa 0,0 l/m 1,5 km/h (1 Bft) O-SO 116 0 min 0,000 mm 2,2 UV-I 355 W/m 16,1 C 18,7 C 3,2 km/h (1 Bft) 95,74 %
06.06.2017 11:32 18,5 C 22,8 C 85 % 1004,1 hPa 0,0 l/m 0,0 km/h (0 Bft) O-SO 116 0 min 0,000 mm 2,0 UV-I 330 W/m 15,9 C 18,5 C 1,6 km/h (1 Bft) 97,87 %
06.06.2017 11:34 18,4 C 22,8 C 86 % 1004,1 hPa 0,0 l/m 0,0 km/h (0 Bft) O-SO 116 0 min 0,000 mm 1,9 UV-I 312 W/m 16,0 C 18,4 C 0,0 km/h (0 Bft) 98,00 %
06.06.2017 11:36 18,3 C 22,8 C 87 % 1004,1 hPa 0,0 l/m 0,0 km/h (0 Bft) O-SO 116 0 min 0,000 mm 1,8 UV-I 305 W/m 16,1 C 18,3 C 0,0 km/h (0 Bft) 93,62 %
06.06.2017 11:38 18,4 C 22,8 C 87 % 1004,2 hPa 0,0 l/m 0,5 km/h (0 Bft) O-SO 116 0 min 0,000 mm 1,9 UV-I 308 W/m 16,2 C 18,4 C 3,2 km/h (1 Bft) 93,62 %
06.06.2017 11:40 18,6 C 22,8 C 87 % 1004,1 hPa 0,0 l/m 4,1 km/h (1 Bft) O-SO 113 0 min 0,000 mm 1,9 UV-I 316 W/m 16,4 C 18,6 C 9,7 km/h (2 Bft) 100,00 %
06.06.2017 11:42 18,6 C 22,8 C 86 % 1004,1 hPa 0,0 l/m 3,1 km/h (1 Bft) SO 136 0 min 0,000 mm 1,9 UV-I 320 W/m 16,2 C 18,6 C 9,7 km/h (2 Bft) 100,00 %
06.06.2017 11:44 18,4 C 22,8 C 85 % 1004,2 hPa 0,0 l/m 1,1 km/h (1 Bft) SO 136 0 min 0,000 mm 1,8 UV-I 307 W/m 15,8 C 18,4 C 3,2 km/h (1 Bft) 100,00 %
06.06.2017 11:46 18,4 C 22,8 C 86 % 1004,2 hPa 0,0 l/m 0,2 km/h (0 Bft) SO 136 0 min 0,000 mm 1,7 UV-I 287 W/m 16,0 C 18,4 C 1,6 km/h (1 Bft) 97,87 %
06.06.2017 11:48 18,6 C 22,8 C 87 % 1004,1 hPa 0,0 l/m 4,3 km/h (1 Bft) S 177 0 min 0,000 mm 1,6 UV-I 271 W/m 16,4 C 18,6 C 6,4 km/h (2 Bft) 96,00 %
06.06.2017 11:50 18,7 C 22,8 C 87 % 1004,1 hPa 0,0 l/m 3,1 km/h (1 Bft) S 178 0 min 0,000 mm 1,5 UV-I 262 W/m 16,5 C 18,7 C 4,8 km/h (1 Bft) 100,00 %
06.06.2017 11:52 18,6 C 22,8 C 86 % 1004,1 hPa 0,0 l/m 0,6 km/h (0 Bft) S 178 0 min 0,000 mm 1,5 UV-I 256 W/m 16,2 C 18,6 C 3,2 km/h (1 Bft) 97,87 %
06.06.2017 11:54 18,6 C 22,8 C 87 % 1004,0 hPa 0,0 l/m 1,8 km/h (1 Bft) S 178 0 min 0,000 mm 1,5 UV-I 256 W/m 16,4 C 18,6 C 3,2 km/h (1 Bft) 97,87 %
06.06.2017 11:56 18,6 C 22,8 C 87 % 1004,0 hPa 0,0 l/m 1,7 km/h (1 Bft) S 178 0 min 0,000 mm 1,6 UV-I 269 W/m 16,4 C 18,6 C 3,2 km/h (1 Bft) 87,23 %
06.06.2017 11:58 18,6 C 22,8 C 87 % 1003,9 hPa 0,0 l/m 4,4 km/h (1 Bft) O-SO 121 0 min 0,000 mm 1,8 UV-I 299 W/m 16,4 C 18,6 C 8,0 km/h (2 Bft) 95,74 %
06.06.2017 12:00 18,6 C 22,8 C 87 % 1003,9 hPa 0,0 l/m 3,1 km/h (1 Bft) O-SO 121 0 min 0,254 mm 2,1 UV-I 340 W/m 16,4 C 18,6 C 4,8 km/h (1 Bft) 97,22 %
06.06.2017 12:02 18,6 C 22,8 C 88 % 1003,9 hPa 0,0 l/m 1,0 km/h (0 Bft) O-SO 119 0 min 0,000 mm 2,3 UV-I 375 W/m 16,6 C 18,6 C 4,8 km/h (1 Bft) 95,74 %
06.06.2017 12:04 18,7 C 22,8 C 87 % 1003,8 hPa 0,0 l/m 3,1 km/h (1 Bft) O-SO 119 0 min 0,000 mm 2,4 UV-I 401 W/m 16,5 C 18,7 C 6,4 km/h (2 Bft) 95,74 %
06.06.2017 12:06 18,8 C 22,8 C 87 % 1003,8 hPa 0,0 l/m 2,2 km/h (1 Bft) O-SO 118 0 min 0,000 mm 2,6 UV-I 417 W/m 16,6 C 18,8 C 4,8 km/h (1 Bft) 89,58 %
06.06.2017 12:08 18,8 C 22,8 C 87 % 1003,7 hPa 0,0 l/m 3,8 km/h (1 Bft) O-SO 115 0 min 0,000 mm 2,7 UV-I 427 W/m 16,6 C 18,8 C 4,8 km/h (1 Bft) 95,74 %
06.06.2017 12:10 18,7 C 22,8 C 87 % 1003,7 hPa 0,0 l/m 1,7 km/h (1 Bft) O 85 0 min 0,000 mm 2,9 UV-I 475 W/m 16,5 C 18,7 C 4,8 km/h (1 Bft) 93,62 %
06.06.2017 12:12 18,8 C 22,8 C 87 % 1003,6 hPa 0,0 l/m 3,3 km/h (1 Bft) O-NO 67 2 min 0,000 mm 3,4 UV-I 547 W/m 16,6 C 18,8 C 4,8 km/h (1 Bft) 95,83 %
06.06.2017 12:14 19,0 C 23,3 C 87 % 1003,6 hPa 0,0 l/m 3,0 km/h (1 Bft) O-NO 67 2 min 0,000 mm 4,6 UV-I 662 W/m 16,8 C 19,0 C 6,4 km/h (2 Bft) 97,87 %
06.06.2017 12:16 19,2 C 23,3 C 87 % 1003,6 hPa 0,0 l/m 3,8 km/h (1 Bft) O-NO 67 2 min 0,000 mm 5,3 UV-I 888 W/m 17,0 C 19,2 C 6,4 km/h (2 Bft) 91,49 %
06.06.2017 12:18 19,4 C 22,8 C 87 % 1003,6 hPa 0,0 l/m 0,8 km/h (0 Bft) O-NO 67 2 min 0,000 mm 5,6 UV-I 1039 W/m 17,2 C 19,4 C 3,2 km/h (1 Bft) 91,49 %
06.06.2017 12:20 19,7 C 23,3 C 85 % 1003,5 hPa 0,0 l/m 0,9 km/h (0 Bft) O-NO 67 2 min 0,000 mm 4,5 UV-I 764 W/m 17,1 C 19,7 C 3,2 km/h (1 Bft) 95,74 %
06.06.2017 12:22 19,6 C 23,3 C 85 % 1003,5 hPa 0,0 l/m 1,5 km/h (1 Bft) O-NO 67 0 min 0,000 mm 4,2 UV-I 431 W/m 17,0 C 19,6 C 4,8 km/h (1 Bft) 95,74 %
06.06.2017 12:24 19,8 C 23,3 C 87 % 1003,5 hPa 0,0 l/m 4,6 km/h (1 Bft) O-NO 65 0 min 0,000 mm 6,0 UV-I 406 W/m 17,6 C 19,8 C 8,0 km/h (2 Bft) 95,74 %
06.06.2017 12:26 19,7 C 22,8 C 84 % 1003,5 hPa 0,0 l/m 1,3 km/h (1 Bft) O-NO 65 0 min 0,000 mm 4,0 UV-I 406 W/m 16,9 C 19,7 C 3,2 km/h (1 Bft) 97,87 %
06.06.2017 12:28 19,7 C 23,3 C 84 % 1003,5 hPa 0,0 l/m 1,4 km/h (1 Bft) O-NO 65 0 min 0,000 mm 3,3 UV-I 400 W/m 16,9 C 19,7 C 6,4 km/h (2 Bft) 97,87 %
06.06.2017 12:30 19,6 C 23,3 C 84 % 1003,4 hPa 0,0 l/m 2,5 km/h (1 Bft) O-NO 61 2 min 0,000 mm 4,3 UV-I 576 W/m 16,8 C 19,6 C 6,4 km/h (2 Bft) 97,87 %
06.06.2017 12:32 19,8 C 22,8 C 85 % 1003,4 hPa 0,0 l/m 5,9 km/h (2 Bft) O-NO 67 2 min 0,000 mm 4,1 UV-I 679 W/m 17,2 C 19,8 C 8,0 km/h (2 Bft) 93,62 %
06.06.2017 12:34 19,8 C 22,8 C 85 % 1003,3 hPa 0,0 l/m 5,2 km/h (1 Bft) NO 50 0 min 0,000 mm 3,2 UV-I 368 W/m 17,2 C 19,8 C 8,0 km/h (2 Bft) 95,74 %
06.06.2017 12:36 19,8 C 23,3 C 84 % 1003,3 hPa 0,0 l/m 2,7 km/h (1 Bft) NO 48 0 min 0,000 mm 3,5 UV-I 378 W/m 17,0 C 19,8 C 8,0 km/h (2 Bft) 93,62 %
06.06.2017 12:38 20,1 C 23,3 C 86 % 1003,3 hPa 0,0 l/m 0,1 km/h (0 Bft) NO 46 0 min 0,000 mm 4,4 UV-I 444 W/m 17,7 C 20,1 C 1,6 km/h (1 Bft) 100,00 %
06.06.2017 12:40 20,1 C 23,3 C 83 % 1003,3 hPa 0,0 l/m 2,6 km/h (1 Bft) NO 34 2 min 0,000 mm 4,0 UV-I 611 W/m 17,1 C 20,1 C 4,8 km/h (1 Bft) 98,00 %
06.06.2017 12:42 19,9 C 23,3 C 82 % 1003,3 hPa 0,0 l/m 2,0 km/h (1 Bft) N-NO 27 0 min 0,000 mm 3,4 UV-I 457 W/m 16,7 C 19,9 C 4,8 km/h (1 Bft) 89,47 %
06.06.2017 12:44 19,8 C 23,3 C 84 % 1003,3 hPa 0,0 l/m 1,0 km/h (0 Bft) N-NO 27 0 min 0,000 mm 3,2 UV-I 424 W/m 17,0 C 19,8 C 1,6 km/h (1 Bft) 95,74 %
06.06.2017 12:46 19,8 C 23,3 C 84 % 1003,2 hPa 0,0 l/m 1,1 km/h (1 Bft) N-NO 26 0 min 0,000 mm 3,2 UV-I 425 W/m 17,0 C 19,8 C 3,2 km/h (1 Bft) 93,75 %
06.06.2017 12:48 19,9 C 23,3 C 86 % 1003,1 hPa 0,0 l/m 0,7 km/h (0 Bft) N-NO 25 0 min 0,000 mm 3,4 UV-I 450 W/m 17,5 C 19,9 C 1,6 km/h (1 Bft) 100,00 %
06.06.2017 12:50 20,1 C 23,3 C 86 % 1003,1 hPa 0,0 l/m 1,6 km/h (1 Bft) N-NO 29 0 min 0,000 mm 3,2 UV-I 432 W/m 17,7 C 20,1 C 4,8 km/h (1 Bft) 95,74 %
06.06.2017 12:52 20,2 C 23,3 C 86 % 1003,0 hPa 0,0 l/m 5,5 km/h (1 Bft) O-NO 58 0 min 0,000 mm 3,1 UV-I 425 W/m 17,8 C 20,2 C 9,7 km/h (2 Bft) 100,00 %
06.06.2017 12:54 20,2 C 23,3 C 83 % 1002,9 hPa 0,0 l/m 3,9 km/h (1 Bft) O-NO 63 0 min 0,000 mm 3,0 UV-I 425 W/m 17,2 C 20,2 C 6,4 km/h (2 Bft) 100,00 %
06.06.2017 12:56 20,3 C 23,3 C 84 % 1003,0 hPa 0,0 l/m 2,2 km/h (1 Bft) O-NO 62 0 min 0,000 mm 3,0 UV-I 441 W/m 17,5 C 20,3 C 4,8 km/h (1 Bft) 93,62 %
06.06.2017 12:58 20,3 C 23,3 C 86 % 1002,9 hPa 0,0 l/m 0,8 km/h (0 Bft) N-NO 17 0 min 0,000 mm 3,9 UV-I 475 W/m 17,9 C 20,3 C 3,2 km/h (1 Bft) 97,87 %
06.06.2017 13:00 20,6 C 23,3 C 85 % 1002,9 hPa 0,0 l/m 1,9 km/h (1 Bft) N 5 0 min 0,330 mm 5,6 UV-I 476 W/m 18,0 C 20,6 C 3,2 km/h (1 Bft) 97,87 %
06.06.2017 13:02 20,8 C 23,3 C 84 % 1002,9 hPa 0,0 l/m 1,5 km/h (1 Bft) N 5 2 min 0,000 mm 5,4 UV-I 695 W/m 18,0 C 20,8 C 3,2 km/h (1 Bft) 97,87 %
06.06.2017 13:04 21,0 C 23,3 C 84 % 1002,9 hPa 0,0 l/m 0,7 km/h (0 Bft) N 5 2 min 0,000 mm 5,4 UV-I 1022 W/m 18,2 C 21,0 C 1,6 km/h (1 Bft) 100,00 %
06.06.2017 13:06 21,1 C 23,3 C 84 % 1002,8 hPa 0,0 l/m 0,1 km/h (0 Bft) N 5 2 min 0,000 mm 4,5 UV-I 775 W/m 18,3 C 21,1 C 1,6 km/h (1 Bft) 100,00 %
06.06.2017 13:08 21,1 C 23,3 C 82 % 1002,8 hPa 0,0 l/m 1,1 km/h (1 Bft) N 5 2 min 0,000 mm 4,3 UV-I 758 W/m 17,9 C 21,1 C 4,8 km/h (1 Bft) 95,74 %
06.06.2017 13:10 21,2 C 23,3 C 83 % 1002,8 hPa 0,0 l/m 2,6 km/h (1 Bft) N-NO 19 2 min 0,000 mm 3,7 UV-I 538 W/m 18,2 C 21,2 C 6,4 km/h (2 Bft) 95,74 %
06.06.2017 13:12 21,2 C 23,3 C 81 % 1002,8 hPa 0,0 l/m 1,0 km/h (0 Bft) N-NO 17 2 min 0,000 mm 3,9 UV-I 625 W/m 17,8 C 21,2 C 3,2 km/h (1 Bft) 100,00 %
06.06.2017 13:14 21,2 C 23,3 C 83 % 1002,8 hPa 0,0 l/m 1,0 km/h (0 Bft) N-NO 17 2 min 0,000 mm 3,3 UV-I 514 W/m 18,2 C 21,2 C 3,2 km/h (1 Bft) 97,87 %
06.06.2017 13:16 21,2 C 23,3 C 82 % 1002,9 hPa 0,0 l/m 1,8 km/h (1 Bft) N-NO 17 2 min 0,000 mm 3,4 UV-I 508 W/m 18,0 C 21,2 C 3,2 km/h (1 Bft) 100,00 %
06.06.2017 13:18 21,1 C 23,3 C 80 % 1002,8 hPa 0,0 l/m 0,3 km/h (0 Bft) N-NO 17 0 min 0,000 mm 3,2 UV-I 488 W/m 17,5 C 21,1 C 1,6 km/h (1 Bft) 100,00 %
06.06.2017 13:20 21,1 C 23,3 C 83 % 1002,8 hPa 0,0 l/m 0,7 km/h (0 Bft) N-NO 17 0 min 0,000 mm 2,8 UV-I 410 W/m 18,1 C 21,1 C 3,2 km/h (1 Bft) 97,87 %
06.06.2017 13:22 21,0 C 23,3 C 83 % 1002,8 hPa 0,0 l/m 2,2 km/h (1 Bft) W 279 0 min 0,000 mm 2,5 UV-I 359 W/m 18,0 C 21,0 C 9,7 km/h (2 Bft) 97,87 %
06.06.2017 13:24 20,8 C 23,3 C 83 % 1002,8 hPa 0,0 l/m 4,6 km/h (1 Bft) W 267 0 min 0,000 mm 2,3 UV-I 353 W/m 17,8 C 20,8 C 9,7 km/h (2 Bft) 100,00 %
06.06.2017 13:26 20,7 C 23,3 C 85 % 1002,9 hPa 0,0 l/m 2,6 km/h (1 Bft) W 267 0 min 0,000 mm 2,3 UV-I 360 W/m 18,1 C 20,7 C 11,3 km/h (2 Bft) 100,00 %
06.06.2017 13:28 20,6 C 23,3 C 84 % 1002,8 hPa 0,0 l/m 0,9 km/h (0 Bft) W 278 0 min 0,000 mm 2,4 UV-I 385 W/m 17,8 C 20,6 C 4,8 km/h (1 Bft) 100,00 %
06.06.2017 13:30 20,5 C 23,3 C 85 % 1002,9 hPa 0,0 l/m 3,4 km/h (1 Bft) W-NW 296 0 min 0,000 mm 2,4 UV-I 371 W/m 17,9 C 20,5 C 8,0 km/h (2 Bft) 97,22 %
06.06.2017 13:32 20,6 C 23,3 C 85 % 1002,9 hPa 0,0 l/m 1,4 km/h (1 Bft) W-NW 296 0 min 0,000 mm 2,4 UV-I 367 W/m 18,0 C 20,6 C 3,2 km/h (1 Bft) 98,11 %
06.06.2017 13:34 20,6 C 23,3 C 85 % 1002,9 hPa 0,0 l/m 3,6 km/h (1 Bft) W 277 0 min 0,000 mm 2,7 UV-I 420 W/m 18,0 C 20,6 C 6,4 km/h (2 Bft) 95,74 %
06.06.2017 13:36 20,6 C 23,3 C 86 % 1002,9 hPa 0,0 l/m 1,7 km/h (1 Bft) W 265 2 min 0,000 mm 3,2 UV-I 495 W/m 18,2 C 20,6 C 9,7 km/h (2 Bft) 97,87 %
06.06.2017 13:38 20,6 C 23,3 C 84 % 1003,0 hPa 0,0 l/m 6,3 km/h (2 Bft) W-SW 251 0 min 0,000 mm 3,2 UV-I 477 W/m 17,8 C 20,6 C 9,7 km/h (2 Bft) 100,00 %
06.06.2017 13:40 20,7 C 23,3 C 83 % 1003,1 hPa 0,0 l/m 7,0 km/h (2 Bft) W 264 0 min 0,000 mm 3,0 UV-I 456 W/m 17,7 C 20,5 C 12,9 km/h (3 Bft) 97,87 %
06.06.2017 13:42 20,7 C 23,3 C 83 % 1003,1 hPa 0,0 l/m 4,6 km/h (1 Bft) W-SW 250 0 min 0,000 mm 2,9 UV-I 440 W/m 17,7 C 20,7 C 9,7 km/h (2 Bft) 95,83 %
06.06.2017 13:44 20,7 C 23,3 C 83 % 1003,1 hPa 0,0 l/m 9,2 km/h (2 Bft) W-SW 245 0 min 0,000 mm 3,2 UV-I 479 W/m 17,7 C 19,7 C 19,3 km/h (3 Bft) 97,87 %
06.06.2017 13:46 20,8 C 23,3 C 82 % 1003,1 hPa 0,0 l/m 9,9 km/h (2 Bft) W 268 2 min 0,000 mm 3,8 UV-I 629 W/m 17,6 C 19,6 C 17,7 km/h (3 Bft) 100,00 %
06.06.2017 13:48 20,9 C 23,3 C 82 % 1003,1 hPa 0,0 l/m 8,7 km/h (2 Bft) S-SW 213 2 min 0,000 mm 4,3 UV-I 564 W/m 17,7 C 20,1 C 17,7 km/h (3 Bft) 97,87 %
06.06.2017 13:50 20,9 C 23,3 C 82 % 1003,1 hPa 0,0 l/m 11,3 km/h (2 Bft) W-SW 250 2 min 0,000 mm 4,1 UV-I 723 W/m 17,7 C 19,3 C 19,3 km/h (3 Bft) 97,96 %
06.06.2017 13:52 20,7 C 23,3 C 82 % 1003,1 hPa 0,0 l/m 6,6 km/h (2 Bft) W-SW 250 2 min 0,000 mm 2,3 UV-I 634 W/m 17,5 C 20,6 C 17,7 km/h (3 Bft) 98,11 %
06.06.2017 13:54 20,6 C 23,3 C 83 % 1003,1 hPa 0,0 l/m 9,5 km/h (2 Bft) SW 232 0 min 0,000 mm 1,9 UV-I 245 W/m 17,6 C 19,5 C 12,9 km/h (3 Bft) 97,87 %
06.06.2017 13:56 20,4 C 23,3 C 83 % 1003,3 hPa 0,0 l/m 13,9 km/h (3 Bft) W 262 0 min 0,000 mm 1,5 UV-I 198 W/m 17,4 C 18,0 C 20,9 km/h (4 Bft) 93,62 %
06.06.2017 13:58 20,2 C 23,3 C 81 % 1003,4 hPa 0,0 l/m 15,9 km/h (3 Bft) W 275 0 min 0,000 mm 1,4 UV-I 187 W/m 16,8 C 17,3 C 24,1 km/h (4 Bft) 91,49 %
06.06.2017 14:00 19,9 C 23,3 C 83 % 1003,4 hPa 0,0 l/m 11,8 km/h (2 Bft) W-NW 284 0 min 0,000 mm 1,3 UV-I 181 W/m 16,9 C 18,0 C 19,3 km/h (3 Bft) 97,96 %
06.06.2017 14:02 19,8 C 23,3 C 84 % 1003,5 hPa 0,0 l/m 11,8 km/h (2 Bft) W-SW 243 0 min 0,305 mm 1,3 UV-I 192 W/m 17,0 C 17,9 C 24,1 km/h (4 Bft) 95,74 %
06.06.2017 14:04 19,7 C 23,3 C 84 % 1003,5 hPa 0,0 l/m 11,4 km/h (2 Bft) SW 235 0 min 0,000 mm 1,3 UV-I 186 W/m 16,9 C 17,9 C 19,3 km/h (3 Bft) 97,22 %
06.06.2017 14:06 19,7 C 23,3 C 84 % 1003,5 hPa 0,0 l/m 14,5 km/h (3 Bft) W 281 0 min 0,000 mm 1,5 UV-I 216 W/m 16,9 C 17,0 C 22,5 km/h (4 Bft) 93,62 %
06.06.2017 14:08 19,7 C 23,3 C 84 % 1003,5 hPa 0,0 l/m 13,5 km/h (3 Bft) SW 234 0 min 0,000 mm 1,6 UV-I 246 W/m 16,9 C 17,3 C 20,9 km/h (4 Bft) 98,00 %
06.06.2017 14:10 19,6 C 23,3 C 85 % 1003,5 hPa 0,0 l/m 11,8 km/h (2 Bft) W-SW 240 0 min 0,000 mm 1,4 UV-I 224 W/m 17,0 C 17,6 C 17,7 km/h (3 Bft) 95,74 %
06.06.2017 14:12 19,6 C 23,3 C 84 % 1003,5 hPa 0,0 l/m 9,2 km/h (2 Bft) W 277 0 min 0,000 mm 1,4 UV-I 224 W/m 16,8 C 18,5 C 16,1 km/h (3 Bft) 93,62 %
06.06.2017 14:14 19,6 C 23,3 C 85 % 1003,5 hPa 0,0 l/m 8,6 km/h (2 Bft) W-SW 254 0 min 0,000 mm 1,5 UV-I 233 W/m 17,0 C 18,7 C 17,7 km/h (3 Bft) 97,87 %
06.06.2017 14:16 19,6 C 23,3 C 84 % 1003,5 hPa 0,0 l/m 10,5 km/h (2 Bft) SW 218 0 min 0,000 mm 1,6 UV-I 242 W/m 16,8 C 18,0 C 19,3 km/h (3 Bft) 93,62 %
06.06.2017 14:18 19,6 C 23,3 C 83 % 1003,6 hPa 0,0 l/m 15,8 km/h (3 Bft) W-SW 242 0 min 0,000 mm 1,7 UV-I 252 W/m 16,6 C 16,6 C 20,9 km/h (4 Bft) 95,45 %
06.06.2017 14:20 19,6 C 23,3 C 83 % 1003,6 hPa 0,0 l/m 5,5 km/h (1 Bft) W 267 0 min 0,000 mm 1,6 UV-I 239 W/m 16,6 C 19,6 C 6,4 km/h (2 Bft) 100,00 %
06.06.2017 14:22 19,7 C 23,3 C 84 % 1003,6 hPa 0,0 l/m 8,7 km/h (2 Bft) W-SW 255 0 min 0,000 mm 1,4 UV-I 227 W/m 16,9 C 18,8 C 17,7 km/h (3 Bft) 98,11 %
06.06.2017 14:24 19,7 C 23,3 C 84 % 1003,6 hPa 0,0 l/m 12,3 km/h (3 Bft) SW 231 0 min 0,000 mm 1,9 UV-I 300 W/m 16,9 C 17,6 C 17,7 km/h (3 Bft) 100,00 %
06.06.2017 14:26 19,8 C 23,3 C 84 % 1003,5 hPa 0,0 l/m 14,3 km/h (3 Bft) SW 215 0 min 0,000 mm 1,9 UV-I 293 W/m 17,0 C 17,2 C 20,9 km/h (4 Bft) 98,21 %
06.06.2017 14:28 19,8 C 23,3 C 83 % 1003,5 hPa 0,0 l/m 11,4 km/h (2 Bft) W-SW 238 0 min 0,000 mm 1,8 UV-I 279 W/m 16,8 C 18,0 C 19,3 km/h (3 Bft) 100,00 %
06.06.2017 14:30 19,9 C 23,3 C 83 % 1003,5 hPa 0,0 l/m 9,1 km/h (2 Bft) W-SW 239 0 min 0,000 mm 2,0 UV-I 312 W/m 16,9 C 18,8 C 16,1 km/h (3 Bft) 94,74 %
06.06.2017 14:32 19,9 C 23,3 C 83 % 1003,5 hPa 0,0 l/m 10,9 km/h (2 Bft) W 259 0 min 0,000 mm 2,1 UV-I 319 W/m 16,9 C 18,2 C 19,3 km/h (3 Bft) 96,00 %
06.06.2017 14:34 19,9 C 23,3 C 83 % 1003,5 hPa 0,0 l/m 11,7 km/h (2 Bft) W 268 0 min 0,000 mm 1,9 UV-I 286 W/m 16,9 C 18,0 C 19,3 km/h (3 Bft) 97,37 %
06.06.2017 14:36 19,9 C 23,3 C 83 % 1003,5 hPa 0,0 l/m 8,0 km/h (2 Bft) W 277 0 min 0,000 mm 1,6 UV-I 248 W/m 16,9 C 19,2 C 16,1 km/h (3 Bft) 100,00 %
06.06.2017 14:38 20,0 C 23,3 C 83 % 1003,4 hPa 0,0 l/m 8,6 km/h (2 Bft) W-NW 294 0 min 0,000 mm 1,4 UV-I 214 W/m 17,0 C 19,1 C 16,1 km/h (3 Bft) 100,00 %
06.06.2017 14:40 19,9 C 23,3 C 82 % 1003,4 hPa 0,0 l/m 11,3 km/h (2 Bft) W-SW 253 0 min 0,000 mm 1,3 UV-I 199 W/m 16,7 C 18,1 C 22,5 km/h (4 Bft) 100,00 %
06.06.2017 14:42 19,9 C 23,3 C 82 % 1003,3 hPa 0,0 l/m 10,1 km/h (2 Bft) W 271 0 min 0,000 mm 1,2 UV-I 190 W/m 16,7 C 18,5 C 17,7 km/h (3 Bft) 100,00 %
06.06.2017 14:44 19,8 C 23,3 C 83 % 1003,3 hPa 0,0 l/m 10,4 km/h (2 Bft) W 269 0 min 0,000 mm 1,1 UV-I 174 W/m 16,8 C 18,3 C 19,3 km/h (3 Bft) 100,00 %
06.06.2017 14:46 19,8 C 23,3 C 83 % 1003,3 hPa 0,0 l/m 5,7 km/h (1 Bft) W-SW 238 0 min 0,000 mm 1,0 UV-I 159 W/m 16,8 C 19,8 C 12,9 km/h (3 Bft) 100,00 %
06.06.2017 14:48 19,7 C 23,3 C 83 % 1003,2 hPa 0,0 l/m 6,3 km/h (2 Bft) S-SW 197 0 min 0,000 mm 1,0 UV-I 159 W/m 16,7 C 19,7 C 12,9 km/h (3 Bft) 95,12 %
06.06.2017 14:50 19,7 C 23,3 C 83 % 1003,2 hPa 0,0 l/m 9,7 km/h (2 Bft) W 275 0 min 0,000 mm 1,0 UV-I 163 W/m 16,7 C 18,4 C 16,1 km/h (3 Bft) 94,64 %
06.06.2017 14:52 19,6 C 23,3 C 83 % 1003,1 hPa 0,0 l/m 7,1 km/h (2 Bft) SW 233 0 min 0,000 mm 1,0 UV-I 162 W/m 16,6 C 19,3 C 17,7 km/h (3 Bft) 96,00 %
06.06.2017 14:54 19,6 C 23,3 C 82 % 1003,1 hPa 0,0 l/m 7,6 km/h (2 Bft) SW 233 0 min 0,000 mm 1,0 UV-I 163 W/m 16,4 C 19,1 C 11,3 km/h (2 Bft) 95,45 %
06.06.2017 14:56 19,5 C 23,3 C 82 % 1003,0 hPa 0,0 l/m 9,6 km/h (2 Bft) SW 223 0 min 0,000 mm 1,0 UV-I 166 W/m 16,3 C 18,2 C 16,1 km/h (3 Bft) 97,87 %
06.06.2017 14:58 19,5 C 23,3 C 81 % 1003,0 hPa 0,0 l/m 13,0 km/h (3 Bft) W-SW 248 0 min 0,000 mm 1,0 UV-I 171 W/m 16,1 C 17,2 C 20,9 km/h (4 Bft) 94,59 %
06.06.2017 15:00 19,4 C 23,3 C 82 % 1003,0 hPa 0,0 l/m 12,8 km/h (3 Bft) SW 235 0 min 0,152 mm 1,1 UV-I 183 W/m 16,2 C 17,1 C 25,7 km/h (4 Bft) 98,11 %
06.06.2017 15:03 19,4 C 23,3 C 81 % 1003,0 hPa 0,0 l/m 11,1 km/h (2 Bft) W-SW 242 0 min 0,000 mm 1,3 UV-I 220 W/m 16,1 C 17,6 C 17,7 km/h (3 Bft) 94,12 %
06.06.2017 15:04 19,5 C 23,3 C 82 % 1003,0 hPa 0,0 l/m 10,9 km/h (2 Bft) W-SW 243 0 min 0,000 mm 1,6 UV-I 271 W/m 16,3 C 17,8 C 16,1 km/h (3 Bft) 93,10 %
06.06.2017 15:06 19,6 C 23,3 C 82 % 1003,0 hPa 0,0 l/m 7,4 km/h (2 Bft) W-SW 247 0 min 0,000 mm 1,9 UV-I 337 W/m 16,4 C 19,2 C 12,9 km/h (3 Bft) 97,37 %
06.06.2017 15:08 19,7 C 23,3 C 82 % 1003,1 hPa 0,0 l/m 8,0 km/h (2 Bft) W-SW 248 0 min 0,000 mm 2,0 UV-I 336 W/m 16,5 C 19,0 C 14,5 km/h (3 Bft) 96,43 %
06.06.2017 15:10 19,8 C 23,3 C 82 % 1003,1 hPa 0,0 l/m 6,7 km/h (2 Bft) SW 231 0 min 0,000 mm 1,9 UV-I 312 W/m 16,6 C 19,7 C 11,3 km/h (2 Bft) 98,00 %
06.06.2017 15:12 19,9 C 23,3 C 81 % 1003,2 hPa 0,0 l/m 4,4 km/h (1 Bft) SW 236 0 min 0,000 mm 1,8 UV-I 286 W/m 16,5 C 19,9 C 9,7 km/h (2 Bft) 97,44 %
06.06.2017 15:14 19,9 C 23,3 C 81 % 1003,2 hPa 0,0 l/m 8,8 km/h (2 Bft) SW 235 0 min 0,000 mm 1,6 UV-I 259 W/m 16,5 C 18,9 C 14,5 km/h (3 Bft) 98,00 %
06.06.2017 15:16 20,0 C 23,3 C 81 % 1003,2 hPa 0,0 l/m 10,4 km/h (2 Bft) W 273 0 min 0,000 mm 1,6 UV-I 268 W/m 16,6 C 18,5 C 16,1 km/h (3 Bft) 97,56 %
06.06.2017 15:18 20,0 C 23,3 C 80 % 1003,0 hPa 0,0 l/m 10,5 km/h (2 Bft) W 260 0 min 0,000 mm 1,8 UV-I 306 W/m 16,4 C 18,5 C 14,5 km/h (3 Bft) 97,87 %
06.06.2017 15:20 20,1 C 23,3 C 80 % 1003,0 hPa 0,0 l/m 7,9 km/h (2 Bft) W-SW 243 0 min 0,000 mm 1,9 UV-I 320 W/m 16,5 C 19,5 C 14,5 km/h (3 Bft) 98,11 %
06.06.2017 15:22 20,1 C 23,3 C 79 % 1003,0 hPa 0,0 l/m 8,4 km/h (2 Bft) SW 233 0 min 0,000 mm 1,8 UV-I 301 W/m 16,3 C 19,3 C 16,1 km/h (3 Bft) 96,00 %
06.06.2017 15:24 20,1 C 23,3 C 78 % 1003,1 hPa 0,0 l/m 9,7 km/h (2 Bft) W 267 0 min 0,000 mm 1,5 UV-I 245 W/m 16,1 C 18,8 C 16,1 km/h (3 Bft) 100,00 %
06.06.2017 15:26 20,1 C 23,3 C 79 % 1003,1 hPa 0,0 l/m 8,5 km/h (2 Bft) W-SW 257 0 min 0,000 mm 1,2 UV-I 207 W/m 16,3 C 19,3 C 12,9 km/h (3 Bft) 96,00 %
06.06.2017 15:28 20,1 C 23,3 C 80 % 1003,1 hPa 0,0 l/m 8,6 km/h (2 Bft) W 280 0 min 0,000 mm 1,2 UV-I 205 W/m 16,5 C 19,2 C 17,7 km/h (3 Bft) 98,11 %
06.06.2017 15:30 20,1 C 23,3 C 80 % 1003,0 hPa 0,0 l/m 8,4 km/h (2 Bft) W 263 0 min 0,000 mm 1,3 UV-I 234 W/m 16,5 C 19,3 C 16,1 km/h (3 Bft) 97,37 %
06.06.2017 15:32 20,1 C 23,3 C 80 % 1003,0 hPa 0,0 l/m 10,2 km/h (2 Bft) W-SW 249 0 min 0,000 mm 1,2 UV-I 218 W/m 16,5 C 18,7 C 20,9 km/h (4 Bft) 96,43 %
06.06.2017 15:34 20,1 C 23,3 C 79 % 1003,0 hPa 0,0 l/m 11,4 km/h (2 Bft) W-SW 249 0 min 0,000 mm 0,9 UV-I 154 W/m 16,3 C 18,3 C 14,5 km/h (3 Bft) 97,37 %
06.06.2017 15:36 20,1 C 23,3 C 79 % 1003,1 hPa 0,0 l/m 12,1 km/h (2 Bft) W 259 0 min 0,000 mm 0,3 UV-I 91 W/m 16,3 C 18,1 C 17,7 km/h (3 Bft) 98,21 %
06.06.2017 15:38 19,9 C 23,3 C 79 % 1003,1 hPa 0,0 l/m 15,3 km/h (3 Bft) W 271 0 min 0,000 mm 0,0 UV-I 53 W/m 16,1 C 17,1 C 22,5 km/h (4 Bft) 95,12 %
06.06.2017 15:40 19,8 C 23,3 C 79 % 1003,3 hPa 0,0 l/m 15,8 km/h (3 Bft) SW 233 0 min 0,000 mm 0,0 UV-I 33 W/m 16,0 C 16,8 C 25,7 km/h (4 Bft) 97,87 %
06.06.2017 15:42 19,7 C 23,3 C 80 % 1003,5 hPa 0,0 l/m 20,6 km/h (4 Bft) SW 220 0 min 0,000 mm 0,0 UV-I 20 W/m 16,1 C 15,7 C 40,2 km/h (6 Bft) 95,74 %
06.06.2017 15:44 19,4 C 23,3 C 80 % 1003,7 hPa 0,0 l/m 21,4 km/h (4 Bft) SW 217 0 min 0,000 mm 0,0 UV-I 16 W/m 15,9 C 15,2 C 29,0 km/h (5 Bft) 95,74 %
06.06.2017 15:46 19,0 C 23,3 C 82 % 1003,8 hPa 0,0 l/m 23,4 km/h (4 Bft) SW 236 0 min 0,000 mm 0,0 UV-I 22 W/m 15,9 C 14,3 C 38,6 km/h (5 Bft) 96,00 %
06.06.2017 15:48 18,4 C 23,3 C 84 % 1003,9 hPa 0,8 l/m 23,6 km/h (4 Bft) W-SW 255 0 min 0,000 mm 0,0 UV-I 47 W/m 15,6 C 13,5 C 37,0 km/h (5 Bft) 92,68 %
06.06.2017 15:50 17,9 C 23,3 C 86 % 1003,8 hPa 0,8 l/m 14,0 km/h (3 Bft) W-SW 255 0 min 0,000 mm 0,4 UV-I 92 W/m 15,5 C 15,0 C 29,0 km/h (5 Bft) 95,56 %
06.06.2017 15:52 17,4 C 23,3 C 88 % 1003,6 hPa 0,0 l/m 11,4 km/h (2 Bft) W-NW 285 0 min 0,000 mm 0,9 UV-I 147 W/m 15,4 C 15,2 C 17,7 km/h (3 Bft) 95,74 %
06.06.2017 15:54 17,2 C 23,3 C 90 % 1003,5 hPa 0,0 l/m 8,4 km/h (2 Bft) SW 233 0 min 0,000 mm 1,1 UV-I 187 W/m 15,5 C 16,2 C 17,7 km/h (3 Bft) 95,45 %
06.06.2017 15:56 17,1 C 23,9 C 92 % 1003,5 hPa 0,0 l/m 16,3 km/h (3 Bft) W-SW 246 0 min 0,000 mm 1,1 UV-I 197 W/m 15,8 C 13,4 C 24,1 km/h (4 Bft) 98,00 %
06.06.2017 15:58 17,1 C 23,9 C 92 % 1003,4 hPa 0,0 l/m 15,6 km/h (3 Bft) W-SW 250 0 min 0,000 mm 1,3 UV-I 220 W/m 15,8 C 13,6 C 22,5 km/h (4 Bft) 100,00 %
06.06.2017 16:00 17,1 C 23,9 C 92 % 1003,5 hPa 0,0 l/m 16,8 km/h (3 Bft) SW 231 0 min 0,000 mm 1,2 UV-I 212 W/m 15,8 C 13,2 C 24,1 km/h (4 Bft) 95,24 %
06.06.2017 16:02 17,1 C 23,9 C 93 % 1003,5 hPa 0,0 l/m 18,7 km/h (3 Bft) W 266 0 min 0,153 mm 0,9 UV-I 171 W/m 16,0 C 12,8 C 25,7 km/h (4 Bft) 96,36 %
06.06.2017 16:04 17,1 C 23,9 C 93 % 1003,6 hPa 0,0 l/m 13,0 km/h (3 Bft) W-SW 257 0 min 0,000 mm 0,7 UV-I 133 W/m 16,0 C 14,4 C 19,3 km/h (3 Bft) 97,56 %
06.06.2017 16:06 17,1 C 23,9 C 93 % 1003,7 hPa 0,0 l/m 15,3 km/h (3 Bft) W 259 0 min 0,000 mm 0,6 UV-I 114 W/m 16,0 C 13,6 C 27,4 km/h (4 Bft) 98,21 %
06.06.2017 16:08 17,1 C 23,9 C 93 % 1003,8 hPa 0,0 l/m 14,4 km/h (3 Bft) W 259 0 min 0,000 mm 0,5 UV-I 104 W/m 16,0 C 13,9 C 20,9 km/h (4 Bft) 93,10 %
06.06.2017 16:10 17,1 C 23,9 C 93 % 1003,7 hPa 0,0 l/m 15,8 km/h (3 Bft) W 273 0 min 0,000 mm 0,3 UV-I 89 W/m 16,0 C 13,5 C 20,9 km/h (4 Bft) 98,28 %
06.06.2017 16:12 17,0 C 23,9 C 93 % 1003,7 hPa 0,0 l/m 11,3 km/h (2 Bft) W-SW 255 0 min 0,000 mm 0,0 UV-I 77 W/m 15,9 C 14,8 C 16,1 km/h (3 Bft) 98,11 %
06.06.2017 16:14 16,9 C 23,9 C 93 % 1003,7 hPa 0,0 l/m 9,3 km/h (2 Bft) W-SW 237 0 min 0,000 mm 0,0 UV-I 74 W/m 15,8 C 15,5 C 14,5 km/h (3 Bft) 97,87 %
06.06.2017 16:16 16,9 C 23,9 C 93 % 1003,7 hPa 0,0 l/m 8,2 km/h (2 Bft) W-SW 241 0 min 0,000 mm 0,0 UV-I 62 W/m 15,8 C 16,0 C 14,5 km/h (3 Bft) 96,00 %
06.06.2017 16:18 16,9 C 23,9 C 93 % 1003,7 hPa 0,0 l/m 11,2 km/h (2 Bft) W-NW 289 0 min 0,000 mm 0,0 UV-I 62 W/m 15,8 C 14,8 C 17,7 km/h (3 Bft) 97,56 %
06.06.2017 16:20 16,9 C 23,9 C 93 % 1003,8 hPa 0,0 l/m 13,5 km/h (3 Bft) SW 219 0 min 0,000 mm 0,0 UV-I 52 W/m 15,8 C 14,0 C 19,3 km/h (3 Bft) 98,00 %
06.06.2017 16:22 16,9 C 23,9 C 93 % 1003,8 hPa 0,0 l/m 16,7 km/h (3 Bft) W-SW 243 0 min 0,000 mm 0,0 UV-I 62 W/m 15,8 C 13,0 C 27,4 km/h (4 Bft) 100,00 %
06.06.2017 16:24 16,9 C 23,9 C 93 % 1003,8 hPa 0,0 l/m 17,1 km/h (3 Bft) W 279 0 min 0,000 mm 0,6 UV-I 152 W/m 15,8 C 12,9 C 24,1 km/h (4 Bft) 97,87 %
06.06.2017 16:26 16,9 C 23,9 C 93 % 1003,7 hPa 0,0 l/m 14,6 km/h (3 Bft) W-SW 245 0 min 0,000 mm 1,2 UV-I 239 W/m 15,8 C 13,6 C 25,7 km/h (4 Bft) 100,00 %
06.06.2017 16:28 16,9 C 23,9 C 93 % 1003,8 hPa 0,0 l/m 17,3 km/h (3 Bft) W-SW 246 0 min 0,000 mm 0,9 UV-I 182 W/m 15,8 C 12,9 C 25,7 km/h (4 Bft) 97,50 %
06.06.2017 16:30 16,9 C 23,3 C 92 % 1003,8 hPa 0,0 l/m 13,7 km/h (3 Bft) SW 232 0 min 0,000 mm 0,5 UV-I 114 W/m 15,6 C 13,9 C 24,1 km/h (4 Bft) 100,00 %
06.06.2017 16:32 16,8 C 23,9 C 91 % 1003,8 hPa 0,0 l/m 16,9 km/h (3 Bft) SW 227 0 min 0,000 mm 0,5 UV-I 114 W/m 15,3 C 12,8 C 22,5 km/h (4 Bft) 100,00 %
06.06.2017 16:34 16,8 C 23,3 C 92 % 1003,9 hPa 0,0 l/m 20,0 km/h (4 Bft) SW 236 0 min 0,000 mm 0,5 UV-I 110 W/m 15,5 C 12,1 C 37,0 km/h (5 Bft) 95,12 %
06.06.2017 16:36 16,7 C 23,3 C 91 % 1004,0 hPa 0,0 l/m 17,7 km/h (3 Bft) W 265 0 min 0,000 mm 0,5 UV-I 113 W/m 15,2 C 12,5 C 25,7 km/h (4 Bft) 100,00 %
06.06.2017 16:38 16,7 C 23,3 C 90 % 1003,9 hPa 0,0 l/m 18,5 km/h (3 Bft) W-SW 246 0 min 0,000 mm 0,6 UV-I 135 W/m 15,0 C 12,3 C 22,5 km/h (4 Bft) 100,00 %
06.06.2017 16:40 16,6 C 23,3 C 90 % 1003,9 hPa 0,0 l/m 15,7 km/h (3 Bft) W 260 0 min 0,000 mm 0,8 UV-I 170 W/m 15,0 C 12,9 C 20,9 km/h (4 Bft) 100,00 %
06.06.2017 16:42 16,6 C 23,3 C 90 % 1003,8 hPa 0,0 l/m 15,2 km/h (3 Bft) W-SW 242 0 min 0,000 mm 1,0 UV-I 204 W/m 15,0 C 13,1 C 22,5 km/h (4 Bft) 97,87 %
06.06.2017 16:44 16,6 C 23,3 C 90 % 1003,8 hPa 0,0 l/m 16,0 km/h (3 Bft) W 276 0 min 0,000 mm 0,9 UV-I 198 W/m 15,0 C 12,8 C 25,7 km/h (4 Bft) 100,00 %
06.06.2017 16:46 16,6 C 23,3 C 90 % 1003,8 hPa 0,0 l/m 16,6 km/h (3 Bft) W-SW 255 0 min 0,000 mm 0,8 UV-I 177 W/m 15,0 C 12,7 C 25,7 km/h (4 Bft) 100,00 %
06.06.2017 16:48 16,6 C 23,3 C 90 % 1004,0 hPa 0,0 l/m 17,0 km/h (3 Bft) W-SW 257 0 min 0,000 mm 0,7 UV-I 162 W/m 15,0 C 12,6 C 29,0 km/h (5 Bft) 98,11 %
06.06.2017 16:50 16,6 C 23,3 C 90 % 1004,0 hPa 0,0 l/m 15,2 km/h (3 Bft) W 259 0 min 0,000 mm 0,6 UV-I 142 W/m 15,0 C 13,1 C 22,5 km/h (4 Bft) 100,00 %
06.06.2017 16:52 16,6 C 23,3 C 89 % 1004,0 hPa 0,0 l/m 17,7 km/h (3 Bft) W-SW 254 0 min 0,000 mm 0,6 UV-I 128 W/m 14,8 C 12,4 C 24,1 km/h (4 Bft) 100,00 %
06.06.2017 16:54 16,6 C 23,3 C 90 % 1004,0 hPa 0,0 l/m 13,1 km/h (3 Bft) W-SW 252 0 min 0,000 mm 0,4 UV-I 112 W/m 15,0 C 13,7 C 20,9 km/h (4 Bft) 98,11 %
06.06.2017 16:56 16,6 C 23,3 C 90 % 1003,9 hPa 0,0 l/m 16,6 km/h (3 Bft) W-SW 241 0 min 0,000 mm 0,1 UV-I 106 W/m 15,0 C 12,7 C 20,9 km/h (4 Bft) 100,00 %
06.06.2017 16:58 16,6 C 23,3 C 90 % 1003,9 hPa 0,0 l/m 13,4 km/h (3 Bft) W-SW 247 0 min 0,000 mm 0,5 UV-I 114 W/m 15,0 C 13,6 C 17,7 km/h (3 Bft) 97,56 %
06.06.2017 17:00 16,6 C 23,3 C 89 % 1003,9 hPa 0,0 l/m 14,4 km/h (3 Bft) W-SW 244 0 min 0,000 mm 0,5 UV-I 122 W/m 14,8 C 13,3 C 17,7 km/h (3 Bft) 100,00 %
06.06.2017 17:02 16,6 C 23,3 C 89 % 1004,0 hPa 0,0 l/m 17,6 km/h (3 Bft) W-SW 258 0 min 0,076 mm 0,5 UV-I 120 W/m 14,8 C 12,4 C 22,5 km/h (4 Bft) 100,00 %
06.06.2017 17:04 16,6 C 23,3 C 89 % 1004,0 hPa 0,0 l/m 17,3 km/h (3 Bft) W-SW 246 0 min 0,000 mm 0,5 UV-I 114 W/m 14,8 C 12,5 C 25,7 km/h (4 Bft) 100,00 %
06.06.2017 17:06 16,6 C 23,3 C 89 % 1004,0 hPa 0,0 l/m 18,3 km/h (3 Bft) W-SW 253 0 min 0,000 mm 0,5 UV-I 110 W/m 14,8 C 12,2 C 24,1 km/h (4 Bft) 95,08 %
06.06.2017 17:08 16,6 C 23,3 C 89 % 1004,1 hPa 0,0 l/m 19,4 km/h (3 Bft) W 274 0 min 0,000 mm 0,0 UV-I 103 W/m 14,8 C 12,0 C 27,4 km/h (4 Bft) 97,44 %
06.06.2017 17:10 16,5 C 23,3 C 89 % 1004,1 hPa 0,0 l/m 16,2 km/h (3 Bft) W 260 0 min 0,000 mm 0,0 UV-I 89 W/m 14,7 C 12,7 C 40,2 km/h (6 Bft) 100,00 %
06.06.2017 17:12 16,5 C 23,3 C 87 % 1004,2 hPa 0,0 l/m 26,6 km/h (4 Bft) W-SW 254 0 min 0,000 mm 0,0 UV-I 74 W/m 14,3 C 10,4 C 45,1 km/h (6 Bft) 100,00 %
06.06.2017 17:14 16,4 C 23,3 C 86 % 1004,2 hPa 0,0 l/m 20,2 km/h (4 Bft) W-SW 255 0 min 0,000 mm 0,0 UV-I 63 W/m 14,1 C 11,5 C 32,2 km/h (5 Bft) 100,00 %
06.06.2017 17:16 16,4 C 23,3 C 87 % 1004,3 hPa 0,0 l/m 13,4 km/h (3 Bft) W-NW 282 0 min 0,000 mm 0,0 UV-I 64 W/m 14,2 C 13,4 C 19,3 km/h (3 Bft) 97,73 %
06.06.2017 17:18 16,4 C 23,3 C 87 % 1004,3 hPa 0,0 l/m 13,9 km/h (3 Bft) W 264 0 min 0,000 mm 0,0 UV-I 69 W/m 14,2 C 13,2 C 19,3 km/h (3 Bft) 100,00 %
06.06.2017 17:20 16,3 C 23,3 C 87 % 1004,4 hPa 0,2 l/m 18,4 km/h (3 Bft) SW 236 0 min 0,000 mm 0,0 UV-I 68 W/m 14,1 C 11,8 C 30,6 km/h (5 Bft) 100,00 %
06.06.2017 17:22 16,2 C 23,3 C 85 % 1004,4 hPa 0,0 l/m 14,8 km/h (3 Bft) W 259 0 min 0,000 mm 0,0 UV-I 54 W/m 13,7 C 12,7 C 24,1 km/h (4 Bft) 100,00 %
06.06.2017 17:24 16,2 C 23,3 C 84 % 1004,6 hPa 0,0 l/m 19,1 km/h (3 Bft) W 269 0 min 0,000 mm 0,0 UV-I 41 W/m 13,5 C 11,5 C 29,0 km/h (5 Bft) 100,00 %
06.06.2017 17:26 16,1 C 23,3 C 83 % 1004,6 hPa 0,0 l/m 18,3 km/h (3 Bft) W-SW 249 0 min 0,000 mm 0,0 UV-I 32 W/m 13,2 C 11,6 C 32,2 km/h (5 Bft) 100,00 %
06.06.2017 17:28 16,0 C 23,3 C 83 % 1004,6 hPa 0,0 l/m 21,8 km/h (4 Bft) W-SW 255 0 min 0,000 mm 0,0 UV-I 26 W/m 13,1 C 10,6 C 32,2 km/h (5 Bft) 100,00 %
06.06.2017 17:30 15,9 C 23,3 C 82 % 1004,6 hPa 0,0 l/m 22,0 km/h (4 Bft) W 269 0 min 0,000 mm 0,0 UV-I 21 W/m 12,8 C 10,4 C 33,8 km/h (5 Bft) 100,00 %
06.06.2017 17:32 15,8 C 23,3 C 83 % 1004,7 hPa 0,0 l/m 18,9 km/h (3 Bft) W-SW 254 0 min 0,000 mm 0,0 UV-I 19 W/m 12,9 C 11,1 C 32,2 km/h (5 Bft) 100,00 %
06.06.2017 17:34 15,7 C 23,3 C 83 % 1004,8 hPa 0,0 l/m 22,0 km/h (4 Bft) SW 231 0 min 0,000 mm 0,0 UV-I 18 W/m 12,8 C 10,2 C 33,8 km/h (5 Bft) 98,15 %
06.06.2017 17:36 15,7 C 23,3 C 83 % 1005,0 hPa 0,0 l/m 20,8 km/h (4 Bft) W-SW 258 0 min 0,000 mm 0,0 UV-I 18 W/m 12,8 C 10,5 C 30,6 km/h (5 Bft) 100,00 %
06.06.2017 17:38 15,6 C 23,3 C 84 % 1005,2 hPa 0,0 l/m 21,8 km/h (4 Bft) W-SW 251 0 min 0,000 mm 0,0 UV-I 18 W/m 12,9 C 10,1 C 32,2 km/h (5 Bft) 97,56 %
06.06.2017 17:40 15,6 C 23,3 C 83 % 1005,3 hPa 0,0 l/m 31,1 km/h (5 Bft) W 269 0 min 0,000 mm 0,0 UV-I 19 W/m 12,7 C 8,4 C 43,5 km/h (6 Bft) 98,21 %
06.06.2017 17:42 15,4 C 23,3 C 84 % 1005,4 hPa 0,0 l/m 20,5 km/h (4 Bft) W-SW 246 0 min 0,000 mm 0,0 UV-I 18 W/m 12,7 C 10,1 C 32,2 km/h (5 Bft) 100,00 %
06.06.2017 17:44 15,4 C 23,3 C 85 % 1005,6 hPa 0,2 l/m 22,9 km/h (4 Bft) W-SW 239 0 min 0,000 mm 0,0 UV-I 16 W/m 12,9 C 9,6 C 32,2 km/h (5 Bft) 100,00 %
06.06.2017 17:46 15,3 C 23,3 C 85 % 1005,8 hPa 0,0 l/m 20,0 km/h (4 Bft) SW 223 0 min 0,000 mm 0,0 UV-I 14 W/m 12,8 C 10,1 C 32,2 km/h (5 Bft) 97,56 %
06.06.2017 17:48 15,2 C 23,3 C 87 % 1006,0 hPa 0,2 l/m 23,2 km/h (4 Bft) W 265 0 min 0,000 mm 0,0 UV-I 12 W/m 13,0 C 9,3 C 35,4 km/h (5 Bft) 100,00 %
06.06.2017 17:50 15,2 C 23,3 C 87 % 1006,2 hPa 0,2 l/m 25,0 km/h (4 Bft) W 262 0 min 0,000 mm 0,0 UV-I 11 W/m 13,0 C 8,9 C 38,6 km/h (5 Bft) 95,89 %
06.06.2017 17:52 15,1 C 23,3 C 87 % 1006,5 hPa 0,6 l/m 23,5 km/h (4 Bft) W 272 0 min 0,000 mm 0,0 UV-I 12 W/m 13,0 C 9,1 C 40,2 km/h (6 Bft) 94,87 %
06.06.2017 17:54 14,9 C 23,3 C 88 % 1006,6 hPa 0,4 l/m 26,0 km/h (4 Bft) W-SW 256 0 min 0,000 mm 0,0 UV-I 13 W/m 12,9 C 8,3 C 40,2 km/h (6 Bft) 96,23 %
06.06.2017 17:56 14,7 C 23,3 C 88 % 1006,8 hPa 0,4 l/m 21,3 km/h (4 Bft) W-SW 249 0 min 0,000 mm 0,0 UV-I 12 W/m 12,7 C 9,0 C 29,0 km/h (5 Bft) 97,14 %
06.06.2017 17:58 14,7 C 23,3 C 89 % 1006,8 hPa 0,2 l/m 16,1 km/h (3 Bft) W-SW 245 0 min 0,000 mm 0,0 UV-I 11 W/m 12,9 C 10,5 C 29,0 km/h (5 Bft) 98,31 %
06.06.2017 18:00 14,6 C 23,3 C 90 % 1006,8 hPa 0,4 l/m 16,3 km/h (3 Bft) W-NW 286 0 min 0,000 mm 0,0 UV-I 13 W/m 13,0 C 10,3 C 32,2 km/h (5 Bft) 97,62 %
06.06.2017 18:02 14,4 C 23,3 C 91 % 1006,5 hPa 0,2 l/m 15,9 km/h (3 Bft) W-SW 239 0 min 0,051 mm 0,0 UV-I 16 W/m 12,9 C 10,2 C 25,7 km/h (4 Bft) 95,74 %
06.06.2017 18:04 14,4 C 23,3 C 91 % 1006,4 hPa 0,2 l/m 12,1 km/h (2 Bft) W 270 0 min 0,000 mm 0,0 UV-I 14 W/m 12,9 C 11,5 C 20,9 km/h (4 Bft) 95,12 %
06.06.2017 18:06 14,4 C 23,3 C 92 % 1006,2 hPa 0,4 l/m 8,1 km/h (2 Bft) W-SW 250 0 min 0,000 mm 0,0 UV-I 12 W/m 13,1 C 13,4 C 17,7 km/h (3 Bft) 98,25 %
06.06.2017 18:08 14,3 C 23,3 C 92 % 1006,3 hPa 0,2 l/m 11,7 km/h (2 Bft) W 281 0 min 0,000 mm 0,0 UV-I 12 W/m 13,0 C 11,6 C 14,5 km/h (3 Bft) 98,00 %
06.06.2017 18:10 14,3 C 23,3 C 92 % 1006,3 hPa 0,2 l/m 9,1 km/h (2 Bft) W-SW 258 0 min 0,000 mm 0,0 UV-I 12 W/m 13,0 C 12,8 C 14,5 km/h (3 Bft) 97,14 %
06.06.2017 18:13 14,2 C 23,3 C 92 % 1006,4 hPa 0,4 l/m 14,5 km/h (3 Bft) S-SW 199 0 min 0,000 mm 0,0 UV-I 12 W/m 12,9 C 10,4 C 24,1 km/h (4 Bft) 97,65 %
06.06.2017 18:14 14,2 C 23,3 C 92 % 1006,4 hPa 0,0 l/m 15,0 km/h (3 Bft) W-SW 256 0 min 0,000 mm 0,0 UV-I 12 W/m 12,9 C 10,2 C 24,1 km/h (4 Bft) 100,00 %
06.06.2017 18:16 14,1 C 23,3 C 92 % 1006,7 hPa 0,2 l/m 14,0 km/h (3 Bft) W-SW 244 0 min 0,000 mm 0,0 UV-I 12 W/m 12,8 C 10,5 C 19,3 km/h (3 Bft) 95,74 %
06.06.2017 18:18 14,1 C 23,3 C 92 % 1006,9 hPa 0,2 l/m 12,1 km/h (2 Bft) SW 235 0 min 0,000 mm 0,0 UV-I 12 W/m 12,8 C 11,2 C 16,1 km/h (3 Bft) 97,73 %
06.06.2017 18:20 14,1 C 23,3 C 93 % 1006,8 hPa 0,0 l/m 9,5 km/h (2 Bft) S-SW 213 0 min 0,000 mm 0,0 UV-I 12 W/m 13,0 C 12,4 C 16,1 km/h (3 Bft) 98,00 %
06.06.2017 18:22 14,0 C 23,3 C 93 % 1007,0 hPa 0,2 l/m 11,0 km/h (2 Bft) W-SW 257 0 min 0,000 mm 0,0 UV-I 11 W/m 12,9 C 11,6 C 17,7 km/h (3 Bft) 100,00 %
06.06.2017 18:24 14,0 C 23,3 C 93 % 1007,0 hPa 0,0 l/m 14,4 km/h (3 Bft) W 279 0 min 0,000 mm 0,0 UV-I 9 W/m 12,9 C 10,2 C 20,9 km/h (4 Bft) 97,73 %
06.06.2017 18:26 14,0 C 23,3 C 93 % 1006,9 hPa 0,2 l/m 11,9 km/h (2 Bft) W-SW 254 0 min 0,000 mm 0,0 UV-I 10 W/m 12,9 C 11,2 C 16,1 km/h (3 Bft) 95,45 %
06.06.2017 18:28 14,0 C 23,3 C 93 % 1006,8 hPa 0,0 l/m 9,8 km/h (2 Bft) W-SW 246 0 min 0,000 mm 0,0 UV-I 13 W/m 12,9 C 12,1 C 16,1 km/h (3 Bft) 98,11 %
06.06.2017 18:30 14,0 C 23,3 C 93 % 1006,7 hPa 0,0 l/m 9,5 km/h (2 Bft) W-SW 240 0 min 0,000 mm 0,0 UV-I 17 W/m 12,9 C 12,3 C 12,9 km/h (3 Bft) 100,00 %
06.06.2017 18:32 14,0 C 23,3 C 94 % 1006,7 hPa 0,0 l/m 7,5 km/h (2 Bft) W-SW 248 0 min 0,000 mm 0,0 UV-I 22 W/m 13,0 C 13,3 C 12,9 km/h (3 Bft) 96,00 %
06.06.2017 18:34 14,0 C 23,3 C 94 % 1006,6 hPa 0,0 l/m 10,2 km/h (2 Bft) W-SW 245 0 min 0,000 mm 0,0 UV-I 24 W/m 13,0 C 11,9 C 17,7 km/h (3 Bft) 95,45 %
06.06.2017 18:36 14,0 C 23,3 C 94 % 1006,7 hPa 0,0 l/m 10,1 km/h (2 Bft) SW 227 0 min 0,000 mm 0,0 UV-I 20 W/m 13,0 C 12,0 C 14,5 km/h (3 Bft) 95,74 %
06.06.2017 18:38 14,0 C 23,3 C 94 % 1006,8 hPa 0,0 l/m 12,3 km/h (3 Bft) W-SW 243 0 min 0,000 mm 0,0 UV-I 18 W/m 13,0 C 11,0 C 16,1 km/h (3 Bft) 96,23 %
06.06.2017 18:40 14,0 C 23,3 C 94 % 1006,9 hPa 0,0 l/m 13,7 km/h (3 Bft) SW 230 0 min 0,000 mm 0,0 UV-I 15 W/m 13,0 C 10,4 C 19,3 km/h (3 Bft) 97,37 %
06.06.2017 18:42 13,9 C 23,3 C 94 % 1007,0 hPa 0,0 l/m 14,7 km/h (3 Bft) W-SW 249 0 min 0,000 mm 0,0 UV-I 14 W/m 12,9 C 10,0 C 24,1 km/h (4 Bft) 97,56 %
06.06.2017 18:44 13,9 C 23,3 C 94 % 1007,0 hPa 0,0 l/m 12,0 km/h (2 Bft) W 279 0 min 0,000 mm 0,0 UV-I 18 W/m 12,9 C 11,0 C 16,1 km/h (3 Bft) 98,21 %
06.06.2017 18:46 13,9 C 23,3 C 94 % 1007,1 hPa 0,0 l/m 14,2 km/h (3 Bft) W-SW 257 0 min 0,000 mm 0,0 UV-I 21 W/m 12,9 C 10,1 C 24,1 km/h (4 Bft) 92,11 %
06.06.2017 18:48 13,9 C 23,3 C 94 % 1007,2 hPa 0,0 l/m 18,8 km/h (3 Bft) SW 231 0 min 0,000 mm 0,0 UV-I 18 W/m 12,9 C 8,7 C 27,4 km/h (4 Bft) 96,43 %
06.06.2017 18:50 13,9 C 23,3 C 94 % 1007,2 hPa 0,0 l/m 13,9 km/h (3 Bft) SW 226 0 min 0,000 mm 0,0 UV-I 18 W/m 12,9 C 10,3 C 22,5 km/h (4 Bft) 94,00 %
06.06.2017 18:52 13,9 C 23,3 C 94 % 1007,3 hPa 0,0 l/m 19,1 km/h (3 Bft) W-SW 250 0 min 0,000 mm 0,0 UV-I 19 W/m 12,9 C 8,6 C 27,4 km/h (4 Bft) 93,18 %
06.06.2017 18:54 13,9 C 23,3 C 94 % 1007,2 hPa 0,0 l/m 13,2 km/h (3 Bft) W-SW 240 0 min 0,000 mm 0,0 UV-I 19 W/m 12,9 C 10,5 C 20,9 km/h (4 Bft) 93,18 %
06.06.2017 18:56 13,9 C 23,3 C 94 % 1007,1 hPa 0,0 l/m 14,1 km/h (3 Bft) S-SW 200 0 min 0,000 mm 0,0 UV-I 21 W/m 12,9 C 10,2 C 20,9 km/h (4 Bft) 96,30 %
06.06.2017 18:58 13,9 C 23,3 C 94 % 1007,2 hPa 0,0 l/m 13,3 km/h (3 Bft) W 261 0 min 0,000 mm 0,0 UV-I 22 W/m 12,9 C 10,5 C 19,3 km/h (3 Bft) 97,14 %
06.06.2017 19:00 13,9 C 23,3 C 94 % 1007,2 hPa 0,0 l/m 13,6 km/h (3 Bft) SW 216 0 min 0,000 mm 0,0 UV-I 25 W/m 12,9 C 10,4 C 22,5 km/h (4 Bft) 97,87 %
06.06.2017 19:02 13,9 C 23,3 C 94 % 1007,2 hPa 0,2 l/m 11,9 km/h (2 Bft) W-SW 242 0 min 0,025 mm 0,0 UV-I 26 W/m 12,9 C 11,0 C 17,7 km/h (3 Bft) 96,23 %
06.06.2017 19:04 13,9 C 23,3 C 94 % 1007,3 hPa 0,0 l/m 12,2 km/h (2 Bft) SW 220 0 min 0,000 mm 0,0 UV-I 26 W/m 12,9 C 10,9 C 17,7 km/h (3 Bft) 97,62 %
06.06.2017 19:06 13,9 C 23,3 C 94 % 1007,2 hPa 0,0 l/m 13,7 km/h (3 Bft) W-SW 242 0 min 0,000 mm 0,0 UV-I 25 W/m 12,9 C 10,3 C 19,3 km/h (3 Bft) 97,14 %
06.06.2017 19:08 14,0 C 23,3 C 94 % 1007,3 hPa 0,0 l/m 12,3 km/h (3 Bft) SW 229 0 min 0,000 mm 0,0 UV-I 27 W/m 13,0 C 11,0 C 17,7 km/h (3 Bft) 95,52 %
06.06.2017 19:10 14,0 C 23,3 C 94 % 1007,4 hPa 0,0 l/m 10,9 km/h (2 Bft) SW 233 0 min 0,000 mm 0,0 UV-I 28 W/m 13,0 C 11,6 C 16,1 km/h (3 Bft) 94,44 %
06.06.2017 19:12 14,0 C 23,3 C 94 % 1007,5 hPa 0,0 l/m 10,6 km/h (2 Bft) SW 216 0 min 0,000 mm 0,0 UV-I 28 W/m 13,0 C 11,7 C 16,1 km/h (3 Bft) 96,23 %
06.06.2017 19:14 14,0 C 23,3 C 94 % 1007,5 hPa 0,0 l/m 10,6 km/h (2 Bft) S-SW 205 0 min 0,000 mm 0,0 UV-I 31 W/m 13,0 C 11,7 C 16,1 km/h (3 Bft) 93,18 %
06.06.2017 19:16 14,1 C 23,3 C 94 % 1007,6 hPa 0,0 l/m 10,3 km/h (2 Bft) W-SW 239 0 min 0,000 mm 0,0 UV-I 31 W/m 13,1 C 12,0 C 14,5 km/h (3 Bft) 96,43 %
06.06.2017 19:18 14,1 C 23,3 C 94 % 1007,6 hPa 0,0 l/m 12,6 km/h (3 Bft) W-SW 252 0 min 0,000 mm 0,0 UV-I 29 W/m 13,1 C 11,0 C 17,7 km/h (3 Bft) 97,37 %
06.06.2017 19:20 14,0 C 23,3 C 94 % 1007,7 hPa 0,0 l/m 18,8 km/h (3 Bft) W-SW 243 0 min 0,000 mm 0,0 UV-I 29 W/m 13,0 C 8,8 C 24,1 km/h (4 Bft) 94,34 %
06.06.2017 19:22 13,9 C 23,3 C 94 % 1007,6 hPa 0,0 l/m 17,4 km/h (3 Bft) SW 223 0 min 0,000 mm 0,0 UV-I 30 W/m 12,9 C 9,1 C 29,0 km/h (5 Bft) 95,74 %
06.06.2017 19:24 13,9 C 23,3 C 94 % 1007,6 hPa 0,0 l/m 13,2 km/h (3 Bft) SW 216 0 min 0,000 mm 0,0 UV-I 36 W/m 12,9 C 10,5 C 19,3 km/h (3 Bft) 92,68 %
06.06.2017 19:26 13,9 C 23,3 C 94 % 1007,6 hPa 0,0 l/m 11,4 km/h (2 Bft) SW 224 0 min 0,000 mm 0,0 UV-I 40 W/m 12,9 C 11,3 C 19,3 km/h (3 Bft) 93,18 %
06.06.2017 19:28 13,9 C 23,3 C 94 % 1007,7 hPa 0,2 l/m 9,9 km/h (2 Bft) SW 225 0 min 0,000 mm 0,0 UV-I 44 W/m 12,9 C 12,0 C 14,5 km/h (3 Bft) 96,43 %
06.06.2017 19:30 13,9 C 23,3 C 94 % 1007,7 hPa 0,0 l/m 12,8 km/h (3 Bft) W-SW 256 0 min 0,000 mm 0,0 UV-I 46 W/m 12,9 C 10,7 C 19,3 km/h (3 Bft) 89,47 %
06.06.2017 19:32 13,9 C 23,3 C 94 % 1007,8 hPa 0,0 l/m 15,7 km/h (3 Bft) SW 228 0 min 0,000 mm 0,0 UV-I 47 W/m 12,9 C 9,6 C 22,5 km/h (4 Bft) 96,43 %
06.06.2017 19:34 13,9 C 23,3 C 94 % 1007,8 hPa 0,0 l/m 10,6 km/h (2 Bft) W 272 0 min 0,000 mm 0,0 UV-I 46 W/m 12,9 C 11,6 C 17,7 km/h (3 Bft) 95,74 %
06.06.2017 19:36 13,9 C 23,3 C 94 % 1007,9 hPa 0,0 l/m 16,5 km/h (3 Bft) W-SW 248 0 min 0,000 mm 0,0 UV-I 47 W/m 12,9 C 9,4 C 25,7 km/h (4 Bft) 97,37 %
06.06.2017 19:38 14,0 C 23,3 C 94 % 1007,8 hPa 0,0 l/m 14,1 km/h (3 Bft) SW 219 0 min 0,000 mm 0,0 UV-I 48 W/m 13,0 C 10,3 C 22,5 km/h (4 Bft) 96,00 %
06.06.2017 19:40 14,0 C 23,3 C 94 % 1007,9 hPa 0,0 l/m 17,0 km/h (3 Bft) W-SW 239 0 min 0,000 mm 0,0 UV-I 42 W/m 13,0 C 9,3 C 25,7 km/h (4 Bft) 100,00 %
06.06.2017 19:42 14,1 C 23,3 C 94 % 1007,9 hPa 0,0 l/m 12,8 km/h (3 Bft) SW 222 0 min 0,000 mm 0,0 UV-I 35 W/m 13,1 C 10,9 C 17,7 km/h (3 Bft) 98,00 %
06.06.2017 19:44 14,0 C 23,3 C 94 % 1007,9 hPa 0,0 l/m 14,1 km/h (3 Bft) SW 221 0 min 0,000 mm 0,0 UV-I 27 W/m 13,0 C 10,3 C 22,5 km/h (4 Bft) 97,73 %
06.06.2017 19:46 14,1 C 23,3 C 94 % 1007,9 hPa 0,0 l/m 11,6 km/h (2 Bft) SW 227 0 min 0,000 mm 0,0 UV-I 23 W/m 13,1 C 11,4 C 19,3 km/h (3 Bft) 94,00 %
06.06.2017 19:48 14,0 C 23,3 C 94 % 1007,9 hPa 0,0 l/m 12,6 km/h (3 Bft) SW 219 0 min 0,000 mm 0,0 UV-I 21 W/m 13,0 C 10,9 C 19,3 km/h (3 Bft) 94,87 %
06.06.2017 19:50 14,1 C 23,3 C 93 % 1007,9 hPa 0,0 l/m 12,6 km/h (3 Bft) W-SW 251 0 min 0,000 mm 0,0 UV-I 21 W/m 13,0 C 11,0 C 19,3 km/h (3 Bft) 93,18 %
06.06.2017 19:52 14,0 C 23,3 C 94 % 1007,9 hPa 0,0 l/m 14,7 km/h (3 Bft) SW 228 0 min 0,000 mm 0,0 UV-I 18 W/m 13,0 C 10,1 C 24,1 km/h (4 Bft) 98,21 %
06.06.2017 19:54 14,0 C 23,3 C 94 % 1008,0 hPa 0,0 l/m 14,8 km/h (3 Bft) W-SW 238 0 min 0,000 mm 0,0 UV-I 16 W/m 13,0 C 10,1 C 27,4 km/h (4 Bft) 93,48 %
06.06.2017 19:56 14,0 C 22,8 C 93 % 1008,0 hPa 0,0 l/m 16,0 km/h (3 Bft) W-SW 242 0 min 0,000 mm 0,0 UV-I 13 W/m 12,9 C 9,6 C 24,1 km/h (4 Bft) 97,56 %
06.06.2017 19:58 13,9 C 22,8 C 93 % 1008,0 hPa 0,0 l/m 20,0 km/h (4 Bft) SW 215 0 min 0,000 mm 0,0 UV-I 13 W/m 12,8 C 8,3 C 32,2 km/h (5 Bft) 98,21 %
06.06.2017 20:00 13,9 C 22,8 C 93 % 1008,1 hPa 0,0 l/m 21,8 km/h (4 Bft) SW 217 0 min 0,025 mm 0,0 UV-I 15 W/m 12,8 C 7,9 C 38,6 km/h (5 Bft) 97,62 %
06.06.2017 20:02 13,9 C 22,8 C 92 % 1008,1 hPa 0,0 l/m 22,5 km/h (4 Bft) W 264 0 min 0,000 mm 0,0 UV-I 17 W/m 12,6 C 7,7 C 40,2 km/h (6 Bft) 94,00 %
06.06.2017 20:04 13,8 C 22,8 C 92 % 1008,1 hPa 0,0 l/m 21,7 km/h (4 Bft) SW 232 0 min 0,000 mm 0,0 UV-I 18 W/m 12,5 C 7,8 C 35,4 km/h (5 Bft) 93,18 %
06.06.2017 20:06 13,8 C 22,8 C 92 % 1008,3 hPa 0,0 l/m 20,0 km/h (4 Bft) W-SW 250 0 min 0,000 mm 0,0 UV-I 21 W/m 12,5 C 8,2 C 30,6 km/h (5 Bft) 97,56 %
06.06.2017 20:08 13,7 C 22,8 C 91 % 1008,3 hPa 0,0 l/m 26,9 km/h (4 Bft) SW 221 0 min 0,000 mm 0,0 UV-I 21 W/m 12,3 C 6,4 C 48,3 km/h (6 Bft) 98,00 %
06.06.2017 20:10 13,7 C 22,8 C 91 % 1008,4 hPa 0,0 l/m 23,1 km/h (4 Bft) W-SW 253 0 min 0,000 mm 0,0 UV-I 24 W/m 12,3 C 7,3 C 32,2 km/h (5 Bft) 95,74 %
06.06.2017 20:12 13,6 C 22,8 C 91 % 1008,5 hPa 0,0 l/m 20,8 km/h (4 Bft) S-SW 208 0 min 0,000 mm 0,0 UV-I 27 W/m 12,2 C 7,7 C 37,0 km/h (5 Bft) 98,11 %
06.06.2017 20:14 13,5 C 22,8 C 90 % 1008,5 hPa 0,0 l/m 32,5 km/h (5 Bft) W-SW 245 0 min 0,000 mm 0,0 UV-I 30 W/m 11,9 C 5,1 C 46,7 km/h (6 Bft) 95,45 %
06.06.2017 20:16 13,3 C 22,8 C 89 % 1008,7 hPa 0,0 l/m 27,8 km/h (4 Bft) W 265 0 min 0,000 mm 0,0 UV-I 30 W/m 11,5 C 5,7 C 40,2 km/h (6 Bft) 98,00 %
06.06.2017 20:18 13,2 C 22,8 C 89 % 1008,6 hPa 0,0 l/m 28,7 km/h (4 Bft) W-SW 240 0 min 0,000 mm 0,0 UV-I 30 W/m 11,4 C 5,4 C 43,5 km/h (6 Bft) 97,37 %
06.06.2017 20:20 13,2 C 22,8 C 89 % 1008,7 hPa 0,0 l/m 27,2 km/h (4 Bft) W 267 0 min 0,000 mm 0,0 UV-I 30 W/m 11,4 C 5,7 C 38,6 km/h (5 Bft) 94,00 %
06.06.2017 20:22 13,1 C 22,8 C 89 % 1008,8 hPa 0,0 l/m 22,7 km/h (4 Bft) W-SW 257 0 min 0,000 mm 0,0 UV-I 30 W/m 11,3 C 6,6 C 35,4 km/h (5 Bft) 97,44 %
06.06.2017 20:24 12,9 C 22,8 C 89 % 1008,7 hPa 0,0 l/m 24,7 km/h (4 Bft) SW 224 0 min 0,000 mm 0,0 UV-I 28 W/m 11,1 C 5,8 C 35,4 km/h (5 Bft) 98,18 %
06.06.2017 20:26 12,9 C 22,8 C 89 % 1008,9 hPa 0,0 l/m 24,5 km/h (4 Bft) SW 236 0 min 0,000 mm 0,0 UV-I 25 W/m 11,1 C 5,9 C 35,4 km/h (5 Bft) 100,00 %
06.06.2017 20:28 12,8 C 22,8 C 89 % 1008,9 hPa 0,0 l/m 25,5 km/h (4 Bft) SW 234 0 min 0,000 mm 0,0 UV-I 21 W/m 11,0 C 5,5 C 37,0 km/h (5 Bft) 96,15 %
06.06.2017 20:30 12,8 C 22,8 C 89 % 1008,9 hPa 0,2 l/m 23,0 km/h (4 Bft) SW 228 0 min 0,000 mm 0,0 UV-I 18 W/m 11,0 C 6,1 C 30,6 km/h (5 Bft) 92,31 %
06.06.2017 20:32 12,7 C 22,8 C 89 % 1009,1 hPa 0,0 l/m 24,1 km/h (4 Bft) W-SW 246 0 min 0,000 mm 0,0 UV-I 17 W/m 10,9 C 5,7 C 41,8 km/h (6 Bft) 100,00 %
06.06.2017 20:34 12,6 C 22,8 C 89 % 1009,1 hPa 0,0 l/m 29,0 km/h (5 Bft) SW 225 0 min 0,000 mm 0,0 UV-I 15 W/m 10,8 C 4,5 C 43,5 km/h (6 Bft) 100,00 %
06.06.2017 20:36 12,4 C 22,8 C 89 % 1009,0 hPa 0,0 l/m 26,1 km/h (4 Bft) W-SW 247 0 min 0,000 mm 0,0 UV-I 14 W/m 10,6 C 4,8 C 38,6 km/h (5 Bft) 90,00 %
06.06.2017 20:38 12,3 C 22,8 C 88 % 1009,2 hPa 0,0 l/m 26,8 km/h (4 Bft) SW 227 0 min 0,000 mm 0,0 UV-I 12 W/m 10,4 C 4,5 C 37,0 km/h (5 Bft) 94,74 %
06.06.2017 20:40 12,3 C 22,8 C 88 % 1009,3 hPa 0,0 l/m 27,8 km/h (4 Bft) SW 233 0 min 0,000 mm 0,0 UV-I 11 W/m 10,4 C 4,3 C 45,1 km/h (6 Bft) 84,91 %
06.06.2017 20:42 12,2 C 22,8 C 89 % 1009,4 hPa 0,0 l/m 21,5 km/h (4 Bft) W-SW 253 0 min 0,000 mm 0,0 UV-I 9 W/m 10,4 C 5,7 C 33,8 km/h (5 Bft) 96,23 %
06.06.2017 20:44 12,1 C 22,8 C 89 % 1009,4 hPa 0,0 l/m 23,7 km/h (4 Bft) SW 231 0 min 0,000 mm 0,0 UV-I 8 W/m 10,3 C 5,0 C 37,0 km/h (5 Bft) 97,37 %
06.06.2017 20:46 11,9 C 22,8 C 89 % 1009,4 hPa 0,2 l/m 24,3 km/h (4 Bft) SW 233 0 min 0,000 mm 0,0 UV-I 7 W/m 10,1 C 4,6 C 35,4 km/h (5 Bft) 95,45 %
06.06.2017 20:48 11,9 C 22,8 C 89 % 1009,5 hPa 0,0 l/m 24,8 km/h (4 Bft) SW 216 0 min 0,000 mm 0,0 UV-I 7 W/m 10,1 C 4,5 C 37,0 km/h (5 Bft) 100,00 %
06.06.2017 20:50 11,8 C 22,8 C 89 % 1009,5 hPa 0,0 l/m 27,3 km/h (4 Bft) SW 228 0 min 0,000 mm 0,0 UV-I 7 W/m 10,0 C 3,7 C 41,8 km/h (6 Bft) 96,36 %
06.06.2017 20:52 11,8 C 22,8 C 89 % 1009,7 hPa 0,0 l/m 23,6 km/h (4 Bft) SW 219 0 min 0,000 mm 0,0 UV-I 5 W/m 10,0 C 4,6 C 37,0 km/h (5 Bft) 100,00 %
06.06.2017 20:54 11,7 C 22,8 C 89 % 1009,7 hPa 0,0 l/m 16,9 km/h (3 Bft) S 189 0 min 0,000 mm 0,0 UV-I 5 W/m 9,9 C 6,5 C 27,4 km/h (4 Bft) 98,11 %
06.06.2017 20:56 11,6 C 22,8 C 90 % 1009,8 hPa 0,2 l/m 21,9 km/h (4 Bft) SW 229 0 min 0,000 mm 0,0 UV-I 5 W/m 10,0 C 4,8 C 37,0 km/h (5 Bft) 94,74 %
06.06.2017 20:58 11,6 C 22,8 C 90 % 1009,8 hPa 0,0 l/m 22,3 km/h (4 Bft) SW 224 0 min 0,000 mm 0,0 UV-I 5 W/m 10,0 C 4,7 C 35,4 km/h (5 Bft) 98,11 %
06.06.2017 21:00 11,5 C 22,8 C 90 % 1009,8 hPa 0,0 l/m 25,2 km/h (4 Bft) SW 222 0 min 0,000 mm 0,0 UV-I 5 W/m 9,9 C 3,8 C 37,0 km/h (5 Bft) 100,00 %
06.06.2017 21:02 11,4 C 22,8 C 90 % 1009,9 hPa 0,2 l/m 17,7 km/h (3 Bft) S 181 0 min 0,026 mm 0,0 UV-I 3 W/m 9,8 C 5,8 C 27,4 km/h (4 Bft) 100,00 %
06.06.2017 21:04 11,4 C 22,8 C 90 % 1010,0 hPa 0,0 l/m 19,7 km/h (3 Bft) S-SO 160 0 min 0,000 mm 0,0 UV-I 0 W/m 9,8 C 5,2 C 33,8 km/h (5 Bft) 96,36 %
06.06.2017 21:06 11,4 C 22,8 C 90 % 1010,0 hPa 0,0 l/m 19,9 km/h (4 Bft) S-SW 202 0 min 0,000 mm 0,0 UV-I 0 W/m 9,8 C 5,1 C 30,6 km/h (5 Bft) 100,00 %
06.06.2017 21:08 11,3 C 22,8 C 90 % 1010,1 hPa 0,0 l/m 21,2 km/h (4 Bft) S-SW 198 0 min 0,000 mm 0,0 UV-I 0 W/m 9,7 C 4,6 C 33,8 km/h (5 Bft) 100,00 %
06.06.2017 21:10 11,3 C 22,8 C 89 % 1010,2 hPa 0,0 l/m 24,0 km/h (4 Bft) S-SW 200 0 min 0,000 mm 0,0 UV-I 0 W/m 9,6 C 3,8 C 35,4 km/h (5 Bft) 97,56 %
06.06.2017 21:12 11,3 C 22,8 C 89 % 1010,2 hPa 0,2 l/m 21,2 km/h (4 Bft) SW 219 0 min 0,000 mm 0,0 UV-I 0 W/m 9,6 C 4,6 C 33,8 km/h (5 Bft) 94,34 %
06.06.2017 21:14 11,3 C 22,8 C 89 % 1010,3 hPa 0,0 l/m 21,5 km/h (4 Bft) SW 220 0 min 0,000 mm 0,0 UV-I 0 W/m 9,6 C 4,5 C 33,8 km/h (5 Bft) 97,87 %
06.06.2017 21:16 11,3 C 22,8 C 88 % 1010,3 hPa 0,0 l/m 21,2 km/h (4 Bft) S-SW 209 0 min 0,000 mm 0,0 UV-I 0 W/m 9,4 C 4,6 C 33,8 km/h (5 Bft) 98,00 %
06.06.2017 21:18 11,3 C 22,8 C 88 % 1010,4 hPa 0,0 l/m 16,7 km/h (3 Bft) S-SO 162 0 min 0,000 mm 0,0 UV-I 0 W/m 9,4 C 6,1 C 27,4 km/h (4 Bft) 100,00 %
06.06.2017 21:20 11,2 C 22,8 C 88 % 1010,4 hPa 0,0 l/m 21,5 km/h (4 Bft) W-SW 253 0 min 0,000 mm 0,0 UV-I 0 W/m 9,3 C 4,4 C 32,2 km/h (5 Bft) 97,56 %
06.06.2017 21:22 11,2 C 22,8 C 88 % 1010,5 hPa 0,0 l/m 21,9 km/h (4 Bft) SW 217 0 min 0,000 mm 0,0 UV-I 0 W/m 9,3 C 4,3 C 33,8 km/h (5 Bft) 98,00 %
06.06.2017 21:24 11,2 C 22,8 C 88 % 1010,5 hPa 0,0 l/m 19,4 km/h (3 Bft) W-SW 250 0 min 0,000 mm 0,0 UV-I 0 W/m 9,3 C 5,0 C 29,0 km/h (5 Bft) 100,00 %
06.06.2017 21:26 11,2 C 22,8 C 88 % 1010,5 hPa 0,2 l/m 17,3 km/h (3 Bft) SW 232 0 min 0,000 mm 0,0 UV-I 0 W/m 9,3 C 5,7 C 25,7 km/h (4 Bft) 100,00 %
06.06.2017 21:28 11,2 C 22,8 C 88 % 1010,5 hPa 0,0 l/m 20,7 km/h (4 Bft) SW 232 0 min 0,000 mm 0,0 UV-I 0 W/m 9,3 C 4,6 C 30,6 km/h (5 Bft) 100,00 %
06.06.2017 21:30 11,2 C 22,8 C 88 % 1010,6 hPa 0,0 l/m 19,9 km/h (4 Bft) W-SW 242 0 min 0,000 mm 0,0 UV-I 0 W/m 9,3 C 4,9 C 33,8 km/h (5 Bft) 100,00 %
06.06.2017 21:32 11,2 C 22,8 C 88 % 1010,7 hPa 0,0 l/m 19,7 km/h (3 Bft) SW 215 0 min 0,000 mm 0,0 UV-I 0 W/m 9,3 C 4,9 C 25,7 km/h (4 Bft) 96,23 %
06.06.2017 21:34 11,2 C 22,8 C 88 % 1010,6 hPa 0,0 l/m 19,3 km/h (3 Bft) W-SW 238 0 min 0,000 mm 0,0 UV-I 0 W/m 9,3 C 5,1 C 25,7 km/h (4 Bft) 100,00 %
06.06.2017 21:36 11,2 C 22,8 C 88 % 1010,7 hPa 0,0 l/m 18,7 km/h (3 Bft) S-SW 205 0 min 0,000 mm 0,0 UV-I 0 W/m 9,3 C 5,3 C 32,2 km/h (5 Bft) 100,00 %
06.06.2017 21:38 11,3 C 22,8 C 88 % 1010,9 hPa 0,0 l/m 20,8 km/h (4 Bft) S-SW 192 0 min 0,000 mm 0,0 UV-I 0 W/m 9,4 C 4,7 C 29,0 km/h (5 Bft) 97,56 %
06.06.2017 21:40 11,3 C 22,8 C 88 % 1010,9 hPa 0,0 l/m 20,6 km/h (4 Bft) S 188 0 min 0,000 mm 0,0 UV-I 0 W/m 9,4 C 4,8 C 32,2 km/h (5 Bft) 98,00 %
06.06.2017 21:43 11,3 C 22,8 C 87 % 1011,1 hPa 0,0 l/m 20,3 km/h (4 Bft) W-SW 241 0 min 0,000 mm 0,0 UV-I 0 W/m 9,2 C 4,9 C 35,4 km/h (5 Bft) 97,30 %
06.06.2017 21:44 11,3 C 22,8 C 87 % 1011,1 hPa 0,0 l/m 17,1 km/h (3 Bft) S-SW 210 0 min 0,000 mm 0,0 UV-I 0 W/m 9,2 C 5,9 C 20,9 km/h (4 Bft) 95,65 %
06.06.2017 21:46 11,3 C 22,8 C 87 % 1011,1 hPa 0,0 l/m 20,9 km/h (4 Bft) SW 218 0 min 0,000 mm 0,0 UV-I 0 W/m 9,2 C 4,7 C 32,2 km/h (5 Bft) 100,00 %
06.06.2017 21:48 11,3 C 22,8 C 87 % 1011,1 hPa 0,0 l/m 17,9 km/h (3 Bft) W-SW 238 0 min 0,000 mm 0,0 UV-I 0 W/m 9,2 C 5,6 C 30,6 km/h (5 Bft) 98,11 %
06.06.2017 21:50 11,3 C 22,8 C 87 % 1011,4 hPa 0,0 l/m 18,1 km/h (3 Bft) S-SW 200 0 min 0,000 mm 0,0 UV-I 0 W/m 9,2 C 5,6 C 30,6 km/h (5 Bft) 97,56 %
06.06.2017 21:52 11,3 C 22,8 C 87 % 1011,3 hPa 0,0 l/m 17,4 km/h (3 Bft) W-SW 240 0 min 0,000 mm 0,0 UV-I 0 W/m 9,2 C 5,8 C 32,2 km/h (5 Bft) 98,11 %
06.06.2017 21:54 11,3 C 22,8 C 87 % 1011,2 hPa 0,0 l/m 14,5 km/h (3 Bft) SW 232 0 min 0,000 mm 0,0 UV-I 0 W/m 9,2 C 6,9 C 24,1 km/h (4 Bft) 93,18 %
06.06.2017 21:56 11,2 C 22,8 C 87 % 1011,3 hPa 0,0 l/m 16,5 km/h (3 Bft) S-SW 195 0 min 0,000 mm 0,0 UV-I 0 W/m 9,1 C 6,0 C 24,1 km/h (4 Bft) 90,91 %
06.06.2017 21:58 11,2 C 22,8 C 87 % 1011,2 hPa 0,0 l/m 16,1 km/h (3 Bft) SW 227 0 min 0,000 mm 0,0 UV-I 0 W/m 9,1 C 6,2 C 24,1 km/h (4 Bft) 96,00 %
06.06.2017 22:00 11,2 C 22,8 C 87 % 1011,3 hPa 0,0 l/m 17,8 km/h (3 Bft) SW 232 0 min 0,000 mm 0,0 UV-I 0 W/m 9,1 C 5,6 C 32,2 km/h (5 Bft) 98,00 %
06.06.2017 22:02 11,2 C 22,8 C 87 % 1011,4 hPa 0,0 l/m 17,1 km/h (3 Bft) W-SW 238 0 min 0,025 mm 0,0 UV-I 0 W/m 9,1 C 5,8 C 25,7 km/h (4 Bft) 93,62 %
06.06.2017 22:04 11,2 C 22,8 C 87 % 1011,4 hPa 0,0 l/m 18,3 km/h (3 Bft) W-SW 238 0 min 0,000 mm 0,0 UV-I 0 W/m 9,1 C 5,4 C 27,4 km/h (4 Bft) 100,00 %
06.06.2017 22:06 11,2 C 22,8 C 87 % 1011,4 hPa 0,0 l/m 19,8 km/h (3 Bft) W-SW 238 0 min 0,000 mm 0,0 UV-I 0 W/m 9,1 C 4,9 C 29,0 km/h (5 Bft) 92,45 %
06.06.2017 22:08 11,2 C 22,8 C 87 % 1011,4 hPa 0,0 l/m 18,8 km/h (3 Bft) W-SW 257 0 min 0,000 mm 0,0 UV-I 0 W/m 9,1 C 5,2 C 30,6 km/h (5 Bft) 95,45 %
06.06.2017 22:10 11,2 C 22,8 C 87 % 1011,4 hPa 0,0 l/m 18,7 km/h (3 Bft) W-SW 258 0 min 0,000 mm 0,0 UV-I 0 W/m 9,1 C 5,3 C 24,1 km/h (4 Bft) 96,15 %
06.06.2017 22:12 11,2 C 22,8 C 87 % 1011,5 hPa 0,0 l/m 16,2 km/h (3 Bft) SW 229 0 min 0,000 mm 0,0 UV-I 0 W/m 9,1 C 6,1 C 24,1 km/h (4 Bft) 92,68 %
06.06.2017 22:14 11,2 C 22,8 C 87 % 1011,5 hPa 0,0 l/m 16,8 km/h (3 Bft) W-SW 242 0 min 0,000 mm 0,0 UV-I 0 W/m 9,1 C 5,9 C 27,4 km/h (4 Bft) 95,74 %
06.06.2017 22:16 11,2 C 22,8 C 88 % 1011,5 hPa 0,0 l/m 15,9 km/h (3 Bft) W-SW 247 0 min 0,000 mm 0,0 UV-I 0 W/m 9,3 C 6,2 C 22,5 km/h (4 Bft) 94,00 %
06.06.2017 22:18 11,2 C 22,8 C 88 % 1011,6 hPa 0,0 l/m 13,5 km/h (3 Bft) SW 229 0 min 0,000 mm 0,0 UV-I 0 W/m 9,3 C 7,2 C 24,1 km/h (4 Bft) 95,12 %
06.06.2017 22:20 11,1 C 22,8 C 88 % 1011,6 hPa 0,0 l/m 15,4 km/h (3 Bft) SW 214 0 min 0,000 mm 0,0 UV-I 0 W/m 9,2 C 6,3 C 25,7 km/h (4 Bft) 94,64 %
06.06.2017 22:22 11,1 C 22,8 C 88 % 1011,7 hPa 0,2 l/m 16,2 km/h (3 Bft) W-SW 239 0 min 0,000 mm 0,0 UV-I 0 W/m 9,2 C 6,0 C 24,1 km/h (4 Bft) 94,87 %
06.06.2017 22:24 11,1 C 22,8 C 88 % 1011,6 hPa 0,0 l/m 16,4 km/h (3 Bft) S-SW 196 0 min 0,000 mm 0,0 UV-I 0 W/m 9,2 C 5,9 C 22,5 km/h (4 Bft) 96,00 %
06.06.2017 22:26 11,1 C 22,8 C 88 % 1011,5 hPa 0,0 l/m 13,8 km/h (3 Bft) S-SW 211 0 min 0,000 mm 0,0 UV-I 0 W/m 9,2 C 7,0 C 19,3 km/h (3 Bft) 96,55 %
06.06.2017 22:28 11,1 C 22,8 C 89 % 1011,5 hPa 0,0 l/m 12,4 km/h (3 Bft) SW 230 0 min 0,000 mm 0,0 UV-I 0 W/m 9,4 C 7,6 C 17,7 km/h (3 Bft) 95,38 %
06.06.2017 22:30 11,1 C 22,8 C 89 % 1011,7 hPa 0,0 l/m 13,1 km/h (3 Bft) W-SW 254 0 min 0,000 mm 0,0 UV-I 0 W/m 9,4 C 7,3 C 17,7 km/h (3 Bft) 81,82 %
06.06.2017 22:32 11,0 C 22,8 C 89 % 1011,7 hPa 0,0 l/m 10,3 km/h (2 Bft) SW 232 0 min 0,000 mm 0,0 UV-I 0 W/m 9,3 C 8,5 C 17,7 km/h (3 Bft) 94,19 %
06.06.2017 22:34 11,0 C 22,8 C 89 % 1011,7 hPa 0,0 l/m 12,1 km/h (2 Bft) SW 229 0 min 0,000 mm 0,0 UV-I 0 W/m 9,3 C 7,6 C 19,3 km/h (3 Bft) 97,37 %
06.06.2017 22:36 10,9 C 22,8 C 89 % 1011,7 hPa 0,0 l/m 12,8 km/h (3 Bft) W-SW 240 0 min 0,000 mm 0,0 UV-I 0 W/m 9,2 C 7,2 C 17,7 km/h (3 Bft) 96,23 %
06.06.2017 22:38 10,9 C 22,8 C 90 % 1011,5 hPa 0,0 l/m 9,7 km/h (2 Bft) SW 229 0 min 0,000 mm 0,0 UV-I 0 W/m 9,3 C 8,8 C 16,1 km/h (3 Bft) 95,12 %
06.06.2017 22:40 10,9 C 22,8 C 90 % 1011,5 hPa 0,0 l/m 11,0 km/h (2 Bft) W-SW 239 0 min 0,000 mm 0,0 UV-I 0 W/m 9,3 C 8,1 C 14,5 km/h (3 Bft) 96,43 %
06.06.2017 22:43 10,9 C 22,8 C 90 % 1011,5 hPa 0,0 l/m 14,8 km/h (3 Bft) SW 223 0 min 0,000 mm 0,0 UV-I 0 W/m 9,3 C 6,3 C 24,1 km/h (4 Bft) 97,26 %
06.06.2017 22:44 10,9 C 22,8 C 90 % 1011,5 hPa 0,0 l/m 11,8 km/h (2 Bft) S-SW 203 0 min 0,000 mm 0,0 UV-I 0 W/m 9,3 C 7,6 C 16,1 km/h (3 Bft) 100,00 %
06.06.2017 22:46 10,9 C 22,8 C 90 % 1011,6 hPa 0,0 l/m 14,5 km/h (3 Bft) SW 215 0 min 0,000 mm 0,0 UV-I 0 W/m 9,3 C 6,4 C 20,9 km/h (4 Bft) 96,00 %
06.06.2017 22:48 10,9 C 22,8 C 90 % 1011,4 hPa 0,0 l/m 13,6 km/h (3 Bft) SW 234 0 min 0,000 mm 0,0 UV-I 0 W/m 9,3 C 6,8 C 20,9 km/h (4 Bft) 95,12 %
06.06.2017 22:50 10,9 C 22,8 C 90 % 1011,6 hPa 0,0 l/m 12,4 km/h (3 Bft) SW 220 0 min 0,000 mm 0,0 UV-I 0 W/m 9,3 C 7,4 C 20,9 km/h (4 Bft) 96,61 %
06.06.2017 22:52 10,9 C 22,8 C 90 % 1011,6 hPa 0,0 l/m 8,3 km/h (2 Bft) S-SW 211 0 min 0,000 mm 0,0 UV-I 0 W/m 9,3 C 9,6 C 16,1 km/h (3 Bft) 94,74 %
06.06.2017 22:54 10,9 C 22,8 C 90 % 1011,6 hPa 0,0 l/m 11,6 km/h (2 Bft) SW 218 0 min 0,000 mm 0,0 UV-I 0 W/m 9,3 C 7,7 C 17,7 km/h (3 Bft) 94,34 %
06.06.2017 22:56 10,9 C 22,8 C 90 % 1011,6 hPa 0,0 l/m 8,6 km/h (2 Bft) SW 225 0 min 0,000 mm 0,0 UV-I 0 W/m 9,3 C 9,4 C 12,9 km/h (3 Bft) 92,68 %
06.06.2017 22:58 10,8 C 22,8 C 90 % 1011,7 hPa 0,0 l/m 8,4 km/h (2 Bft) SW 236 0 min 0,000 mm 0,0 UV-I 0 W/m 9,2 C 9,4 C 12,9 km/h (3 Bft) 96,23 %
06.06.2017 23:00 10,8 C 22,8 C 91 % 1011,7 hPa 0,0 l/m 8,6 km/h (2 Bft) W-SW 243 0 min 0,000 mm 0,0 UV-I 0 W/m 9,4 C 9,3 C 14,5 km/h (3 Bft) 97,73 %
06.06.2017 23:02 10,8 C 22,8 C 91 % 1011,7 hPa 0,2 l/m 8,1 km/h (2 Bft) SW 228 0 min 0,026 mm 0,0 UV-I 0 W/m 9,4 C 9,6 C 11,3 km/h (2 Bft) 92,86 %
06.06.2017 23:04 10,8 C 22,8 C 91 % 1011,7 hPa 0,0 l/m 6,3 km/h (2 Bft) SW 221 0 min 0,000 mm 0,0 UV-I 0 W/m 9,4 C 10,8 C 9,7 km/h (2 Bft) 93,62 %
06.06.2017 23:06 10,8 C 22,8 C 91 % 1011,7 hPa 0,0 l/m 5,9 km/h (2 Bft) SW 232 0 min 0,000 mm 0,0 UV-I 0 W/m 9,4 C 10,8 C 8,0 km/h (2 Bft) 98,11 %
06.06.2017 23:08 10,9 C 22,8 C 91 % 1011,8 hPa 0,0 l/m 5,2 km/h (1 Bft) SW 225 0 min 0,000 mm 0,0 UV-I 0 W/m 9,5 C 10,9 C 8,0 km/h (2 Bft) 94,00 %
06.06.2017 23:10 10,9 C 22,8 C 92 % 1011,8 hPa 0,0 l/m 4,9 km/h (1 Bft) SW 227 0 min 0,000 mm 0,0 UV-I 0 W/m 9,7 C 10,9 C 8,0 km/h (2 Bft) 97,56 %
06.06.2017 23:12 10,9 C 22,8 C 92 % 1011,8 hPa 0,0 l/m 4,5 km/h (1 Bft) S-SW 209 0 min 0,000 mm 0,0 UV-I 0 W/m 9,7 C 10,9 C 6,4 km/h (2 Bft) 95,74 %
06.06.2017 23:14 10,8 C 22,8 C 92 % 1011,8 hPa 0,0 l/m 5,1 km/h (1 Bft) W-SW 239 0 min 0,000 mm 0,0 UV-I 0 W/m 9,6 C 10,8 C 8,0 km/h (2 Bft) 95,92 %
06.06.2017 23:16 10,8 C 22,8 C 92 % 1011,7 hPa 0,0 l/m 4,3 km/h (1 Bft) S-SW 192 0 min 0,000 mm 0,0 UV-I 0 W/m 9,6 C 10,8 C 8,0 km/h (2 Bft) 100,00 %
06.06.2017 23:18 10,8 C 22,8 C 92 % 1011,7 hPa 0,0 l/m 3,8 km/h (1 Bft) S 180 0 min 0,000 mm 0,0 UV-I 0 W/m 9,6 C 10,8 C 6,4 km/h (2 Bft) 97,37 %
06.06.2017 23:20 10,8 C 22,8 C 92 % 1011,7 hPa 0,0 l/m 6,0 km/h (2 Bft) S-SW 212 0 min 0,000 mm 0,0 UV-I 0 W/m 9,6 C 10,8 C 12,9 km/h (3 Bft) 98,00 %
06.06.2017 23:22 10,8 C 22,8 C 92 % 1011,7 hPa 0,0 l/m 5,4 km/h (1 Bft) SW 233 0 min 0,000 mm 0,0 UV-I 0 W/m 9,6 C 10,8 C 9,7 km/h (2 Bft) 97,56 %
06.06.2017 23:24 10,9 C 22,8 C 92 % 1011,7 hPa 0,0 l/m 5,2 km/h (1 Bft) SW 226 0 min 0,000 mm 0,0 UV-I 0 W/m 9,7 C 10,9 C 8,0 km/h (2 Bft) 98,21 %
06.06.2017 23:26 10,8 C 22,8 C 92 % 1011,8 hPa 0,0 l/m 7,4 km/h (2 Bft) SW 215 0 min 0,000 mm 0,0 UV-I 0 W/m 9,6 C 10,1 C 11,3 km/h (2 Bft) 98,00 %
06.06.2017 23:28 10,8 C 22,8 C 92 % 1011,7 hPa 0,0 l/m 7,2 km/h (2 Bft) SW 221 0 min 0,000 mm 0,0 UV-I 0 W/m 9,6 C 10,2 C 11,3 km/h (2 Bft) 100,00 %
06.06.2017 23:30 10,8 C 22,8 C 92 % 1011,8 hPa 0,0 l/m 6,0 km/h (2 Bft) SW 226 0 min 0,000 mm 0,0 UV-I 0 W/m 9,6 C 10,8 C 9,7 km/h (2 Bft) 98,00 %
06.06.2017 23:32 10,8 C 22,2 C 92 % 1011,7 hPa 0,0 l/m 5,4 km/h (1 Bft) S-SW 200 0 min 0,000 mm 0,0 UV-I 0 W/m 9,6 C 10,8 C 8,0 km/h (2 Bft) 95,74 %
06.06.2017 23:34 10,9 C 22,8 C 92 % 1011,6 hPa 0,0 l/m 5,3 km/h (1 Bft) S-SW 210 0 min 0,000 mm 0,0 UV-I 0 W/m 9,7 C 10,9 C 8,0 km/h (2 Bft) 98,00 %
06.06.2017 23:36 10,9 C 22,2 C 92 % 1011,6 hPa 0,0 l/m 4,9 km/h (1 Bft) SW 214 0 min 0,000 mm 0,0 UV-I 0 W/m 9,7 C 10,9 C 8,0 km/h (2 Bft) 100,00 %
06.06.2017 23:38 10,9 C 22,2 C 92 % 1011,7 hPa 0,0 l/m 5,9 km/h (2 Bft) S 184 0 min 0,000 mm 0,0 UV-I 0 W/m 9,7 C 10,9 C 9,7 km/h (2 Bft) 100,00 %
06.06.2017 23:40 10,9 C 22,2 C 92 % 1011,7 hPa 0,0 l/m 4,6 km/h (1 Bft) S 177 0 min 0,000 mm 0,0 UV-I 0 W/m 9,7 C 10,9 C 8,0 km/h (2 Bft) 97,62 %
06.06.2017 23:42 10,9 C 22,2 C 92 % 1011,8 hPa 0,0 l/m 4,9 km/h (1 Bft) SW 223 0 min 0,000 mm 0,0 UV-I 0 W/m 9,7 C 10,9 C 8,0 km/h (2 Bft) 98,18 %
06.06.2017 23:44 10,9 C 22,2 C 92 % 1011,7 hPa 0,0 l/m 6,4 km/h (2 Bft) S-SW 196 0 min 0,000 mm 0,0 UV-I 0 W/m 9,7 C 10,9 C 9,7 km/h (2 Bft) 100,00 %
06.06.2017 23:46 10,9 C 22,2 C 92 % 1011,8 hPa 0,0 l/m 6,1 km/h (2 Bft) SW 219 0 min 0,000 mm 0,0 UV-I 0 W/m 9,7 C 10,9 C 9,7 km/h (2 Bft) 98,11 %
06.06.2017 23:48 10,9 C 22,2 C 92 % 1011,8 hPa 0,0 l/m 6,3 km/h (2 Bft) S 187 0 min 0,000 mm 0,0 UV-I 0 W/m 9,7 C 10,9 C 11,3 km/h (2 Bft) 97,37 %
06.06.2017 23:50 10,9 C 22,2 C 92 % 1011,8 hPa 0,0 l/m 4,0 km/h (1 Bft) S-SW 197 0 min 0,000 mm 0,0 UV-I 0 W/m 9,7 C 10,9 C 8,0 km/h (2 Bft) 98,00 %
06.06.2017 23:52 10,9 C 22,2 C 92 % 1011,8 hPa 0,0 l/m 6,4 km/h (2 Bft) SW 223 0 min 0,000 mm 0,0 UV-I 0 W/m 9,7 C 10,9 C 9,7 km/h (2 Bft) 100,00 %
06.06.2017 23:54 10,9 C 22,2 C 92 % 1011,8 hPa 0,0 l/m 5,7 km/h (1 Bft) SW 223 0 min 0,000 mm 0,0 UV-I 0 W/m 9,7 C 10,9 C 8,0 km/h (2 Bft) 98,39 %
06.06.2017 23:56 10,9 C 22,2 C 92 % 1011,8 hPa 0,0 l/m 4,8 km/h (1 Bft) S-SW 209 0 min 0,000 mm 0,0 UV-I 0 W/m 9,7 C 10,9 C 9,7 km/h (2 Bft) 97,87 %
06.06.2017 23:58 10,9 C 22,2 C 92 % 1011,8 hPa 0,0 l/m 5,2 km/h (1 Bft) SW 236 0 min 0,000 mm 0,0 UV-I 0 W/m 9,7 C 10,9 C 8,0 km/h (2 Bft) 97,87 %
_ Min-Zeit 22:58 23:32 15:24 13:06 - 01:38 - - - - - - 21:56 20:50 01:38 22:30
Minimum _ 10,8 C 22,2 C 78 % 1002,8 hPa - 0,0 km/h (0 Bft) - - - - - - 9,1 C 3,7 C 0,0 km/h (0 Bft) 81,82 %
_ Max-Zeit 13:16 00:00 06:18 23:08 15:48 20:14 - - 05:18 13:00 12:24 12:18 13:06 13:10 20:08 00:20
Maximum _ 21,3 C 23,9 C 98 % 1011,8 hPa 0,8 l/m 32,5 km/h
W-SW (5 Bft)
- - 2 min 0,330 mm 6,0 UV-I 1039 W/m 18,3 C 21,2 C 48,3 km/h
W-SW (6 Bft)
100,00 %
Durchschnitt _ 15,5 C 23,3 C 91 % 1006,4 hPa #8,8 l/m 7,5 km/h (2 Bft) W-SW - #1:04 h #1,880 mm 1,8 UV-I 180 W/m 14,0 C 13,9 C 12,4 km/h (3 Bft) 96,69 %